<?xml version="1.0" encoding="UTF-8" standalone="no" ?><gpx xmlns="http://www.topografix.com/GPX/1/1" xmlns:gpxx="http://www.garmin.com/xmlschemas/GpxExtensions/v3" xmlns:wptx1="http://www.garmin.com/xmlschemas/WaypointExtension/v1" xmlns:gpxtpx="http://www.garmin.com/xmlschemas/TrackPointExtension/v1" creator="GuideVTT.com" version="1.1" xmlns:xsi="http://www.w3.org/2001/XMLSchema-instance" xsi:schemaLocation="http://www.topografix.com/GPX/1/1 http://www.topografix.com/GPX/1/1/gpx.xsd http://www.garmin.com/xmlschemas/GpxExtensions/v3 http://www8.garmin.com/xmlschemas/GpxExtensionsv3.xsd http://www.garmin.com/xmlschemas/WaypointExtension/v1 http://www8.garmin.com/xmlschemas/WaypointExtensionv1.xsd http://www.garmin.com/xmlschemas/TrackPointExtension/v1 http://www.garmin.com/xmlschemas/TrackPointExtensionv1.xsd">
<metadata><link href="http://www.garmin.com"><text>Garmin International</text></link><time>2013-06-22T15:13:50Z</time></metadata>
<trk><name>2024rp19.gpx</name><extensions><gpxx:TrackExtension><gpxx:DisplayColor>Cyan</gpxx:DisplayColor></gpxx:TrackExtension></extensions><trkseg>
<trkpt lat="46.09105" lon="7.95674"><ele>1700</ele><time>2024-08-09T11:06:24Z</time></trkpt>
<trkpt lat="46.091" lon="7.95675"><ele>1700</ele><time>2024-08-09T11:06:27Z</time></trkpt>
<trkpt lat="46.0909" lon="7.9568"><ele>1700.2</ele><time>2024-08-09T11:06:33Z</time></trkpt>
<trkpt lat="46.09076" lon="7.9568"><ele>1700.8</ele><time>2024-08-09T11:06:40Z</time></trkpt>
<trkpt lat="46.09073" lon="7.95682"><ele>1701</ele><time>2024-08-09T11:06:41Z</time></trkpt>
<trkpt lat="46.09069" lon="7.95684"><ele>1701.2</ele><time>2024-08-09T11:06:43Z</time></trkpt>
<trkpt lat="46.09062" lon="7.95687"><ele>1701.6</ele><time>2024-08-09T11:06:46Z</time></trkpt>
<trkpt lat="46.09054" lon="7.95688"><ele>1702</ele><time>2024-08-09T11:06:49Z</time></trkpt>
<trkpt lat="46.09044" lon="7.95691"><ele>1702.6</ele><time>2024-08-09T11:06:54Z</time></trkpt>
<trkpt lat="46.09034" lon="7.95691"><ele>1703</ele><time>2024-08-09T11:06:59Z</time></trkpt>
<trkpt lat="46.09031" lon="7.95691"><ele>1703.2</ele><time>2024-08-09T11:07:01Z</time></trkpt>
<trkpt lat="46.09016" lon="7.95692"><ele>1703.8</ele><time>2024-08-09T11:07:08Z</time></trkpt>
<trkpt lat="46.09009" lon="7.95693"><ele>1704</ele><time>2024-08-09T11:07:11Z</time></trkpt>
<trkpt lat="46.08999" lon="7.95691"><ele>1704.6</ele><time>2024-08-09T11:07:16Z</time></trkpt>
<trkpt lat="46.08988" lon="7.9569"><ele>1705.2</ele><time>2024-08-09T11:07:21Z</time></trkpt>
<trkpt lat="46.08982" lon="7.9569"><ele>1705.4</ele><time>2024-08-09T11:07:24Z</time></trkpt>
<trkpt lat="46.08963" lon="7.95689"><ele>1706.2</ele><time>2024-08-09T11:07:32Z</time></trkpt>
<trkpt lat="46.08961" lon="7.95689"><ele>1706.2</ele><time>2024-08-09T11:07:33Z</time></trkpt>
<trkpt lat="46.08939" lon="7.95687"><ele>1707.2</ele><time>2024-08-09T11:07:42Z</time></trkpt>
<trkpt lat="46.0892" lon="7.95685"><ele>1708.4</ele><time>2024-08-09T11:07:50Z</time></trkpt>
<trkpt lat="46.08896" lon="7.95683"><ele>1709.4</ele><time>2024-08-09T11:08:00Z</time></trkpt>
<trkpt lat="46.08874" lon="7.9568"><ele>1710.4</ele><time>2024-08-09T11:08:10Z</time></trkpt>
<trkpt lat="46.08872" lon="7.9568"><ele>1710.4</ele><time>2024-08-09T11:08:11Z</time></trkpt>
<trkpt lat="46.08855" lon="7.95681"><ele>1711.4</ele><time>2024-08-09T11:08:18Z</time></trkpt>
<trkpt lat="46.0885" lon="7.95682"><ele>1711.6</ele><time>2024-08-09T11:08:20Z</time></trkpt>
<trkpt lat="46.08845" lon="7.95684"><ele>1711.8</ele><time>2024-08-09T11:08:22Z</time></trkpt>
<trkpt lat="46.0883" lon="7.95686"><ele>1712.6</ele><time>2024-08-09T11:08:29Z</time></trkpt>
<trkpt lat="46.08828" lon="7.95687"><ele>1712.8</ele><time>2024-08-09T11:08:30Z</time></trkpt>
<trkpt lat="46.08818" lon="7.9569"><ele>1713.2</ele><time>2024-08-09T11:08:36Z</time></trkpt>
<trkpt lat="46.08806" lon="7.95692"><ele>1713.6</ele><time>2024-08-09T11:08:43Z</time></trkpt>
<trkpt lat="46.08804" lon="7.95693"><ele>1714</ele><time>2024-08-09T11:08:44Z</time></trkpt>
<trkpt lat="46.08795" lon="7.95697"><ele>1714.2</ele><time>2024-08-09T11:08:49Z</time></trkpt>
<trkpt lat="46.08783" lon="7.95699"><ele>1715</ele><time>2024-08-09T11:08:56Z</time></trkpt>
<trkpt lat="46.08769" lon="7.95704"><ele>1715.6</ele><time>2024-08-09T11:09:04Z</time></trkpt>
<trkpt lat="46.08761" lon="7.95706"><ele>1716</ele><time>2024-08-09T11:09:08Z</time></trkpt>
<trkpt lat="46.08754" lon="7.95711"><ele>1716.4</ele><time>2024-08-09T11:09:12Z</time></trkpt>
<trkpt lat="46.08739" lon="7.95723"><ele>1717.2</ele><time>2024-08-09T11:09:20Z</time></trkpt>
<trkpt lat="46.08737" lon="7.95725"><ele>1717.2</ele><time>2024-08-09T11:09:21Z</time></trkpt>
<trkpt lat="46.0873" lon="7.95733"><ele>1717.6</ele><time>2024-08-09T11:09:25Z</time></trkpt>
<trkpt lat="46.08722" lon="7.9574"><ele>1718</ele><time>2024-08-09T11:09:29Z</time></trkpt>
<trkpt lat="46.0871" lon="7.95753"><ele>1718.8</ele><time>2024-08-09T11:09:36Z</time></trkpt>
<trkpt lat="46.08702" lon="7.95762"><ele>1719.2</ele><time>2024-08-09T11:09:41Z</time></trkpt>
<trkpt lat="46.08691" lon="7.95773"><ele>1719.8</ele><time>2024-08-09T11:09:47Z</time></trkpt>
<trkpt lat="46.08686" lon="7.95779"><ele>1720</ele><time>2024-08-09T11:09:50Z</time></trkpt>
<trkpt lat="46.08677" lon="7.95789"><ele>1720.8</ele><time>2024-08-09T11:09:55Z</time></trkpt>
<trkpt lat="46.08673" lon="7.95793"><ele>1721</ele><time>2024-08-09T11:09:57Z</time></trkpt>
<trkpt lat="46.08658" lon="7.95809"><ele>1721.6</ele><time>2024-08-09T11:10:05Z</time></trkpt>
<trkpt lat="46.08655" lon="7.95812"><ele>1722</ele><time>2024-08-09T11:10:07Z</time></trkpt>
<trkpt lat="46.08648" lon="7.95819"><ele>1722.4</ele><time>2024-08-09T11:10:11Z</time></trkpt>
<trkpt lat="46.08637" lon="7.9583"><ele>1723</ele><time>2024-08-09T11:10:17Z</time></trkpt>
<trkpt lat="46.08634" lon="7.95833"><ele>1723.4</ele><time>2024-08-09T11:10:19Z</time></trkpt>
<trkpt lat="46.08621" lon="7.95845"><ele>1724</ele><time>2024-08-09T11:10:26Z</time></trkpt>
<trkpt lat="46.08619" lon="7.95846"><ele>1724.4</ele><time>2024-08-09T11:10:27Z</time></trkpt>
<trkpt lat="46.08608" lon="7.95855"><ele>1724.8</ele><time>2024-08-09T11:10:33Z</time></trkpt>
<trkpt lat="46.086" lon="7.95864"><ele>1725</ele><time>2024-08-09T11:10:37Z</time></trkpt>
<trkpt lat="46.08593" lon="7.9587"><ele>1725.6</ele><time>2024-08-09T11:10:40Z</time></trkpt>
<trkpt lat="46.08579" lon="7.95884"><ele>1726.2</ele><time>2024-08-09T11:10:46Z</time></trkpt>
<trkpt lat="46.08571" lon="7.95893"><ele>1726.8</ele><time>2024-08-09T11:10:50Z</time></trkpt>
<trkpt lat="46.08562" lon="7.95901"><ele>1727.2</ele><time>2024-08-09T11:10:54Z</time></trkpt>
<trkpt lat="46.08537" lon="7.95921"><ele>1728.2</ele><time>2024-08-09T11:11:04Z</time></trkpt>
<trkpt lat="46.08534" lon="7.95922"><ele>1728.2</ele><time>2024-08-09T11:11:05Z</time></trkpt>
<trkpt lat="46.08516" lon="7.95924"><ele>1729.2</ele><time>2024-08-09T11:11:11Z</time></trkpt>
<trkpt lat="46.0851" lon="7.95921"><ele>1729.4</ele><time>2024-08-09T11:11:13Z</time></trkpt>
<trkpt lat="46.08492" lon="7.95911"><ele>1730</ele><time>2024-08-09T11:11:19Z</time></trkpt>
<trkpt lat="46.0848" lon="7.95902"><ele>1730.4</ele><time>2024-08-09T11:11:23Z</time></trkpt>
<trkpt lat="46.08469" lon="7.95894"><ele>1730.8</ele><time>2024-08-09T11:11:27Z</time></trkpt>
<trkpt lat="46.08454" lon="7.95881"><ele>1731.6</ele><time>2024-08-09T11:11:33Z</time></trkpt>
<trkpt lat="46.08451" lon="7.95878"><ele>1731.8</ele><time>2024-08-09T11:11:34Z</time></trkpt>
<trkpt lat="46.08434" lon="7.95869"><ele>1732.6</ele><time>2024-08-09T11:11:40Z</time></trkpt>
<trkpt lat="46.08423" lon="7.95865"><ele>1733.2</ele><time>2024-08-09T11:11:44Z</time></trkpt>
<trkpt lat="46.08412" lon="7.95862"><ele>1733.8</ele><time>2024-08-09T11:11:48Z</time></trkpt>
<trkpt lat="46.08402" lon="7.9586"><ele>1734.4</ele><time>2024-08-09T11:11:52Z</time></trkpt>
<trkpt lat="46.084" lon="7.95859"><ele>1734.6</ele><time>2024-08-09T11:11:53Z</time></trkpt>
<trkpt lat="46.08397" lon="7.95857"><ele>1734.8</ele><time>2024-08-09T11:11:56Z</time></trkpt>
<trkpt lat="46.08397" lon="7.95857"><ele>1735</ele><time>2024-08-09T11:11:57Z</time></trkpt>
<trkpt lat="46.08397" lon="7.95857"><ele>1735</ele><time>2024-08-09T11:12:01Z</time></trkpt>
<trkpt lat="46.08397" lon="7.95858"><ele>1735</ele><time>2024-08-09T11:12:04Z</time></trkpt>
<trkpt lat="46.08397" lon="7.95859"><ele>1735</ele><time>2024-08-09T11:12:08Z</time></trkpt>
<trkpt lat="46.08396" lon="7.95859"><ele>1735</ele><time>2024-08-09T11:12:11Z</time></trkpt>
<trkpt lat="46.08396" lon="7.95859"><ele>1735</ele><time>2024-08-09T11:12:22Z</time></trkpt>
<trkpt lat="46.08397" lon="7.95859"><ele>1735</ele><time>2024-08-09T11:12:31Z</time></trkpt>
<trkpt lat="46.08397" lon="7.95859"><ele>1735</ele><time>2024-08-09T11:12:32Z</time></trkpt>
<trkpt lat="46.08397" lon="7.95859"><ele>1735</ele><time>2024-08-09T11:12:33Z</time></trkpt>
<trkpt lat="46.08397" lon="7.95859"><ele>1735</ele><time>2024-08-09T11:12:34Z</time></trkpt>
<trkpt lat="46.08397" lon="7.95859"><ele>1734.8</ele><time>2024-08-09T11:12:37Z</time></trkpt>
<trkpt lat="46.08396" lon="7.95859"><ele>1734.8</ele><time>2024-08-09T11:12:38Z</time></trkpt>
<trkpt lat="46.08393" lon="7.95858"><ele>1734.8</ele><time>2024-08-09T11:12:41Z</time></trkpt>
<trkpt lat="46.08379" lon="7.95855"><ele>1735.4</ele><time>2024-08-09T11:12:47Z</time></trkpt>
<trkpt lat="46.08374" lon="7.95854"><ele>1735.6</ele><time>2024-08-09T11:12:49Z</time></trkpt>
<trkpt lat="46.08367" lon="7.95852"><ele>1736</ele><time>2024-08-09T11:12:52Z</time></trkpt>
<trkpt lat="46.08352" lon="7.95846"><ele>1736.6</ele><time>2024-08-09T11:12:59Z</time></trkpt>
<trkpt lat="46.08345" lon="7.95841"><ele>1737.2</ele><time>2024-08-09T11:13:03Z</time></trkpt>
<trkpt lat="46.08341" lon="7.95838"><ele>1737.4</ele><time>2024-08-09T11:13:06Z</time></trkpt>
<trkpt lat="46.08339" lon="7.95834"><ele>1737.8</ele><time>2024-08-09T11:13:12Z</time></trkpt>
<trkpt lat="46.08339" lon="7.95835"><ele>1738</ele><time>2024-08-09T11:13:28Z</time></trkpt>
<trkpt lat="46.08339" lon="7.95835"><ele>1737.8</ele><time>2024-08-09T11:13:36Z</time></trkpt>
<trkpt lat="46.08339" lon="7.95835"><ele>1737.8</ele><time>2024-08-09T11:13:37Z</time></trkpt>
<trkpt lat="46.08338" lon="7.95835"><ele>1737.8</ele><time>2024-08-09T11:13:43Z</time></trkpt>
<trkpt lat="46.08338" lon="7.95835"><ele>1737.8</ele><time>2024-08-09T11:13:48Z</time></trkpt>
<trkpt lat="46.08337" lon="7.95829"><ele>1737.8</ele><time>2024-08-09T11:13:53Z</time></trkpt>
<trkpt lat="46.08336" lon="7.95829"><ele>1737.6</ele><time>2024-08-09T11:13:57Z</time></trkpt>
<trkpt lat="46.08336" lon="7.95829"><ele>1737.6</ele><time>2024-08-09T11:14:00Z</time></trkpt>
<trkpt lat="46.08337" lon="7.95829"><ele>1737.6</ele><time>2024-08-09T11:14:01Z</time></trkpt>
<trkpt lat="46.08338" lon="7.95828"><ele>1737.6</ele><time>2024-08-09T11:14:04Z</time></trkpt>
<trkpt lat="46.08341" lon="7.95831"><ele>1737.6</ele><time>2024-08-09T11:14:06Z</time></trkpt>
<trkpt lat="46.08338" lon="7.9584"><ele>1737.6</ele><time>2024-08-09T11:14:09Z</time></trkpt>
<trkpt lat="46.08325" lon="7.95847"><ele>1737.8</ele><time>2024-08-09T11:14:14Z</time></trkpt>
<trkpt lat="46.08318" lon="7.9585"><ele>1738.2</ele><time>2024-08-09T11:14:17Z</time></trkpt>
<trkpt lat="46.08307" lon="7.95859"><ele>1739</ele><time>2024-08-09T11:14:22Z</time></trkpt>
<trkpt lat="46.083" lon="7.95864"><ele>1739.4</ele><time>2024-08-09T11:14:25Z</time></trkpt>
<trkpt lat="46.08287" lon="7.95873"><ele>1740.2</ele><time>2024-08-09T11:14:30Z</time></trkpt>
<trkpt lat="46.0828" lon="7.95874"><ele>1740.4</ele><time>2024-08-09T11:14:33Z</time></trkpt>
<trkpt lat="46.08275" lon="7.95873"><ele>1740.6</ele><time>2024-08-09T11:14:35Z</time></trkpt>
<trkpt lat="46.08271" lon="7.95873"><ele>1740.6</ele><time>2024-08-09T11:14:37Z</time></trkpt>
<trkpt lat="46.08268" lon="7.95876"><ele>1741</ele><time>2024-08-09T11:14:39Z</time></trkpt>
<trkpt lat="46.08262" lon="7.95882"><ele>1741.2</ele><time>2024-08-09T11:14:46Z</time></trkpt>
<trkpt lat="46.08261" lon="7.95874"><ele>1741.2</ele><time>2024-08-09T11:14:51Z</time></trkpt>
<trkpt lat="46.08261" lon="7.95873"><ele>1741.2</ele><time>2024-08-09T11:14:52Z</time></trkpt>
<trkpt lat="46.0826" lon="7.95871"><ele>1741.2</ele><time>2024-08-09T11:14:53Z</time></trkpt>
<trkpt lat="46.08255" lon="7.95872"><ele>1741.2</ele><time>2024-08-09T11:14:56Z</time></trkpt>
<trkpt lat="46.08248" lon="7.95871"><ele>1741.4</ele><time>2024-08-09T11:15:00Z</time></trkpt>
<trkpt lat="46.08245" lon="7.9587"><ele>1741.6</ele><time>2024-08-09T11:15:02Z</time></trkpt>
<trkpt lat="46.08243" lon="7.95871"><ele>1741.8</ele><time>2024-08-09T11:15:04Z</time></trkpt>
<trkpt lat="46.08245" lon="7.95873"><ele>1741.8</ele><time>2024-08-09T11:15:06Z</time></trkpt>
<trkpt lat="46.08247" lon="7.95875"><ele>1741.8</ele><time>2024-08-09T11:15:12Z</time></trkpt>
<trkpt lat="46.08245" lon="7.95875"><ele>1741.8</ele><time>2024-08-09T11:15:15Z</time></trkpt>
<trkpt lat="46.08241" lon="7.95875"><ele>1741.8</ele><time>2024-08-09T11:15:19Z</time></trkpt>
<trkpt lat="46.08238" lon="7.95874"><ele>1742.2</ele><time>2024-08-09T11:15:21Z</time></trkpt>
<trkpt lat="46.08237" lon="7.95873"><ele>1742.2</ele><time>2024-08-09T11:15:25Z</time></trkpt>
<trkpt lat="46.08236" lon="7.95873"><ele>1742.2</ele><time>2024-08-09T11:15:28Z</time></trkpt>
<trkpt lat="46.08234" lon="7.95871"><ele>1742.2</ele><time>2024-08-09T11:15:35Z</time></trkpt>
<trkpt lat="46.08235" lon="7.95871"><ele>1742.2</ele><time>2024-08-09T11:15:44Z</time></trkpt>
<trkpt lat="46.08233" lon="7.95876"><ele>1742.4</ele><time>2024-08-09T11:15:55Z</time></trkpt>
<trkpt lat="46.08232" lon="7.95875"><ele>1742.4</ele><time>2024-08-09T11:16:03Z</time></trkpt>
<trkpt lat="46.08232" lon="7.95875"><ele>1742.4</ele><time>2024-08-09T11:16:05Z</time></trkpt>
<trkpt lat="46.0823" lon="7.95873"><ele>1742.4</ele><time>2024-08-09T11:16:12Z</time></trkpt>
<trkpt lat="46.0823" lon="7.95874"><ele>1742.4</ele><time>2024-08-09T11:16:14Z</time></trkpt>
<trkpt lat="46.08228" lon="7.95874"><ele>1742.4</ele><time>2024-08-09T11:16:19Z</time></trkpt>
<trkpt lat="46.08229" lon="7.95875"><ele>1742.6</ele><time>2024-08-09T11:16:24Z</time></trkpt>
<trkpt lat="46.08231" lon="7.95876"><ele>1742.6</ele><time>2024-08-09T11:16:31Z</time></trkpt>
<trkpt lat="46.08234" lon="7.95877"><ele>1742.6</ele><time>2024-08-09T11:16:34Z</time></trkpt>
<trkpt lat="46.08239" lon="7.9588"><ele>1742.6</ele><time>2024-08-09T11:16:37Z</time></trkpt>
<trkpt lat="46.08244" lon="7.95876"><ele>1742.2</ele><time>2024-08-09T11:16:43Z</time></trkpt>
<trkpt lat="46.08247" lon="7.95873"><ele>1742.4</ele><time>2024-08-09T11:16:46Z</time></trkpt>
<trkpt lat="46.0825" lon="7.95873"><ele>1742.4</ele><time>2024-08-09T11:16:47Z</time></trkpt>
<trkpt lat="46.0827" lon="7.95881"><ele>1741.6</ele><time>2024-08-09T11:16:53Z</time></trkpt>
<trkpt lat="46.08272" lon="7.95886"><ele>1741.6</ele><time>2024-08-09T11:16:54Z</time></trkpt>
<trkpt lat="46.08271" lon="7.95896"><ele>1741.6</ele><time>2024-08-09T11:16:56Z</time></trkpt>
<trkpt lat="46.08261" lon="7.9591"><ele>1741.8</ele><time>2024-08-09T11:17:00Z</time></trkpt>
<trkpt lat="46.0825" lon="7.95924"><ele>1742.6</ele><time>2024-08-09T11:17:05Z</time></trkpt>
<trkpt lat="46.08244" lon="7.95932"><ele>1743</ele><time>2024-08-09T11:17:08Z</time></trkpt>
<trkpt lat="46.0824" lon="7.95936"><ele>1743.2</ele><time>2024-08-09T11:17:10Z</time></trkpt>
<trkpt lat="46.0823" lon="7.9594"><ele>1743.6</ele><time>2024-08-09T11:17:14Z</time></trkpt>
<trkpt lat="46.08219" lon="7.95939"><ele>1744.4</ele><time>2024-08-09T11:17:19Z</time></trkpt>
<trkpt lat="46.08213" lon="7.95933"><ele>1744.6</ele><time>2024-08-09T11:17:22Z</time></trkpt>
<trkpt lat="46.08207" lon="7.95928"><ele>1745</ele><time>2024-08-09T11:17:25Z</time></trkpt>
<trkpt lat="46.08198" lon="7.95918"><ele>1745.8</ele><time>2024-08-09T11:17:30Z</time></trkpt>
<trkpt lat="46.08192" lon="7.95912"><ele>1746</ele><time>2024-08-09T11:17:33Z</time></trkpt>
<trkpt lat="46.08179" lon="7.95899"><ele>1746.8</ele><time>2024-08-09T11:17:39Z</time></trkpt>
<trkpt lat="46.08172" lon="7.95891"><ele>1747.4</ele><time>2024-08-09T11:17:43Z</time></trkpt>
<trkpt lat="46.08162" lon="7.95882"><ele>1748</ele><time>2024-08-09T11:17:48Z</time></trkpt>
<trkpt lat="46.08148" lon="7.9587"><ele>1748.8</ele><time>2024-08-09T11:17:54Z</time></trkpt>
<trkpt lat="46.08146" lon="7.95868"><ele>1749</ele><time>2024-08-09T11:17:55Z</time></trkpt>
<trkpt lat="46.08132" lon="7.95857"><ele>1749.6</ele><time>2024-08-09T11:18:01Z</time></trkpt>
<trkpt lat="46.08128" lon="7.95853"><ele>1749.8</ele><time>2024-08-09T11:18:03Z</time></trkpt>
<trkpt lat="46.08123" lon="7.95849"><ele>1750</ele><time>2024-08-09T11:18:05Z</time></trkpt>
<trkpt lat="46.08108" lon="7.95837"><ele>1751.2</ele><time>2024-08-09T11:18:12Z</time></trkpt>
<trkpt lat="46.08106" lon="7.95835"><ele>1751.4</ele><time>2024-08-09T11:18:13Z</time></trkpt>
<trkpt lat="46.08088" lon="7.95823"><ele>1752.4</ele><time>2024-08-09T11:18:21Z</time></trkpt>
<trkpt lat="46.08086" lon="7.95821"><ele>1752.4</ele><time>2024-08-09T11:18:22Z</time></trkpt>
<trkpt lat="46.08072" lon="7.95809"><ele>1753.4</ele><time>2024-08-09T11:18:29Z</time></trkpt>
<trkpt lat="46.08068" lon="7.95806"><ele>1753.6</ele><time>2024-08-09T11:18:31Z</time></trkpt>
<trkpt lat="46.08056" lon="7.958"><ele>1754.4</ele><time>2024-08-09T11:18:36Z</time></trkpt>
<trkpt lat="46.08046" lon="7.95796"><ele>1755</ele><time>2024-08-09T11:18:40Z</time></trkpt>
<trkpt lat="46.08036" lon="7.95791"><ele>1755.6</ele><time>2024-08-09T11:18:44Z</time></trkpt>
<trkpt lat="46.08028" lon="7.95788"><ele>1756</ele><time>2024-08-09T11:18:47Z</time></trkpt>
<trkpt lat="46.08015" lon="7.95785"><ele>1756.6</ele><time>2024-08-09T11:18:52Z</time></trkpt>
<trkpt lat="46.08007" lon="7.95783"><ele>1757</ele><time>2024-08-09T11:18:55Z</time></trkpt>
<trkpt lat="46.07994" lon="7.95782"><ele>1757.6</ele><time>2024-08-09T11:19:00Z</time></trkpt>
<trkpt lat="46.07983" lon="7.95781"><ele>1758.2</ele><time>2024-08-09T11:19:04Z</time></trkpt>
<trkpt lat="46.0797" lon="7.95779"><ele>1758.8</ele><time>2024-08-09T11:19:09Z</time></trkpt>
<trkpt lat="46.07951" lon="7.95774"><ele>1759.6</ele><time>2024-08-09T11:19:16Z</time></trkpt>
<trkpt lat="46.07948" lon="7.95773"><ele>1759.8</ele><time>2024-08-09T11:19:17Z</time></trkpt>
<trkpt lat="46.07929" lon="7.95762"><ele>1760.8</ele><time>2024-08-09T11:19:25Z</time></trkpt>
<trkpt lat="46.07927" lon="7.95761"><ele>1761</ele><time>2024-08-09T11:19:26Z</time></trkpt>
<trkpt lat="46.07916" lon="7.95753"><ele>1762</ele><time>2024-08-09T11:19:31Z</time></trkpt>
<trkpt lat="46.07905" lon="7.95746"><ele>1762.8</ele><time>2024-08-09T11:19:37Z</time></trkpt>
<trkpt lat="46.07902" lon="7.95744"><ele>1763.2</ele><time>2024-08-09T11:19:39Z</time></trkpt>
<trkpt lat="46.07888" lon="7.95733"><ele>1764.2</ele><time>2024-08-09T11:19:47Z</time></trkpt>
<trkpt lat="46.07876" lon="7.95725"><ele>1764.8</ele><time>2024-08-09T11:19:53Z</time></trkpt>
<trkpt lat="46.0787" lon="7.95723"><ele>1765.2</ele><time>2024-08-09T11:19:56Z</time></trkpt>
<trkpt lat="46.07863" lon="7.95719"><ele>1765.6</ele><time>2024-08-09T11:19:59Z</time></trkpt>
<trkpt lat="46.07846" lon="7.95712"><ele>1766.4</ele><time>2024-08-09T11:20:07Z</time></trkpt>
<trkpt lat="46.07843" lon="7.95711"><ele>1766.6</ele><time>2024-08-09T11:20:08Z</time></trkpt>
<trkpt lat="46.07826" lon="7.95713"><ele>1767.4</ele><time>2024-08-09T11:20:15Z</time></trkpt>
<trkpt lat="46.07822" lon="7.95713"><ele>1767.6</ele><time>2024-08-09T11:20:17Z</time></trkpt>
<trkpt lat="46.0781" lon="7.95709"><ele>1768</ele><time>2024-08-09T11:20:22Z</time></trkpt>
<trkpt lat="46.07804" lon="7.95707"><ele>1768.6</ele><time>2024-08-09T11:20:25Z</time></trkpt>
<trkpt lat="46.07787" lon="7.95706"><ele>1769.6</ele><time>2024-08-09T11:20:32Z</time></trkpt>
<trkpt lat="46.07784" lon="7.95706"><ele>1769.6</ele><time>2024-08-09T11:20:33Z</time></trkpt>
<trkpt lat="46.07766" lon="7.95707"><ele>1770.6</ele><time>2024-08-09T11:20:40Z</time></trkpt>
<trkpt lat="46.07764" lon="7.95707"><ele>1770.6</ele><time>2024-08-09T11:20:41Z</time></trkpt>
<trkpt lat="46.07743" lon="7.95706"><ele>1771.8</ele><time>2024-08-09T11:20:49Z</time></trkpt>
<trkpt lat="46.07735" lon="7.95706"><ele>1772</ele><time>2024-08-09T11:20:52Z</time></trkpt>
<trkpt lat="46.07721" lon="7.95706"><ele>1772.8</ele><time>2024-08-09T11:20:57Z</time></trkpt>
<trkpt lat="46.07711" lon="7.95707"><ele>1773.4</ele><time>2024-08-09T11:21:01Z</time></trkpt>
<trkpt lat="46.077" lon="7.95707"><ele>1773.8</ele><time>2024-08-09T11:21:05Z</time></trkpt>
<trkpt lat="46.07682" lon="7.95709"><ele>1775</ele><time>2024-08-09T11:21:12Z</time></trkpt>
<trkpt lat="46.07666" lon="7.95708"><ele>1776</ele><time>2024-08-09T11:21:18Z</time></trkpt>
<trkpt lat="46.07658" lon="7.95709"><ele>1776.6</ele><time>2024-08-09T11:21:21Z</time></trkpt>
<trkpt lat="46.07647" lon="7.95708"><ele>1777</ele><time>2024-08-09T11:21:25Z</time></trkpt>
<trkpt lat="46.07633" lon="7.95708"><ele>1778</ele><time>2024-08-09T11:21:30Z</time></trkpt>
<trkpt lat="46.07631" lon="7.95707"><ele>1778.2</ele><time>2024-08-09T11:21:31Z</time></trkpt>
<trkpt lat="46.07628" lon="7.95707"><ele>1778.2</ele><time>2024-08-09T11:21:32Z</time></trkpt>
<trkpt lat="46.07611" lon="7.95704"><ele>1779.2</ele><time>2024-08-09T11:21:39Z</time></trkpt>
<trkpt lat="46.07608" lon="7.95704"><ele>1779.2</ele><time>2024-08-09T11:21:40Z</time></trkpt>
<trkpt lat="46.07594" lon="7.95702"><ele>1780.4</ele><time>2024-08-09T11:21:46Z</time></trkpt>
<trkpt lat="46.07591" lon="7.95702"><ele>1780.4</ele><time>2024-08-09T11:21:47Z</time></trkpt>
<trkpt lat="46.07577" lon="7.95699"><ele>1781.4</ele><time>2024-08-09T11:21:53Z</time></trkpt>
<trkpt lat="46.07572" lon="7.95698"><ele>1781.8</ele><time>2024-08-09T11:21:55Z</time></trkpt>
<trkpt lat="46.0756" lon="7.95695"><ele>1782.4</ele><time>2024-08-09T11:22:00Z</time></trkpt>
<trkpt lat="46.07552" lon="7.95693"><ele>1782.8</ele><time>2024-08-09T11:22:03Z</time></trkpt>
<trkpt lat="46.07542" lon="7.95692"><ele>1783.4</ele><time>2024-08-09T11:22:07Z</time></trkpt>
<trkpt lat="46.07533" lon="7.95691"><ele>1784</ele><time>2024-08-09T11:22:11Z</time></trkpt>
<trkpt lat="46.07523" lon="7.9569"><ele>1784.4</ele><time>2024-08-09T11:22:15Z</time></trkpt>
<trkpt lat="46.07506" lon="7.95685"><ele>1785.4</ele><time>2024-08-09T11:22:22Z</time></trkpt>
<trkpt lat="46.07487" lon="7.95681"><ele>1786.8</ele><time>2024-08-09T11:22:30Z</time></trkpt>
<trkpt lat="46.0748" lon="7.9568"><ele>1787</ele><time>2024-08-09T11:22:33Z</time></trkpt>
<trkpt lat="46.0747" lon="7.95679"><ele>1787.8</ele><time>2024-08-09T11:22:37Z</time></trkpt>
<trkpt lat="46.07456" lon="7.95677"><ele>1788.4</ele><time>2024-08-09T11:22:43Z</time></trkpt>
<trkpt lat="46.07451" lon="7.95676"><ele>1788.8</ele><time>2024-08-09T11:22:45Z</time></trkpt>
<trkpt lat="46.0744" lon="7.95673"><ele>1789.4</ele><time>2024-08-09T11:22:50Z</time></trkpt>
<trkpt lat="46.0743" lon="7.95671"><ele>1790</ele><time>2024-08-09T11:22:54Z</time></trkpt>
<trkpt lat="46.07415" lon="7.95669"><ele>1791</ele><time>2024-08-09T11:23:00Z</time></trkpt>
<trkpt lat="46.07405" lon="7.95667"><ele>1791.6</ele><time>2024-08-09T11:23:04Z</time></trkpt>
<trkpt lat="46.07396" lon="7.95665"><ele>1792.2</ele><time>2024-08-09T11:23:08Z</time></trkpt>
<trkpt lat="46.07381" lon="7.95664"><ele>1793.2</ele><time>2024-08-09T11:23:14Z</time></trkpt>
<trkpt lat="46.07379" lon="7.95664"><ele>1793.2</ele><time>2024-08-09T11:23:15Z</time></trkpt>
<trkpt lat="46.0736" lon="7.95663"><ele>1794.4</ele><time>2024-08-09T11:23:23Z</time></trkpt>
<trkpt lat="46.07353" lon="7.95663"><ele>1794.8</ele><time>2024-08-09T11:23:26Z</time></trkpt>
<trkpt lat="46.07338" lon="7.95663"><ele>1795.6</ele><time>2024-08-09T11:23:32Z</time></trkpt>
<trkpt lat="46.07332" lon="7.95663"><ele>1795.8</ele><time>2024-08-09T11:23:35Z</time></trkpt>
<trkpt lat="46.07317" lon="7.95663"><ele>1796.6</ele><time>2024-08-09T11:23:41Z</time></trkpt>
<trkpt lat="46.07312" lon="7.95664"><ele>1796.8</ele><time>2024-08-09T11:23:43Z</time></trkpt>
<trkpt lat="46.07299" lon="7.95662"><ele>1797.8</ele><time>2024-08-09T11:23:49Z</time></trkpt>
<trkpt lat="46.07295" lon="7.95659"><ele>1798</ele><time>2024-08-09T11:23:51Z</time></trkpt>
<trkpt lat="46.0729" lon="7.95657"><ele>1798.6</ele><time>2024-08-09T11:23:56Z</time></trkpt>
<trkpt lat="46.07291" lon="7.95657"><ele>1798.8</ele><time>2024-08-09T11:23:58Z</time></trkpt>
<trkpt lat="46.07291" lon="7.95656"><ele>1799</ele><time>2024-08-09T11:24:00Z</time></trkpt>
<trkpt lat="46.07291" lon="7.95656"><ele>1799</ele><time>2024-08-09T11:24:09Z</time></trkpt>
<trkpt lat="46.07291" lon="7.95657"><ele>1799.2</ele><time>2024-08-09T11:24:20Z</time></trkpt>
<trkpt lat="46.07291" lon="7.95658"><ele>1799.2</ele><time>2024-08-09T11:24:24Z</time></trkpt>
<trkpt lat="46.0729" lon="7.95658"><ele>1799.2</ele><time>2024-08-09T11:24:25Z</time></trkpt>
<trkpt lat="46.07282" lon="7.9566"><ele>1799.4</ele><time>2024-08-09T11:24:30Z</time></trkpt>
<trkpt lat="46.07269" lon="7.95663"><ele>1800</ele><time>2024-08-09T11:24:36Z</time></trkpt>
<trkpt lat="46.07264" lon="7.95664"><ele>1800.2</ele><time>2024-08-09T11:24:38Z</time></trkpt>
<trkpt lat="46.07251" lon="7.95668"><ele>1801</ele><time>2024-08-09T11:24:45Z</time></trkpt>
<trkpt lat="46.07249" lon="7.95669"><ele>1801.2</ele><time>2024-08-09T11:24:46Z</time></trkpt>
<trkpt lat="46.07244" lon="7.9567"><ele>1801.6</ele><time>2024-08-09T11:24:50Z</time></trkpt>
<trkpt lat="46.07241" lon="7.95667"><ele>1801.8</ele><time>2024-08-09T11:24:52Z</time></trkpt>
<trkpt lat="46.07234" lon="7.95664"><ele>1801.8</ele><time>2024-08-09T11:24:56Z</time></trkpt>
<trkpt lat="46.0723" lon="7.95664"><ele>1802.2</ele><time>2024-08-09T11:24:58Z</time></trkpt>
<trkpt lat="46.07216" lon="7.95655"><ele>1802.6</ele><time>2024-08-09T11:25:05Z</time></trkpt>
<trkpt lat="46.07206" lon="7.9565"><ele>1802.4</ele><time>2024-08-09T11:25:11Z</time></trkpt>
<trkpt lat="46.072" lon="7.95649"><ele>1803.2</ele><time>2024-08-09T11:25:15Z</time></trkpt>
<trkpt lat="46.07197" lon="7.95649"><ele>1803.6</ele><time>2024-08-09T11:25:17Z</time></trkpt>
<trkpt lat="46.07189" lon="7.95646"><ele>1804.4</ele><time>2024-08-09T11:25:21Z</time></trkpt>
<trkpt lat="46.07182" lon="7.95644"><ele>1805</ele><time>2024-08-09T11:25:24Z</time></trkpt>
<trkpt lat="46.07176" lon="7.9564"><ele>1805.4</ele><time>2024-08-09T11:25:27Z</time></trkpt>
<trkpt lat="46.07171" lon="7.95639"><ele>1806</ele><time>2024-08-09T11:25:30Z</time></trkpt>
<trkpt lat="46.07166" lon="7.95639"><ele>1806.8</ele><time>2024-08-09T11:25:33Z</time></trkpt>
<trkpt lat="46.0716" lon="7.95638"><ele>1807.8</ele><time>2024-08-09T11:25:37Z</time></trkpt>
<trkpt lat="46.07158" lon="7.95637"><ele>1807.8</ele><time>2024-08-09T11:25:38Z</time></trkpt>
<trkpt lat="46.07154" lon="7.95636"><ele>1808</ele><time>2024-08-09T11:25:40Z</time></trkpt>
<trkpt lat="46.07142" lon="7.95636"><ele>1808.4</ele><time>2024-08-09T11:25:45Z</time></trkpt>
<trkpt lat="46.07134" lon="7.95638"><ele>1809</ele><time>2024-08-09T11:25:49Z</time></trkpt>
<trkpt lat="46.07128" lon="7.95641"><ele>1809.4</ele><time>2024-08-09T11:25:53Z</time></trkpt>
<trkpt lat="46.07123" lon="7.95643"><ele>1810</ele><time>2024-08-09T11:25:56Z</time></trkpt>
<trkpt lat="46.07117" lon="7.95647"><ele>1810.2</ele><time>2024-08-09T11:25:59Z</time></trkpt>
<trkpt lat="46.07105" lon="7.9565"><ele>1810.8</ele><time>2024-08-09T11:26:05Z</time></trkpt>
<trkpt lat="46.07097" lon="7.95652"><ele>1811</ele><time>2024-08-09T11:26:09Z</time></trkpt>
<trkpt lat="46.07093" lon="7.95653"><ele>1811.4</ele><time>2024-08-09T11:26:11Z</time></trkpt>
<trkpt lat="46.07082" lon="7.95647"><ele>1812.2</ele><time>2024-08-09T11:26:17Z</time></trkpt>
<trkpt lat="46.0707" lon="7.95643"><ele>1813.2</ele><time>2024-08-09T11:26:24Z</time></trkpt>
<trkpt lat="46.07068" lon="7.95643"><ele>1813.2</ele><time>2024-08-09T11:26:25Z</time></trkpt>
<trkpt lat="46.07059" lon="7.95642"><ele>1814.6</ele><time>2024-08-09T11:26:31Z</time></trkpt>
<trkpt lat="46.07055" lon="7.95642"><ele>1814.8</ele><time>2024-08-09T11:26:33Z</time></trkpt>
<trkpt lat="46.0705" lon="7.95642"><ele>1815.6</ele><time>2024-08-09T11:26:37Z</time></trkpt>
<trkpt lat="46.07046" lon="7.95642"><ele>1815.8</ele><time>2024-08-09T11:26:40Z</time></trkpt>
<trkpt lat="46.07036" lon="7.95644"><ele>1816.6</ele><time>2024-08-09T11:26:46Z</time></trkpt>
<trkpt lat="46.07033" lon="7.95645"><ele>1816.6</ele><time>2024-08-09T11:26:48Z</time></trkpt>
<trkpt lat="46.07024" lon="7.95649"><ele>1817.6</ele><time>2024-08-09T11:26:54Z</time></trkpt>
<trkpt lat="46.07022" lon="7.9565"><ele>1818</ele><time>2024-08-09T11:26:55Z</time></trkpt>
<trkpt lat="46.07014" lon="7.95653"><ele>1818.6</ele><time>2024-08-09T11:27:00Z</time></trkpt>
<trkpt lat="46.0701" lon="7.95655"><ele>1819</ele><time>2024-08-09T11:27:03Z</time></trkpt>
<trkpt lat="46.07" lon="7.95659"><ele>1819.6</ele><time>2024-08-09T11:27:09Z</time></trkpt>
<trkpt lat="46.06996" lon="7.9566"><ele>1820.2</ele><time>2024-08-09T11:27:12Z</time></trkpt>
<trkpt lat="46.06988" lon="7.95661"><ele>1820.6</ele><time>2024-08-09T11:27:17Z</time></trkpt>
<trkpt lat="46.06983" lon="7.95661"><ele>1821</ele><time>2024-08-09T11:27:20Z</time></trkpt>
<trkpt lat="46.06968" lon="7.95661"><ele>1821.6</ele><time>2024-08-09T11:27:28Z</time></trkpt>
<trkpt lat="46.06957" lon="7.95663"><ele>1821.8</ele><time>2024-08-09T11:27:33Z</time></trkpt>
<trkpt lat="46.06953" lon="7.95665"><ele>1822</ele><time>2024-08-09T11:27:35Z</time></trkpt>
<trkpt lat="46.06944" lon="7.95668"><ele>1823</ele><time>2024-08-09T11:27:40Z</time></trkpt>
<trkpt lat="46.0694" lon="7.95671"><ele>1823.6</ele><time>2024-08-09T11:27:43Z</time></trkpt>
<trkpt lat="46.06934" lon="7.95673"><ele>1824.2</ele><time>2024-08-09T11:27:47Z</time></trkpt>
<trkpt lat="46.06929" lon="7.95674"><ele>1824.4</ele><time>2024-08-09T11:27:50Z</time></trkpt>
<trkpt lat="46.06919" lon="7.95676"><ele>1825.2</ele><time>2024-08-09T11:27:57Z</time></trkpt>
<trkpt lat="46.06916" lon="7.95675"><ele>1825.4</ele><time>2024-08-09T11:27:59Z</time></trkpt>
<trkpt lat="46.06909" lon="7.95675"><ele>1826.4</ele><time>2024-08-09T11:28:04Z</time></trkpt>
<trkpt lat="46.06908" lon="7.95674"><ele>1826.6</ele><time>2024-08-09T11:28:05Z</time></trkpt>
<trkpt lat="46.06899" lon="7.95675"><ele>1827.6</ele><time>2024-08-09T11:28:11Z</time></trkpt>
<trkpt lat="46.06898" lon="7.95675"><ele>1827.6</ele><time>2024-08-09T11:28:12Z</time></trkpt>
<trkpt lat="46.06889" lon="7.95677"><ele>1828.8</ele><time>2024-08-09T11:28:19Z</time></trkpt>
<trkpt lat="46.06888" lon="7.95677"><ele>1829</ele><time>2024-08-09T11:28:20Z</time></trkpt>
<trkpt lat="46.06885" lon="7.95684"><ele>1830</ele><time>2024-08-09T11:28:25Z</time></trkpt>
<trkpt lat="46.06885" lon="7.95692"><ele>1831</ele><time>2024-08-09T11:28:30Z</time></trkpt>
<trkpt lat="46.06884" lon="7.95695"><ele>1831.6</ele><time>2024-08-09T11:28:32Z</time></trkpt>
<trkpt lat="46.06882" lon="7.95703"><ele>1832.2</ele><time>2024-08-09T11:28:36Z</time></trkpt>
<trkpt lat="46.06878" lon="7.95711"><ele>1832.6</ele><time>2024-08-09T11:28:41Z</time></trkpt>
<trkpt lat="46.06877" lon="7.95714"><ele>1833.2</ele><time>2024-08-09T11:28:43Z</time></trkpt>
<trkpt lat="46.06873" lon="7.95719"><ele>1834.2</ele><time>2024-08-09T11:28:48Z</time></trkpt>
<trkpt lat="46.0687" lon="7.95723"><ele>1834.6</ele><time>2024-08-09T11:28:50Z</time></trkpt>
<trkpt lat="46.06866" lon="7.95729"><ele>1835</ele><time>2024-08-09T11:28:54Z</time></trkpt>
<trkpt lat="46.06858" lon="7.95744"><ele>1835.6</ele><time>2024-08-09T11:29:02Z</time></trkpt>
<trkpt lat="46.06851" lon="7.95754"><ele>1836.6</ele><time>2024-08-09T11:29:09Z</time></trkpt>
<trkpt lat="46.06843" lon="7.95766"><ele>1837.6</ele><time>2024-08-09T11:29:17Z</time></trkpt>
<trkpt lat="46.0684" lon="7.95768"><ele>1837.8</ele><time>2024-08-09T11:29:19Z</time></trkpt>
<trkpt lat="46.06829" lon="7.95777"><ele>1838.6</ele><time>2024-08-09T11:29:27Z</time></trkpt>
<trkpt lat="46.06827" lon="7.95778"><ele>1838.6</ele><time>2024-08-09T11:29:28Z</time></trkpt>
<trkpt lat="46.06816" lon="7.95788"><ele>1839.6</ele><time>2024-08-09T11:29:36Z</time></trkpt>
<trkpt lat="46.06813" lon="7.95791"><ele>1839.8</ele><time>2024-08-09T11:29:38Z</time></trkpt>
<trkpt lat="46.06807" lon="7.95795"><ele>1840.4</ele><time>2024-08-09T11:29:42Z</time></trkpt>
<trkpt lat="46.06803" lon="7.95799"><ele>1840.8</ele><time>2024-08-09T11:29:45Z</time></trkpt>
<trkpt lat="46.06796" lon="7.95807"><ele>1841.2</ele><time>2024-08-09T11:29:50Z</time></trkpt>
<trkpt lat="46.06788" lon="7.9582"><ele>1841.8</ele><time>2024-08-09T11:29:57Z</time></trkpt>
<trkpt lat="46.06786" lon="7.9584"><ele>1841.6</ele><time>2024-08-09T11:30:03Z</time></trkpt>
<trkpt lat="46.06783" lon="7.95846"><ele>1841.6</ele><time>2024-08-09T11:30:05Z</time></trkpt>
<trkpt lat="46.06779" lon="7.95847"><ele>1841.6</ele><time>2024-08-09T11:30:07Z</time></trkpt>
<trkpt lat="46.06775" lon="7.95848"><ele>1841.8</ele><time>2024-08-09T11:30:09Z</time></trkpt>
<trkpt lat="46.06767" lon="7.95847"><ele>1842.8</ele><time>2024-08-09T11:30:15Z</time></trkpt>
<trkpt lat="46.06766" lon="7.95845"><ele>1842.8</ele><time>2024-08-09T11:30:16Z</time></trkpt>
<trkpt lat="46.06763" lon="7.95847"><ele>1843</ele><time>2024-08-09T11:30:19Z</time></trkpt>
<trkpt lat="46.06763" lon="7.95849"><ele>1843</ele><time>2024-08-09T11:30:20Z</time></trkpt>
<trkpt lat="46.06763" lon="7.95854"><ele>1843.2</ele><time>2024-08-09T11:30:22Z</time></trkpt>
<trkpt lat="46.0676" lon="7.95856"><ele>1843.6</ele><time>2024-08-09T11:30:24Z</time></trkpt>
<trkpt lat="46.06758" lon="7.95854"><ele>1843.6</ele><time>2024-08-09T11:30:25Z</time></trkpt>
<trkpt lat="46.06753" lon="7.95853"><ele>1843.8</ele><time>2024-08-09T11:30:28Z</time></trkpt>
<trkpt lat="46.06749" lon="7.95854"><ele>1844</ele><time>2024-08-09T11:30:30Z</time></trkpt>
<trkpt lat="46.06748" lon="7.95855"><ele>1844</ele><time>2024-08-09T11:30:31Z</time></trkpt>
<trkpt lat="46.06737" lon="7.95857"><ele>1845.2</ele><time>2024-08-09T11:30:37Z</time></trkpt>
<trkpt lat="46.06736" lon="7.95858"><ele>1845.2</ele><time>2024-08-09T11:30:38Z</time></trkpt>
<trkpt lat="46.06723" lon="7.95859"><ele>1846.2</ele><time>2024-08-09T11:30:45Z</time></trkpt>
<trkpt lat="46.06721" lon="7.95859"><ele>1846.4</ele><time>2024-08-09T11:30:46Z</time></trkpt>
<trkpt lat="46.06709" lon="7.95859"><ele>1847.4</ele><time>2024-08-09T11:30:53Z</time></trkpt>
<trkpt lat="46.06706" lon="7.9586"><ele>1847.6</ele><time>2024-08-09T11:30:55Z</time></trkpt>
<trkpt lat="46.06696" lon="7.9586"><ele>1848.6</ele><time>2024-08-09T11:31:01Z</time></trkpt>
<trkpt lat="46.06686" lon="7.95859"><ele>1849.4</ele><time>2024-08-09T11:31:06Z</time></trkpt>
<trkpt lat="46.06684" lon="7.95858"><ele>1849.6</ele><time>2024-08-09T11:31:07Z</time></trkpt>
<trkpt lat="46.06672" lon="7.95858"><ele>1850.8</ele><time>2024-08-09T11:31:13Z</time></trkpt>
<trkpt lat="46.06664" lon="7.9586"><ele>1851.4</ele><time>2024-08-09T11:31:18Z</time></trkpt>
<trkpt lat="46.0666" lon="7.95862"><ele>1851.8</ele><time>2024-08-09T11:31:20Z</time></trkpt>
<trkpt lat="46.06648" lon="7.95863"><ele>1853</ele><time>2024-08-09T11:31:27Z</time></trkpt>
<trkpt lat="46.06637" lon="7.95864"><ele>1854.2</ele><time>2024-08-09T11:31:33Z</time></trkpt>
<trkpt lat="46.0663" lon="7.95865"><ele>1854.8</ele><time>2024-08-09T11:31:37Z</time></trkpt>
<trkpt lat="46.06626" lon="7.95865"><ele>1855.2</ele><time>2024-08-09T11:31:39Z</time></trkpt>
<trkpt lat="46.06612" lon="7.95867"><ele>1856.2</ele><time>2024-08-09T11:31:46Z</time></trkpt>
<trkpt lat="46.06609" lon="7.95867"><ele>1857</ele><time>2024-08-09T11:31:48Z</time></trkpt>
<trkpt lat="46.06602" lon="7.95869"><ele>1857.4</ele><time>2024-08-09T11:31:52Z</time></trkpt>
<trkpt lat="46.06595" lon="7.95869"><ele>1858.2</ele><time>2024-08-09T11:31:56Z</time></trkpt>
<trkpt lat="46.06593" lon="7.95869"><ele>1858.4</ele><time>2024-08-09T11:31:57Z</time></trkpt>
<trkpt lat="46.06582" lon="7.95869"><ele>1859.8</ele><time>2024-08-09T11:32:03Z</time></trkpt>
<trkpt lat="46.06578" lon="7.95869"><ele>1860</ele><time>2024-08-09T11:32:05Z</time></trkpt>
<trkpt lat="46.06571" lon="7.95869"><ele>1860.8</ele><time>2024-08-09T11:32:09Z</time></trkpt>
<trkpt lat="46.06559" lon="7.95868"><ele>1861.4</ele><time>2024-08-09T11:32:15Z</time></trkpt>
<trkpt lat="46.06556" lon="7.95867"><ele>1861.8</ele><time>2024-08-09T11:32:17Z</time></trkpt>
<trkpt lat="46.06543" lon="7.95864"><ele>1863</ele><time>2024-08-09T11:32:24Z</time></trkpt>
<trkpt lat="46.06541" lon="7.95863"><ele>1863.2</ele><time>2024-08-09T11:32:25Z</time></trkpt>
<trkpt lat="46.0653" lon="7.95859"><ele>1864.2</ele><time>2024-08-09T11:32:31Z</time></trkpt>
<trkpt lat="46.06523" lon="7.95857"><ele>1864.8</ele><time>2024-08-09T11:32:35Z</time></trkpt>
<trkpt lat="46.0652" lon="7.95857"><ele>1865.4</ele><time>2024-08-09T11:32:37Z</time></trkpt>
<trkpt lat="46.06507" lon="7.95853"><ele>1866.4</ele><time>2024-08-09T11:32:44Z</time></trkpt>
<trkpt lat="46.06506" lon="7.95853"><ele>1866.6</ele><time>2024-08-09T11:32:45Z</time></trkpt>
<trkpt lat="46.06497" lon="7.9585"><ele>1867.4</ele><time>2024-08-09T11:32:50Z</time></trkpt>
<trkpt lat="46.06485" lon="7.95845"><ele>1868.4</ele><time>2024-08-09T11:32:57Z</time></trkpt>
<trkpt lat="46.06483" lon="7.95844"><ele>1868.6</ele><time>2024-08-09T11:32:58Z</time></trkpt>
<trkpt lat="46.06475" lon="7.95842"><ele>1869.6</ele><time>2024-08-09T11:33:03Z</time></trkpt>
<trkpt lat="46.06464" lon="7.95838"><ele>1870.4</ele><time>2024-08-09T11:33:09Z</time></trkpt>
<trkpt lat="46.06458" lon="7.95835"><ele>1871</ele><time>2024-08-09T11:33:12Z</time></trkpt>
<trkpt lat="46.06446" lon="7.95831"><ele>1871.8</ele><time>2024-08-09T11:33:19Z</time></trkpt>
<trkpt lat="46.06444" lon="7.9583"><ele>1872.2</ele><time>2024-08-09T11:33:20Z</time></trkpt>
<trkpt lat="46.06433" lon="7.95825"><ele>1873.2</ele><time>2024-08-09T11:33:26Z</time></trkpt>
<trkpt lat="46.0643" lon="7.95823"><ele>1873.2</ele><time>2024-08-09T11:33:28Z</time></trkpt>
<trkpt lat="46.06419" lon="7.95809"><ele>1874</ele><time>2024-08-09T11:33:35Z</time></trkpt>
<trkpt lat="46.06418" lon="7.95807"><ele>1874.2</ele><time>2024-08-09T11:33:36Z</time></trkpt>
<trkpt lat="46.06415" lon="7.95792"><ele>1875.2</ele><time>2024-08-09T11:33:41Z</time></trkpt>
<trkpt lat="46.06415" lon="7.95789"><ele>1875.4</ele><time>2024-08-09T11:33:42Z</time></trkpt>
<trkpt lat="46.06417" lon="7.95768"><ele>1876.6</ele><time>2024-08-09T11:33:49Z</time></trkpt>
<trkpt lat="46.06417" lon="7.95764"><ele>1876.6</ele><time>2024-08-09T11:33:50Z</time></trkpt>
<trkpt lat="46.06419" lon="7.95738"><ele>1877.6</ele><time>2024-08-09T11:33:58Z</time></trkpt>
<trkpt lat="46.06419" lon="7.95735"><ele>1877.6</ele><time>2024-08-09T11:33:59Z</time></trkpt>
<trkpt lat="46.06412" lon="7.95722"><ele>1878.4</ele><time>2024-08-09T11:34:04Z</time></trkpt>
<trkpt lat="46.06407" lon="7.95717"><ele>1878.8</ele><time>2024-08-09T11:34:07Z</time></trkpt>
<trkpt lat="46.064" lon="7.95712"><ele>1879.4</ele><time>2024-08-09T11:34:11Z</time></trkpt>
<trkpt lat="46.06396" lon="7.9571"><ele>1879.8</ele><time>2024-08-09T11:34:13Z</time></trkpt>
<trkpt lat="46.06386" lon="7.95705"><ele>1880.8</ele><time>2024-08-09T11:34:19Z</time></trkpt>
<trkpt lat="46.06383" lon="7.95704"><ele>1881.2</ele><time>2024-08-09T11:34:21Z</time></trkpt>
<trkpt lat="46.06371" lon="7.95701"><ele>1882.2</ele><time>2024-08-09T11:34:28Z</time></trkpt>
<trkpt lat="46.0637" lon="7.95701"><ele>1882.4</ele><time>2024-08-09T11:34:29Z</time></trkpt>
<trkpt lat="46.06362" lon="7.95701"><ele>1883.4</ele><time>2024-08-09T11:34:34Z</time></trkpt>
<trkpt lat="46.06357" lon="7.957"><ele>1883.8</ele><time>2024-08-09T11:34:37Z</time></trkpt>
<trkpt lat="46.06351" lon="7.95699"><ele>1884.4</ele><time>2024-08-09T11:34:41Z</time></trkpt>
<trkpt lat="46.06343" lon="7.95699"><ele>1885.2</ele><time>2024-08-09T11:34:46Z</time></trkpt>
<trkpt lat="46.06341" lon="7.95699"><ele>1885.6</ele><time>2024-08-09T11:34:47Z</time></trkpt>
<trkpt lat="46.06329" lon="7.95701"><ele>1886.6</ele><time>2024-08-09T11:34:55Z</time></trkpt>
<trkpt lat="46.06315" lon="7.95704"><ele>1887.8</ele><time>2024-08-09T11:35:03Z</time></trkpt>
<trkpt lat="46.06314" lon="7.95705"><ele>1888</ele><time>2024-08-09T11:35:04Z</time></trkpt>
<trkpt lat="46.06305" lon="7.95708"><ele>1889</ele><time>2024-08-09T11:35:09Z</time></trkpt>
<trkpt lat="46.06302" lon="7.95709"><ele>1889.2</ele><time>2024-08-09T11:35:11Z</time></trkpt>
<trkpt lat="46.06296" lon="7.9571"><ele>1890</ele><time>2024-08-09T11:35:15Z</time></trkpt>
<trkpt lat="46.06288" lon="7.9571"><ele>1890.8</ele><time>2024-08-09T11:35:20Z</time></trkpt>
<trkpt lat="46.06286" lon="7.9571"><ele>1891</ele><time>2024-08-09T11:35:21Z</time></trkpt>
<trkpt lat="46.06276" lon="7.95712"><ele>1892.2</ele><time>2024-08-09T11:35:27Z</time></trkpt>
<trkpt lat="46.06274" lon="7.95713"><ele>1892.4</ele><time>2024-08-09T11:35:28Z</time></trkpt>
<trkpt lat="46.06268" lon="7.95714"><ele>1893.2</ele><time>2024-08-09T11:35:32Z</time></trkpt>
<trkpt lat="46.06261" lon="7.95714"><ele>1893.6</ele><time>2024-08-09T11:35:36Z</time></trkpt>
<trkpt lat="46.06255" lon="7.95716"><ele>1894.2</ele><time>2024-08-09T11:35:40Z</time></trkpt>
<trkpt lat="46.0625" lon="7.95717"><ele>1894.8</ele><time>2024-08-09T11:35:43Z</time></trkpt>
<trkpt lat="46.06246" lon="7.9572"><ele>1895.2</ele><time>2024-08-09T11:35:46Z</time></trkpt>
<trkpt lat="46.06241" lon="7.95722"><ele>1895.8</ele><time>2024-08-09T11:35:49Z</time></trkpt>
<trkpt lat="46.06236" lon="7.95725"><ele>1896.2</ele><time>2024-08-09T11:35:52Z</time></trkpt>
<trkpt lat="46.0623" lon="7.9573"><ele>1897</ele><time>2024-08-09T11:35:57Z</time></trkpt>
<trkpt lat="46.06227" lon="7.95733"><ele>1897.2</ele><time>2024-08-09T11:35:59Z</time></trkpt>
<trkpt lat="46.06219" lon="7.9574"><ele>1898.4</ele><time>2024-08-09T11:36:05Z</time></trkpt>
<trkpt lat="46.06211" lon="7.95747"><ele>1899.4</ele><time>2024-08-09T11:36:11Z</time></trkpt>
<trkpt lat="46.06209" lon="7.9575"><ele>1899.8</ele><time>2024-08-09T11:36:13Z</time></trkpt>
<trkpt lat="46.06204" lon="7.95756"><ele>1900.6</ele><time>2024-08-09T11:36:17Z</time></trkpt>
<trkpt lat="46.06197" lon="7.95766"><ele>1901.6</ele><time>2024-08-09T11:36:23Z</time></trkpt>
<trkpt lat="46.06196" lon="7.95768"><ele>1901.8</ele><time>2024-08-09T11:36:24Z</time></trkpt>
<trkpt lat="46.0619" lon="7.95777"><ele>1902.6</ele><time>2024-08-09T11:36:30Z</time></trkpt>
<trkpt lat="46.06185" lon="7.95783"><ele>1903.4</ele><time>2024-08-09T11:36:34Z</time></trkpt>
<trkpt lat="46.06183" lon="7.95785"><ele>1903.8</ele><time>2024-08-09T11:36:36Z</time></trkpt>
<trkpt lat="46.06177" lon="7.95795"><ele>1904.8</ele><time>2024-08-09T11:36:42Z</time></trkpt>
<trkpt lat="46.06176" lon="7.95796"><ele>1905</ele><time>2024-08-09T11:36:43Z</time></trkpt>
<trkpt lat="46.06173" lon="7.95802"><ele>1905.4</ele><time>2024-08-09T11:36:47Z</time></trkpt>
<trkpt lat="46.06167" lon="7.95808"><ele>1906</ele><time>2024-08-09T11:36:52Z</time></trkpt>
<trkpt lat="46.06165" lon="7.95809"><ele>1906.4</ele><time>2024-08-09T11:36:54Z</time></trkpt>
<trkpt lat="46.06157" lon="7.95813"><ele>1907.2</ele><time>2024-08-09T11:37:00Z</time></trkpt>
<trkpt lat="46.06155" lon="7.95813"><ele>1907.2</ele><time>2024-08-09T11:37:01Z</time></trkpt>
<trkpt lat="46.06147" lon="7.95815"><ele>1908.2</ele><time>2024-08-09T11:37:07Z</time></trkpt>
<trkpt lat="46.06146" lon="7.95814"><ele>1908.4</ele><time>2024-08-09T11:37:08Z</time></trkpt>
<trkpt lat="46.06138" lon="7.95812"><ele>1909.2</ele><time>2024-08-09T11:37:13Z</time></trkpt>
<trkpt lat="46.06137" lon="7.9581"><ele>1909.4</ele><time>2024-08-09T11:37:14Z</time></trkpt>
<trkpt lat="46.06132" lon="7.95802"><ele>1910.4</ele><time>2024-08-09T11:37:19Z</time></trkpt>
<trkpt lat="46.06131" lon="7.95798"><ele>1911</ele><time>2024-08-09T11:37:21Z</time></trkpt>
<trkpt lat="46.0613" lon="7.95791"><ele>1911.6</ele><time>2024-08-09T11:37:24Z</time></trkpt>
<trkpt lat="46.0613" lon="7.95782"><ele>1912.4</ele><time>2024-08-09T11:37:28Z</time></trkpt>
<trkpt lat="46.0613" lon="7.95773"><ele>1912.6</ele><time>2024-08-09T11:37:32Z</time></trkpt>
<trkpt lat="46.0613" lon="7.95766"><ele>1913</ele><time>2024-08-09T11:37:35Z</time></trkpt>
<trkpt lat="46.0613" lon="7.9576"><ele>1913.6</ele><time>2024-08-09T11:37:38Z</time></trkpt>
<trkpt lat="46.06132" lon="7.95753"><ele>1914.4</ele><time>2024-08-09T11:37:41Z</time></trkpt>
<trkpt lat="46.06133" lon="7.95745"><ele>1914.8</ele><time>2024-08-09T11:37:44Z</time></trkpt>
<trkpt lat="46.06134" lon="7.95733"><ele>1915.8</ele><time>2024-08-09T11:37:49Z</time></trkpt>
<trkpt lat="46.06133" lon="7.95726"><ele>1916.2</ele><time>2024-08-09T11:37:52Z</time></trkpt>
<trkpt lat="46.06133" lon="7.95717"><ele>1916.8</ele><time>2024-08-09T11:37:56Z</time></trkpt>
<trkpt lat="46.06129" lon="7.95706"><ele>1917.6</ele><time>2024-08-09T11:38:01Z</time></trkpt>
<trkpt lat="46.06124" lon="7.95704"><ele>1918</ele><time>2024-08-09T11:38:04Z</time></trkpt>
<trkpt lat="46.0612" lon="7.95704"><ele>1918.4</ele><time>2024-08-09T11:38:06Z</time></trkpt>
<trkpt lat="46.06109" lon="7.95716"><ele>1918.6</ele><time>2024-08-09T11:38:12Z</time></trkpt>
<trkpt lat="46.06105" lon="7.95726"><ele>1919.2</ele><time>2024-08-09T11:38:17Z</time></trkpt>
<trkpt lat="46.06104" lon="7.95731"><ele>1919.6</ele><time>2024-08-09T11:38:19Z</time></trkpt>
<trkpt lat="46.06102" lon="7.95739"><ele>1920.4</ele><time>2024-08-09T11:38:23Z</time></trkpt>
<trkpt lat="46.06098" lon="7.9575"><ele>1921.4</ele><time>2024-08-09T11:38:28Z</time></trkpt>
<trkpt lat="46.06097" lon="7.95751"><ele>1921.4</ele><time>2024-08-09T11:38:29Z</time></trkpt>
<trkpt lat="46.06091" lon="7.95765"><ele>1922.6</ele><time>2024-08-09T11:38:36Z</time></trkpt>
<trkpt lat="46.0609" lon="7.95769"><ele>1922.8</ele><time>2024-08-09T11:38:38Z</time></trkpt>
<trkpt lat="46.06085" lon="7.95776"><ele>1923.6</ele><time>2024-08-09T11:38:42Z</time></trkpt>
<trkpt lat="46.0608" lon="7.95785"><ele>1924.4</ele><time>2024-08-09T11:38:47Z</time></trkpt>
<trkpt lat="46.06079" lon="7.95786"><ele>1924.6</ele><time>2024-08-09T11:38:48Z</time></trkpt>
<trkpt lat="46.06072" lon="7.95792"><ele>1925.6</ele><time>2024-08-09T11:38:53Z</time></trkpt>
<trkpt lat="46.06068" lon="7.95794"><ele>1926.2</ele><time>2024-08-09T11:38:56Z</time></trkpt>
<trkpt lat="46.06064" lon="7.95797"><ele>1926.8</ele><time>2024-08-09T11:38:59Z</time></trkpt>
<trkpt lat="46.0606" lon="7.95799"><ele>1927.2</ele><time>2024-08-09T11:39:02Z</time></trkpt>
<trkpt lat="46.06055" lon="7.95802"><ele>1927.8</ele><time>2024-08-09T11:39:06Z</time></trkpt>
<trkpt lat="46.0605" lon="7.95803"><ele>1928.6</ele><time>2024-08-09T11:39:10Z</time></trkpt>
<trkpt lat="46.06047" lon="7.95804"><ele>1929</ele><time>2024-08-09T11:39:12Z</time></trkpt>
<trkpt lat="46.06039" lon="7.95807"><ele>1930</ele><time>2024-08-09T11:39:18Z</time></trkpt>
<trkpt lat="46.06037" lon="7.95807"><ele>1930.2</ele><time>2024-08-09T11:39:19Z</time></trkpt>
<trkpt lat="46.06029" lon="7.9581"><ele>1931.2</ele><time>2024-08-09T11:39:26Z</time></trkpt>
<trkpt lat="46.06027" lon="7.95811"><ele>1931.4</ele><time>2024-08-09T11:39:27Z</time></trkpt>
<trkpt lat="46.0602" lon="7.95813"><ele>1932.2</ele><time>2024-08-09T11:39:32Z</time></trkpt>
<trkpt lat="46.06015" lon="7.95814"><ele>1932.6</ele><time>2024-08-09T11:39:36Z</time></trkpt>
<trkpt lat="46.0601" lon="7.95816"><ele>1933.2</ele><time>2024-08-09T11:39:40Z</time></trkpt>
<trkpt lat="46.06006" lon="7.95817"><ele>1933.8</ele><time>2024-08-09T11:39:43Z</time></trkpt>
<trkpt lat="46.06002" lon="7.95817"><ele>1934.2</ele><time>2024-08-09T11:39:46Z</time></trkpt>
<trkpt lat="46.05995" lon="7.95819"><ele>1935.2</ele><time>2024-08-09T11:39:52Z</time></trkpt>
<trkpt lat="46.05994" lon="7.95819"><ele>1935.4</ele><time>2024-08-09T11:39:53Z</time></trkpt>
<trkpt lat="46.05985" lon="7.95821"><ele>1936.2</ele><time>2024-08-09T11:40:00Z</time></trkpt>
<trkpt lat="46.05984" lon="7.95821"><ele>1936.4</ele><time>2024-08-09T11:40:01Z</time></trkpt>
<trkpt lat="46.05974" lon="7.95822"><ele>1937.4</ele><time>2024-08-09T11:40:08Z</time></trkpt>
<trkpt lat="46.05972" lon="7.95823"><ele>1937.8</ele><time>2024-08-09T11:40:10Z</time></trkpt>
<trkpt lat="46.05964" lon="7.95825"><ele>1938.4</ele><time>2024-08-09T11:40:16Z</time></trkpt>
<trkpt lat="46.05961" lon="7.95826"><ele>1938.8</ele><time>2024-08-09T11:40:18Z</time></trkpt>
<trkpt lat="46.05954" lon="7.95829"><ele>1939.6</ele><time>2024-08-09T11:40:24Z</time></trkpt>
<trkpt lat="46.05947" lon="7.95832"><ele>1940.6</ele><time>2024-08-09T11:40:29Z</time></trkpt>
<trkpt lat="46.05946" lon="7.95833"><ele>1940.6</ele><time>2024-08-09T11:40:30Z</time></trkpt>
<trkpt lat="46.05937" lon="7.95838"><ele>1941.6</ele><time>2024-08-09T11:40:37Z</time></trkpt>
<trkpt lat="46.05933" lon="7.95841"><ele>1942.2</ele><time>2024-08-09T11:40:40Z</time></trkpt>
<trkpt lat="46.05927" lon="7.95844"><ele>1942.8</ele><time>2024-08-09T11:40:45Z</time></trkpt>
<trkpt lat="46.05926" lon="7.95845"><ele>1942.8</ele><time>2024-08-09T11:40:46Z</time></trkpt>
<trkpt lat="46.05919" lon="7.9585"><ele>1943.8</ele><time>2024-08-09T11:40:52Z</time></trkpt>
<trkpt lat="46.05919" lon="7.95851"><ele>1944</ele><time>2024-08-09T11:40:53Z</time></trkpt>
<trkpt lat="46.0591" lon="7.95858"><ele>1945</ele><time>2024-08-09T11:41:00Z</time></trkpt>
<trkpt lat="46.05906" lon="7.9586"><ele>1945.4</ele><time>2024-08-09T11:41:03Z</time></trkpt>
<trkpt lat="46.05901" lon="7.95863"><ele>1946</ele><time>2024-08-09T11:41:07Z</time></trkpt>
<trkpt lat="46.05895" lon="7.95869"><ele>1946.8</ele><time>2024-08-09T11:41:12Z</time></trkpt>
<trkpt lat="46.05893" lon="7.9587"><ele>1947</ele><time>2024-08-09T11:41:14Z</time></trkpt>
<trkpt lat="46.05889" lon="7.95872"><ele>1947.6</ele><time>2024-08-09T11:41:18Z</time></trkpt>
<trkpt lat="46.05884" lon="7.95875"><ele>1948.4</ele><time>2024-08-09T11:41:22Z</time></trkpt>
<trkpt lat="46.05877" lon="7.95879"><ele>1949.2</ele><time>2024-08-09T11:41:28Z</time></trkpt>
<trkpt lat="46.05876" lon="7.9588"><ele>1949.4</ele><time>2024-08-09T11:41:29Z</time></trkpt>
<trkpt lat="46.05866" lon="7.95881"><ele>1950.4</ele><time>2024-08-09T11:41:36Z</time></trkpt>
<trkpt lat="46.05864" lon="7.95881"><ele>1950.6</ele><time>2024-08-09T11:41:37Z</time></trkpt>
<trkpt lat="46.05856" lon="7.95877"><ele>1951.6</ele><time>2024-08-09T11:41:43Z</time></trkpt>
<trkpt lat="46.05854" lon="7.95875"><ele>1951.8</ele><time>2024-08-09T11:41:45Z</time></trkpt>
<trkpt lat="46.05851" lon="7.95868"><ele>1952.6</ele><time>2024-08-09T11:41:49Z</time></trkpt>
<trkpt lat="46.05849" lon="7.95859"><ele>1953.2</ele><time>2024-08-09T11:41:53Z</time></trkpt>
<trkpt lat="46.0585" lon="7.95852"><ele>1953.8</ele><time>2024-08-09T11:41:56Z</time></trkpt>
<trkpt lat="46.05853" lon="7.95844"><ele>1954.2</ele><time>2024-08-09T11:42:00Z</time></trkpt>
<trkpt lat="46.05856" lon="7.95839"><ele>1954.8</ele><time>2024-08-09T11:42:03Z</time></trkpt>
<trkpt lat="46.05862" lon="7.95832"><ele>1955.6</ele><time>2024-08-09T11:42:08Z</time></trkpt>
<trkpt lat="46.05865" lon="7.9583"><ele>1955.8</ele><time>2024-08-09T11:42:10Z</time></trkpt>
<trkpt lat="46.05876" lon="7.9582"><ele>1957</ele><time>2024-08-09T11:42:18Z</time></trkpt>
<trkpt lat="46.05886" lon="7.95807"><ele>1958.2</ele><time>2024-08-09T11:42:25Z</time></trkpt>
<trkpt lat="46.05887" lon="7.95803"><ele>1958.4</ele><time>2024-08-09T11:42:27Z</time></trkpt>
<trkpt lat="46.05889" lon="7.95792"><ele>1959.2</ele><time>2024-08-09T11:42:32Z</time></trkpt>
<trkpt lat="46.05888" lon="7.95786"><ele>1959.4</ele><time>2024-08-09T11:42:34Z</time></trkpt>
<trkpt lat="46.0588" lon="7.95775"><ele>1960.4</ele><time>2024-08-09T11:42:40Z</time></trkpt>
<trkpt lat="46.05871" lon="7.95777"><ele>1961.2</ele><time>2024-08-09T11:42:46Z</time></trkpt>
<trkpt lat="46.05868" lon="7.9578"><ele>1961.4</ele><time>2024-08-09T11:42:48Z</time></trkpt>
<trkpt lat="46.05858" lon="7.95791"><ele>1962.4</ele><time>2024-08-09T11:42:55Z</time></trkpt>
<trkpt lat="46.05856" lon="7.95793"><ele>1962.6</ele><time>2024-08-09T11:42:56Z</time></trkpt>
<trkpt lat="46.05847" lon="7.95803"><ele>1963.8</ele><time>2024-08-09T11:43:03Z</time></trkpt>
<trkpt lat="46.05838" lon="7.9581"><ele>1965</ele><time>2024-08-09T11:43:10Z</time></trkpt>
<trkpt lat="46.05837" lon="7.95811"><ele>1965.2</ele><time>2024-08-09T11:43:11Z</time></trkpt>
<trkpt lat="46.0583" lon="7.95814"><ele>1966</ele><time>2024-08-09T11:43:16Z</time></trkpt>
<trkpt lat="46.05826" lon="7.95817"><ele>1966.4</ele><time>2024-08-09T11:43:19Z</time></trkpt>
<trkpt lat="46.05823" lon="7.95819"><ele>1967</ele><time>2024-08-09T11:43:23Z</time></trkpt>
<trkpt lat="46.05822" lon="7.95819"><ele>1967.2</ele><time>2024-08-09T11:43:24Z</time></trkpt>
<trkpt lat="46.05818" lon="7.9582"><ele>1968</ele><time>2024-08-09T11:43:28Z</time></trkpt>
<trkpt lat="46.05814" lon="7.95819"><ele>1968.6</ele><time>2024-08-09T11:43:31Z</time></trkpt>
<trkpt lat="46.05812" lon="7.95819"><ele>1969.2</ele><time>2024-08-09T11:43:33Z</time></trkpt>
<trkpt lat="46.05805" lon="7.95817"><ele>1970</ele><time>2024-08-09T11:43:38Z</time></trkpt>
<trkpt lat="46.058" lon="7.95814"><ele>1970.4</ele><time>2024-08-09T11:43:42Z</time></trkpt>
<trkpt lat="46.05799" lon="7.95812"><ele>1970.6</ele><time>2024-08-09T11:43:44Z</time></trkpt>
<trkpt lat="46.05791" lon="7.95809"><ele>1971.4</ele><time>2024-08-09T11:43:50Z</time></trkpt>
<trkpt lat="46.05789" lon="7.95808"><ele>1971.8</ele><time>2024-08-09T11:43:52Z</time></trkpt>
<trkpt lat="46.05782" lon="7.95805"><ele>1972.4</ele><time>2024-08-09T11:43:57Z</time></trkpt>
<trkpt lat="46.05776" lon="7.95798"><ele>1973.4</ele><time>2024-08-09T11:44:04Z</time></trkpt>
<trkpt lat="46.05775" lon="7.95797"><ele>1973.6</ele><time>2024-08-09T11:44:05Z</time></trkpt>
<trkpt lat="46.05769" lon="7.95793"><ele>1974.2</ele><time>2024-08-09T11:44:10Z</time></trkpt>
<trkpt lat="46.05767" lon="7.95792"><ele>1974.6</ele><time>2024-08-09T11:44:13Z</time></trkpt>
<trkpt lat="46.05763" lon="7.95794"><ele>1975</ele><time>2024-08-09T11:44:16Z</time></trkpt>
<trkpt lat="46.05757" lon="7.95793"><ele>1975.6</ele><time>2024-08-09T11:44:20Z</time></trkpt>
<trkpt lat="46.05756" lon="7.95793"><ele>1975.8</ele><time>2024-08-09T11:44:21Z</time></trkpt>
<trkpt lat="46.0575" lon="7.95795"><ele>1976.6</ele><time>2024-08-09T11:44:27Z</time></trkpt>
<trkpt lat="46.05749" lon="7.95796"><ele>1976.8</ele><time>2024-08-09T11:44:28Z</time></trkpt>
<trkpt lat="46.05738" lon="7.95797"><ele>1978</ele><time>2024-08-09T11:44:36Z</time></trkpt>
<trkpt lat="46.05728" lon="7.95799"><ele>1979</ele><time>2024-08-09T11:44:45Z</time></trkpt>
<trkpt lat="46.05721" lon="7.958"><ele>1980</ele><time>2024-08-09T11:44:51Z</time></trkpt>
<trkpt lat="46.05715" lon="7.95801"><ele>1980.8</ele><time>2024-08-09T11:44:56Z</time></trkpt>
<trkpt lat="46.05712" lon="7.95802"><ele>1981.2</ele><time>2024-08-09T11:44:58Z</time></trkpt>
<trkpt lat="46.05703" lon="7.95805"><ele>1982</ele><time>2024-08-09T11:45:05Z</time></trkpt>
<trkpt lat="46.05702" lon="7.95805"><ele>1982.2</ele><time>2024-08-09T11:45:06Z</time></trkpt>
<trkpt lat="46.05694" lon="7.95808"><ele>1982.8</ele><time>2024-08-09T11:45:12Z</time></trkpt>
<trkpt lat="46.0569" lon="7.95814"><ele>1983.4</ele><time>2024-08-09T11:45:16Z</time></trkpt>
<trkpt lat="46.05689" lon="7.95816"><ele>1983.6</ele><time>2024-08-09T11:45:18Z</time></trkpt>
<trkpt lat="46.05683" lon="7.95821"><ele>1984.4</ele><time>2024-08-09T11:45:25Z</time></trkpt>
<trkpt lat="46.05681" lon="7.95823"><ele>1984.8</ele><time>2024-08-09T11:45:32Z</time></trkpt>
<trkpt lat="46.0568" lon="7.95823"><ele>1984.8</ele><time>2024-08-09T11:45:39Z</time></trkpt>
<trkpt lat="46.05679" lon="7.95825"><ele>1984.8</ele><time>2024-08-09T11:45:42Z</time></trkpt>
<trkpt lat="46.05679" lon="7.95823"><ele>1984.6</ele><time>2024-08-09T11:45:49Z</time></trkpt>
<trkpt lat="46.05673" lon="7.95826"><ele>1985.2</ele><time>2024-08-09T11:45:55Z</time></trkpt>
<trkpt lat="46.0567" lon="7.95825"><ele>1985.4</ele><time>2024-08-09T11:45:59Z</time></trkpt>
<trkpt lat="46.05668" lon="7.95825"><ele>1985.6</ele><time>2024-08-09T11:46:01Z</time></trkpt>
<trkpt lat="46.05664" lon="7.95824"><ele>1986</ele><time>2024-08-09T11:46:07Z</time></trkpt>
<trkpt lat="46.05665" lon="7.95824"><ele>1985.8</ele><time>2024-08-09T11:46:20Z</time></trkpt>
<trkpt lat="46.05665" lon="7.95823"><ele>1985.8</ele><time>2024-08-09T11:46:25Z</time></trkpt>
<trkpt lat="46.05665" lon="7.95822"><ele>1985.8</ele><time>2024-08-09T11:46:29Z</time></trkpt>
<trkpt lat="46.05665" lon="7.95821"><ele>1985.8</ele><time>2024-08-09T11:46:31Z</time></trkpt>
<trkpt lat="46.05665" lon="7.95818"><ele>1985.8</ele><time>2024-08-09T11:46:35Z</time></trkpt>
<trkpt lat="46.05667" lon="7.95809"><ele>1986.2</ele><time>2024-08-09T11:46:39Z</time></trkpt>
<trkpt lat="46.05681" lon="7.95792"><ele>1985.8</ele><time>2024-08-09T11:46:44Z</time></trkpt>
<trkpt lat="46.05688" lon="7.95788"><ele>1986.6</ele><time>2024-08-09T11:46:47Z</time></trkpt>
<trkpt lat="46.05692" lon="7.95788"><ele>1987.4</ele><time>2024-08-09T11:46:49Z</time></trkpt>
<trkpt lat="46.05694" lon="7.95788"><ele>1987.6</ele><time>2024-08-09T11:46:50Z</time></trkpt>
<trkpt lat="46.05699" lon="7.95783"><ele>1988.8</ele><time>2024-08-09T11:46:54Z</time></trkpt>
<trkpt lat="46.05702" lon="7.9578"><ele>1989</ele><time>2024-08-09T11:46:56Z</time></trkpt>
<trkpt lat="46.05709" lon="7.95771"><ele>1989.8</ele><time>2024-08-09T11:47:02Z</time></trkpt>
<trkpt lat="46.05711" lon="7.9577"><ele>1990</ele><time>2024-08-09T11:47:03Z</time></trkpt>
<trkpt lat="46.05717" lon="7.95764"><ele>1991</ele><time>2024-08-09T11:47:08Z</time></trkpt>
<trkpt lat="46.05719" lon="7.95762"><ele>1991</ele><time>2024-08-09T11:47:09Z</time></trkpt>
<trkpt lat="46.05724" lon="7.95755"><ele>1992</ele><time>2024-08-09T11:47:14Z</time></trkpt>
<trkpt lat="46.05729" lon="7.95749"><ele>1992.8</ele><time>2024-08-09T11:47:18Z</time></trkpt>
<trkpt lat="46.05731" lon="7.95747"><ele>1993.2</ele><time>2024-08-09T11:47:20Z</time></trkpt>
<trkpt lat="46.05735" lon="7.95745"><ele>1993.6</ele><time>2024-08-09T11:47:23Z</time></trkpt>
<trkpt lat="46.05736" lon="7.95744"><ele>1993.8</ele><time>2024-08-09T11:47:24Z</time></trkpt>
<trkpt lat="46.05741" lon="7.95741"><ele>1994.2</ele><time>2024-08-09T11:47:27Z</time></trkpt>
<trkpt lat="46.05742" lon="7.9574"><ele>1994.4</ele><time>2024-08-09T11:47:28Z</time></trkpt>
<trkpt lat="46.05748" lon="7.95735"><ele>1995.2</ele><time>2024-08-09T11:47:34Z</time></trkpt>
<trkpt lat="46.05751" lon="7.95734"><ele>1995.4</ele><time>2024-08-09T11:47:36Z</time></trkpt>
<trkpt lat="46.05758" lon="7.95732"><ele>1996.6</ele><time>2024-08-09T11:47:41Z</time></trkpt>
<trkpt lat="46.0576" lon="7.95732"><ele>1996.6</ele><time>2024-08-09T11:47:42Z</time></trkpt>
<trkpt lat="46.05768" lon="7.95728"><ele>1997.8</ele><time>2024-08-09T11:47:49Z</time></trkpt>
<trkpt lat="46.05773" lon="7.95725"><ele>1998.6</ele><time>2024-08-09T11:47:53Z</time></trkpt>
<trkpt lat="46.05775" lon="7.95722"><ele>1998.8</ele><time>2024-08-09T11:47:55Z</time></trkpt>
<trkpt lat="46.0578" lon="7.95719"><ele>1999.2</ele><time>2024-08-09T11:47:59Z</time></trkpt>
<trkpt lat="46.05783" lon="7.95715"><ele>1999.8</ele><time>2024-08-09T11:48:02Z</time></trkpt>
<trkpt lat="46.05785" lon="7.9571"><ele>2000.4</ele><time>2024-08-09T11:48:05Z</time></trkpt>
<trkpt lat="46.05787" lon="7.95697"><ele>2001</ele><time>2024-08-09T11:48:11Z</time></trkpt>
<trkpt lat="46.05787" lon="7.95695"><ele>2001</ele><time>2024-08-09T11:48:12Z</time></trkpt>
<trkpt lat="46.05787" lon="7.95682"><ele>2002</ele><time>2024-08-09T11:48:18Z</time></trkpt>
<trkpt lat="46.05787" lon="7.95675"><ele>2002.6</ele><time>2024-08-09T11:48:21Z</time></trkpt>
<trkpt lat="46.05787" lon="7.95667"><ele>2003</ele><time>2024-08-09T11:48:25Z</time></trkpt>
<trkpt lat="46.05788" lon="7.95658"><ele>2003.6</ele><time>2024-08-09T11:48:29Z</time></trkpt>
<trkpt lat="46.05788" lon="7.95652"><ele>2004</ele><time>2024-08-09T11:48:32Z</time></trkpt>
<trkpt lat="46.05788" lon="7.95641"><ele>2005</ele><time>2024-08-09T11:48:37Z</time></trkpt>
<trkpt lat="46.05788" lon="7.95639"><ele>2005.2</ele><time>2024-08-09T11:48:38Z</time></trkpt>
<trkpt lat="46.0579" lon="7.95632"><ele>2005.8</ele><time>2024-08-09T11:48:42Z</time></trkpt>
<trkpt lat="46.05792" lon="7.95628"><ele>2006.4</ele><time>2024-08-09T11:48:45Z</time></trkpt>
<trkpt lat="46.05796" lon="7.95619"><ele>2006.8</ele><time>2024-08-09T11:48:50Z</time></trkpt>
<trkpt lat="46.05797" lon="7.95617"><ele>2007.4</ele><time>2024-08-09T11:48:52Z</time></trkpt>
<trkpt lat="46.05801" lon="7.95609"><ele>2008</ele><time>2024-08-09T11:48:57Z</time></trkpt>
<trkpt lat="46.05803" lon="7.95605"><ele>2008.4</ele><time>2024-08-09T11:49:00Z</time></trkpt>
<trkpt lat="46.05806" lon="7.95598"><ele>2009</ele><time>2024-08-09T11:49:04Z</time></trkpt>
<trkpt lat="46.05808" lon="7.95591"><ele>2009.4</ele><time>2024-08-09T11:49:07Z</time></trkpt>
<trkpt lat="46.05807" lon="7.9558"><ele>2010</ele><time>2024-08-09T11:49:12Z</time></trkpt>
<trkpt lat="46.05804" lon="7.95573"><ele>2010.4</ele><time>2024-08-09T11:49:16Z</time></trkpt>
<trkpt lat="46.05802" lon="7.95571"><ele>2010.8</ele><time>2024-08-09T11:49:18Z</time></trkpt>
<trkpt lat="46.05792" lon="7.95574"><ele>2011.4</ele><time>2024-08-09T11:49:24Z</time></trkpt>
<trkpt lat="46.0579" lon="7.95577"><ele>2011.6</ele><time>2024-08-09T11:49:26Z</time></trkpt>
<trkpt lat="46.05784" lon="7.95588"><ele>2012.2</ele><time>2024-08-09T11:49:32Z</time></trkpt>
<trkpt lat="46.05781" lon="7.95593"><ele>2012.6</ele><time>2024-08-09T11:49:35Z</time></trkpt>
<trkpt lat="46.05774" lon="7.95606"><ele>2013.6</ele><time>2024-08-09T11:49:42Z</time></trkpt>
<trkpt lat="46.05768" lon="7.95617"><ele>2014.6</ele><time>2024-08-09T11:49:49Z</time></trkpt>
<trkpt lat="46.05767" lon="7.9562"><ele>2014.8</ele><time>2024-08-09T11:49:51Z</time></trkpt>
<trkpt lat="46.05761" lon="7.9563"><ele>2016</ele><time>2024-08-09T11:49:58Z</time></trkpt>
<trkpt lat="46.05754" lon="7.95642"><ele>2017</ele><time>2024-08-09T11:50:06Z</time></trkpt>
<trkpt lat="46.05754" lon="7.95644"><ele>2017.2</ele><time>2024-08-09T11:50:07Z</time></trkpt>
<trkpt lat="46.05746" lon="7.95655"><ele>2018.2</ele><time>2024-08-09T11:50:15Z</time></trkpt>
<trkpt lat="46.05745" lon="7.95657"><ele>2018.4</ele><time>2024-08-09T11:50:16Z</time></trkpt>
<trkpt lat="46.05739" lon="7.95664"><ele>2019.2</ele><time>2024-08-09T11:50:22Z</time></trkpt>
<trkpt lat="46.05736" lon="7.95667"><ele>2019.6</ele><time>2024-08-09T11:50:25Z</time></trkpt>
<trkpt lat="46.05728" lon="7.95673"><ele>2020.4</ele><time>2024-08-09T11:50:31Z</time></trkpt>
<trkpt lat="46.05722" lon="7.95677"><ele>2021</ele><time>2024-08-09T11:50:35Z</time></trkpt>
<trkpt lat="46.05717" lon="7.9568"><ele>2021.4</ele><time>2024-08-09T11:50:39Z</time></trkpt>
<trkpt lat="46.05716" lon="7.95681"><ele>2021.6</ele><time>2024-08-09T11:50:40Z</time></trkpt>
<trkpt lat="46.0571" lon="7.95683"><ele>2022.2</ele><time>2024-08-09T11:50:44Z</time></trkpt>
<trkpt lat="46.05709" lon="7.95684"><ele>2022.6</ele><time>2024-08-09T11:50:45Z</time></trkpt>
<trkpt lat="46.05702" lon="7.95689"><ele>2023.2</ele><time>2024-08-09T11:50:51Z</time></trkpt>
<trkpt lat="46.05697" lon="7.95693"><ele>2023.8</ele><time>2024-08-09T11:50:55Z</time></trkpt>
<trkpt lat="46.05694" lon="7.95695"><ele>2024.2</ele><time>2024-08-09T11:50:58Z</time></trkpt>
<trkpt lat="46.05687" lon="7.957"><ele>2025.2</ele><time>2024-08-09T11:51:03Z</time></trkpt>
<trkpt lat="46.05683" lon="7.95702"><ele>2025.4</ele><time>2024-08-09T11:51:06Z</time></trkpt>
<trkpt lat="46.05676" lon="7.95707"><ele>2026.2</ele><time>2024-08-09T11:51:11Z</time></trkpt>
<trkpt lat="46.05668" lon="7.95712"><ele>2027.2</ele><time>2024-08-09T11:51:17Z</time></trkpt>
<trkpt lat="46.05667" lon="7.95712"><ele>2027.2</ele><time>2024-08-09T11:51:18Z</time></trkpt>
<trkpt lat="46.05659" lon="7.95716"><ele>2028</ele><time>2024-08-09T11:51:24Z</time></trkpt>
<trkpt lat="46.05656" lon="7.95718"><ele>2028.2</ele><time>2024-08-09T11:51:26Z</time></trkpt>
<trkpt lat="46.05646" lon="7.95725"><ele>2029.2</ele><time>2024-08-09T11:51:33Z</time></trkpt>
<trkpt lat="46.05645" lon="7.95726"><ele>2029.6</ele><time>2024-08-09T11:51:34Z</time></trkpt>
<trkpt lat="46.05635" lon="7.95736"><ele>2030.2</ele><time>2024-08-09T11:51:42Z</time></trkpt>
<trkpt lat="46.05632" lon="7.95739"><ele>2030.6</ele><time>2024-08-09T11:51:44Z</time></trkpt>
<trkpt lat="46.0562" lon="7.9575"><ele>2031.6</ele><time>2024-08-09T11:51:52Z</time></trkpt>
<trkpt lat="46.05605" lon="7.95763"><ele>2032.4</ele><time>2024-08-09T11:52:01Z</time></trkpt>
<trkpt lat="46.05602" lon="7.95766"><ele>2032.8</ele><time>2024-08-09T11:52:03Z</time></trkpt>
<trkpt lat="46.05588" lon="7.95779"><ele>2033.6</ele><time>2024-08-09T11:52:11Z</time></trkpt>
<trkpt lat="46.05586" lon="7.9578"><ele>2033.8</ele><time>2024-08-09T11:52:12Z</time></trkpt>
<trkpt lat="46.05572" lon="7.95791"><ele>2034.4</ele><time>2024-08-09T11:52:20Z</time></trkpt>
<trkpt lat="46.05572" lon="7.95793"><ele>2034.6</ele><time>2024-08-09T11:52:25Z</time></trkpt>
<trkpt lat="46.05572" lon="7.95792"><ele>2034.6</ele><time>2024-08-09T11:52:31Z</time></trkpt>
<trkpt lat="46.05571" lon="7.95792"><ele>2034.6</ele><time>2024-08-09T11:52:33Z</time></trkpt>
<trkpt lat="46.05572" lon="7.95792"><ele>2034.8</ele><time>2024-08-09T11:52:34Z</time></trkpt>
<trkpt lat="46.05572" lon="7.95792"><ele>2034.8</ele><time>2024-08-09T11:52:42Z</time></trkpt>
<trkpt lat="46.05571" lon="7.9579"><ele>2034.8</ele><time>2024-08-09T11:52:55Z</time></trkpt>
<trkpt lat="46.05571" lon="7.9579"><ele>2034.8</ele><time>2024-08-09T11:52:56Z</time></trkpt>
<trkpt lat="46.05571" lon="7.9579"><ele>2034.8</ele><time>2024-08-09T11:53:03Z</time></trkpt>
<trkpt lat="46.05571" lon="7.9579"><ele>2034.6</ele><time>2024-08-09T11:53:10Z</time></trkpt>
<trkpt lat="46.0557" lon="7.95793"><ele>2034.6</ele><time>2024-08-09T11:53:13Z</time></trkpt>
<trkpt lat="46.05567" lon="7.95795"><ele>2034.6</ele><time>2024-08-09T11:53:15Z</time></trkpt>
<trkpt lat="46.05552" lon="7.95811"><ele>2035</ele><time>2024-08-09T11:53:22Z</time></trkpt>
<trkpt lat="46.05542" lon="7.95819"><ele>2035.4</ele><time>2024-08-09T11:53:26Z</time></trkpt>
<trkpt lat="46.05531" lon="7.95829"><ele>2035.8</ele><time>2024-08-09T11:53:30Z</time></trkpt>
<trkpt lat="46.05517" lon="7.95842"><ele>2036.6</ele><time>2024-08-09T11:53:35Z</time></trkpt>
<trkpt lat="46.05508" lon="7.95852"><ele>2036.8</ele><time>2024-08-09T11:53:38Z</time></trkpt>
<trkpt lat="46.05502" lon="7.9586"><ele>2037</ele><time>2024-08-09T11:53:40Z</time></trkpt>
<trkpt lat="46.05497" lon="7.9587"><ele>2037</ele><time>2024-08-09T11:53:42Z</time></trkpt>
<trkpt lat="46.05475" lon="7.95912"><ele>2037</ele><time>2024-08-09T11:53:50Z</time></trkpt>
<trkpt lat="46.05461" lon="7.95957"><ele>2036.8</ele><time>2024-08-09T11:53:56Z</time></trkpt>
<trkpt lat="46.05461" lon="7.95966"><ele>2036.8</ele><time>2024-08-09T11:53:57Z</time></trkpt>
<trkpt lat="46.05462" lon="7.95984"><ele>2036.8</ele><time>2024-08-09T11:53:59Z</time></trkpt>
<trkpt lat="46.05466" lon="7.95992"><ele>2036.8</ele><time>2024-08-09T11:54:00Z</time></trkpt>
<trkpt lat="46.0547" lon="7.96"><ele>2036.6</ele><time>2024-08-09T11:54:01Z</time></trkpt>
<trkpt lat="46.05486" lon="7.96019"><ele>2036.4</ele><time>2024-08-09T11:54:04Z</time></trkpt>
<trkpt lat="46.05513" lon="7.96054"><ele>2036.2</ele><time>2024-08-09T11:54:10Z</time></trkpt>
<trkpt lat="46.05521" lon="7.96063"><ele>2037.6</ele><time>2024-08-09T11:54:13Z</time></trkpt>
<trkpt lat="46.05523" lon="7.96065"><ele>2038.4</ele><time>2024-08-09T11:54:14Z</time></trkpt>
<trkpt lat="46.05528" lon="7.9607"><ele>2039.6</ele><time>2024-08-09T11:54:18Z</time></trkpt>
<trkpt lat="46.05529" lon="7.96071"><ele>2039.6</ele><time>2024-08-09T11:54:19Z</time></trkpt>
<trkpt lat="46.05531" lon="7.96071"><ele>2039.8</ele><time>2024-08-09T11:54:20Z</time></trkpt>
<trkpt lat="46.05539" lon="7.96073"><ele>2040.6</ele><time>2024-08-09T11:54:25Z</time></trkpt>
<trkpt lat="46.05548" lon="7.96075"><ele>2041.6</ele><time>2024-08-09T11:54:30Z</time></trkpt>
<trkpt lat="46.05554" lon="7.96075"><ele>2042.6</ele><time>2024-08-09T11:54:34Z</time></trkpt>
<trkpt lat="46.05561" lon="7.96077"><ele>2043.2</ele><time>2024-08-09T11:54:38Z</time></trkpt>
<trkpt lat="46.05565" lon="7.96078"><ele>2043.8</ele><time>2024-08-09T11:54:41Z</time></trkpt>
<trkpt lat="46.05574" lon="7.96079"><ele>2044.8</ele><time>2024-08-09T11:54:46Z</time></trkpt>
<trkpt lat="46.05575" lon="7.9608"><ele>2045</ele><time>2024-08-09T11:54:47Z</time></trkpt>
<trkpt lat="46.05583" lon="7.96082"><ele>2046</ele><time>2024-08-09T11:54:52Z</time></trkpt>
<trkpt lat="46.05591" lon="7.96085"><ele>2047.2</ele><time>2024-08-09T11:54:57Z</time></trkpt>
<trkpt lat="46.05598" lon="7.96086"><ele>2048.2</ele><time>2024-08-09T11:55:02Z</time></trkpt>
<trkpt lat="46.05609" lon="7.96089"><ele>2049.2</ele><time>2024-08-09T11:55:09Z</time></trkpt>
<trkpt lat="46.0562" lon="7.96094"><ele>2050.2</ele><time>2024-08-09T11:55:16Z</time></trkpt>
<trkpt lat="46.05623" lon="7.96096"><ele>2050.4</ele><time>2024-08-09T11:55:18Z</time></trkpt>
<trkpt lat="46.0563" lon="7.96098"><ele>2051.2</ele><time>2024-08-09T11:55:22Z</time></trkpt>
<trkpt lat="46.05631" lon="7.96098"><ele>2051.6</ele><time>2024-08-09T11:55:23Z</time></trkpt>
<trkpt lat="46.05638" lon="7.96101"><ele>2052.4</ele><time>2024-08-09T11:55:27Z</time></trkpt>
<trkpt lat="46.05644" lon="7.96104"><ele>2053</ele><time>2024-08-09T11:55:31Z</time></trkpt>
<trkpt lat="46.05647" lon="7.96105"><ele>2053.4</ele><time>2024-08-09T11:55:33Z</time></trkpt>
<trkpt lat="46.05655" lon="7.96109"><ele>2054.6</ele><time>2024-08-09T11:55:39Z</time></trkpt>
<trkpt lat="46.05658" lon="7.96109"><ele>2055</ele><time>2024-08-09T11:55:41Z</time></trkpt>
<trkpt lat="46.05665" lon="7.96111"><ele>2055.6</ele><time>2024-08-09T11:55:45Z</time></trkpt>
<trkpt lat="46.05671" lon="7.96114"><ele>2056.2</ele><time>2024-08-09T11:55:49Z</time></trkpt>
<trkpt lat="46.05674" lon="7.96115"><ele>2056.8</ele><time>2024-08-09T11:55:51Z</time></trkpt>
<trkpt lat="46.05682" lon="7.96117"><ele>2057.8</ele><time>2024-08-09T11:55:56Z</time></trkpt>
<trkpt lat="46.05684" lon="7.96117"><ele>2058</ele><time>2024-08-09T11:55:57Z</time></trkpt>
<trkpt lat="46.05692" lon="7.9612"><ele>2059.2</ele><time>2024-08-09T11:56:03Z</time></trkpt>
<trkpt lat="46.05694" lon="7.96119"><ele>2059.4</ele><time>2024-08-09T11:56:04Z</time></trkpt>
<trkpt lat="46.05697" lon="7.96121"><ele>2060.2</ele><time>2024-08-09T11:56:07Z</time></trkpt>
<trkpt lat="46.05699" lon="7.96126"><ele>2060.6</ele><time>2024-08-09T11:56:10Z</time></trkpt>
<trkpt lat="46.05699" lon="7.9613"><ele>2060.8</ele><time>2024-08-09T11:56:12Z</time></trkpt>
<trkpt lat="46.05696" lon="7.96135"><ele>2061.2</ele><time>2024-08-09T11:56:15Z</time></trkpt>
<trkpt lat="46.05695" lon="7.96136"><ele>2061.2</ele><time>2024-08-09T11:56:16Z</time></trkpt>
<trkpt lat="46.05694" lon="7.96137"><ele>2061.4</ele><time>2024-08-09T11:56:17Z</time></trkpt>
<trkpt lat="46.05688" lon="7.96139"><ele>2061.4</ele><time>2024-08-09T11:56:20Z</time></trkpt>
<trkpt lat="46.05672" lon="7.96139"><ele>2062.2</ele><time>2024-08-09T11:56:28Z</time></trkpt>
<trkpt lat="46.0567" lon="7.96139"><ele>2062.6</ele><time>2024-08-09T11:56:30Z</time></trkpt>
<trkpt lat="46.05664" lon="7.96139"><ele>2063.2</ele><time>2024-08-09T11:56:34Z</time></trkpt>
<trkpt lat="46.05661" lon="7.96139"><ele>2063.6</ele><time>2024-08-09T11:56:36Z</time></trkpt>
<trkpt lat="46.05654" lon="7.96138"><ele>2064.4</ele><time>2024-08-09T11:56:41Z</time></trkpt>
<trkpt lat="46.05653" lon="7.96138"><ele>2064.6</ele><time>2024-08-09T11:56:42Z</time></trkpt>
<trkpt lat="46.05646" lon="7.96139"><ele>2065.6</ele><time>2024-08-09T11:56:47Z</time></trkpt>
<trkpt lat="46.05644" lon="7.96139"><ele>2065.8</ele><time>2024-08-09T11:56:48Z</time></trkpt>
<trkpt lat="46.05636" lon="7.96141"><ele>2066.8</ele><time>2024-08-09T11:56:54Z</time></trkpt>
<trkpt lat="46.05635" lon="7.96142"><ele>2067</ele><time>2024-08-09T11:56:55Z</time></trkpt>
<trkpt lat="46.05627" lon="7.96141"><ele>2067.8</ele><time>2024-08-09T11:57:00Z</time></trkpt>
<trkpt lat="46.05618" lon="7.96144"><ele>2069</ele><time>2024-08-09T11:57:06Z</time></trkpt>
<trkpt lat="46.05615" lon="7.96145"><ele>2069.4</ele><time>2024-08-09T11:57:08Z</time></trkpt>
<trkpt lat="46.05609" lon="7.96147"><ele>2070</ele><time>2024-08-09T11:57:12Z</time></trkpt>
<trkpt lat="46.05604" lon="7.96149"><ele>2070.6</ele><time>2024-08-09T11:57:15Z</time></trkpt>
<trkpt lat="46.05601" lon="7.9615"><ele>2070.8</ele><time>2024-08-09T11:57:17Z</time></trkpt>
<trkpt lat="46.05598" lon="7.96151"><ele>2071.2</ele><time>2024-08-09T11:57:19Z</time></trkpt>
<trkpt lat="46.05595" lon="7.96152"><ele>2071.6</ele><time>2024-08-09T11:57:21Z</time></trkpt>
<trkpt lat="46.05589" lon="7.96154"><ele>2072.4</ele><time>2024-08-09T11:57:26Z</time></trkpt>
<trkpt lat="46.05587" lon="7.96155"><ele>2072.4</ele><time>2024-08-09T11:57:27Z</time></trkpt>
<trkpt lat="46.05577" lon="7.9616"><ele>2073.4</ele><time>2024-08-09T11:57:34Z</time></trkpt>
<trkpt lat="46.05576" lon="7.96161"><ele>2073.6</ele><time>2024-08-09T11:57:35Z</time></trkpt>
<trkpt lat="46.05567" lon="7.96166"><ele>2074.4</ele><time>2024-08-09T11:57:41Z</time></trkpt>
<trkpt lat="46.05565" lon="7.96167"><ele>2074.6</ele><time>2024-08-09T11:57:42Z</time></trkpt>
<trkpt lat="46.05556" lon="7.96171"><ele>2075.6</ele><time>2024-08-09T11:57:48Z</time></trkpt>
<trkpt lat="46.05555" lon="7.96172"><ele>2075.8</ele><time>2024-08-09T11:57:49Z</time></trkpt>
<trkpt lat="46.05544" lon="7.96177"><ele>2076.8</ele><time>2024-08-09T11:57:56Z</time></trkpt>
<trkpt lat="46.05543" lon="7.96178"><ele>2076.8</ele><time>2024-08-09T11:57:57Z</time></trkpt>
<trkpt lat="46.05535" lon="7.96181"><ele>2077.8</ele><time>2024-08-09T11:58:02Z</time></trkpt>
<trkpt lat="46.05533" lon="7.96182"><ele>2078</ele><time>2024-08-09T11:58:03Z</time></trkpt>
<trkpt lat="46.05525" lon="7.96185"><ele>2079.2</ele><time>2024-08-09T11:58:09Z</time></trkpt>
<trkpt lat="46.05524" lon="7.96185"><ele>2079.2</ele><time>2024-08-09T11:58:10Z</time></trkpt>
<trkpt lat="46.05515" lon="7.96187"><ele>2080.4</ele><time>2024-08-09T11:58:16Z</time></trkpt>
<trkpt lat="46.05514" lon="7.96188"><ele>2080.4</ele><time>2024-08-09T11:58:17Z</time></trkpt>
<trkpt lat="46.05507" lon="7.9619"><ele>2081.2</ele><time>2024-08-09T11:58:22Z</time></trkpt>
<trkpt lat="46.05506" lon="7.9619"><ele>2081.2</ele><time>2024-08-09T11:58:23Z</time></trkpt>
<trkpt lat="46.05504" lon="7.9619"><ele>2081.6</ele><time>2024-08-09T11:58:24Z</time></trkpt>
<trkpt lat="46.05497" lon="7.96191"><ele>2082.4</ele><time>2024-08-09T11:58:29Z</time></trkpt>
<trkpt lat="46.05496" lon="7.96192"><ele>2082.6</ele><time>2024-08-09T11:58:30Z</time></trkpt>
<trkpt lat="46.05487" lon="7.96195"><ele>2083.8</ele><time>2024-08-09T11:58:36Z</time></trkpt>
<trkpt lat="46.05481" lon="7.96197"><ele>2084.8</ele><time>2024-08-09T11:58:41Z</time></trkpt>
<trkpt lat="46.05478" lon="7.96198"><ele>2085.2</ele><time>2024-08-09T11:58:43Z</time></trkpt>
<trkpt lat="46.05474" lon="7.96202"><ele>2086</ele><time>2024-08-09T11:58:47Z</time></trkpt>
<trkpt lat="46.05473" lon="7.96204"><ele>2086</ele><time>2024-08-09T11:58:48Z</time></trkpt>
<trkpt lat="46.05468" lon="7.9621"><ele>2087</ele><time>2024-08-09T11:58:53Z</time></trkpt>
<trkpt lat="46.05466" lon="7.96211"><ele>2087.4</ele><time>2024-08-09T11:58:55Z</time></trkpt>
<trkpt lat="46.05463" lon="7.96213"><ele>2088.2</ele><time>2024-08-09T11:58:57Z</time></trkpt>
<trkpt lat="46.0546" lon="7.96216"><ele>2088.4</ele><time>2024-08-09T11:59:00Z</time></trkpt>
<trkpt lat="46.05454" lon="7.96216"><ele>2089.2</ele><time>2024-08-09T11:59:05Z</time></trkpt>
<trkpt lat="46.05449" lon="7.96216"><ele>2089.6</ele><time>2024-08-09T11:59:08Z</time></trkpt>
<trkpt lat="46.05442" lon="7.96213"><ele>2090.2</ele><time>2024-08-09T11:59:14Z</time></trkpt>
<trkpt lat="46.05439" lon="7.96212"><ele>2090.6</ele><time>2024-08-09T11:59:16Z</time></trkpt>
<trkpt lat="46.05431" lon="7.9621"><ele>2091.4</ele><time>2024-08-09T11:59:21Z</time></trkpt>
<trkpt lat="46.05428" lon="7.96208"><ele>2091.8</ele><time>2024-08-09T11:59:23Z</time></trkpt>
<trkpt lat="46.05421" lon="7.96206"><ele>2092.4</ele><time>2024-08-09T11:59:28Z</time></trkpt>
<trkpt lat="46.05415" lon="7.96201"><ele>2093</ele><time>2024-08-09T11:59:34Z</time></trkpt>
<trkpt lat="46.05412" lon="7.96198"><ele>2093.6</ele><time>2024-08-09T11:59:37Z</time></trkpt>
<trkpt lat="46.05405" lon="7.96195"><ele>2094.2</ele><time>2024-08-09T11:59:43Z</time></trkpt>
<trkpt lat="46.05403" lon="7.96194"><ele>2094.6</ele><time>2024-08-09T11:59:45Z</time></trkpt>
<trkpt lat="46.05395" lon="7.96192"><ele>2095.8</ele><time>2024-08-09T11:59:51Z</time></trkpt>
<trkpt lat="46.05392" lon="7.96191"><ele>2096</ele><time>2024-08-09T11:59:53Z</time></trkpt>
<trkpt lat="46.05384" lon="7.96191"><ele>2097</ele><time>2024-08-09T11:59:59Z</time></trkpt>
<trkpt lat="46.05382" lon="7.96192"><ele>2097.2</ele><time>2024-08-09T12:00:00Z</time></trkpt>
<trkpt lat="46.05373" lon="7.96196"><ele>2098</ele><time>2024-08-09T12:00:07Z</time></trkpt>
<trkpt lat="46.05369" lon="7.96197"><ele>2098.2</ele><time>2024-08-09T12:00:10Z</time></trkpt>
<trkpt lat="46.0536" lon="7.962"><ele>2099</ele><time>2024-08-09T12:00:16Z</time></trkpt>
<trkpt lat="46.05357" lon="7.96201"><ele>2099.2</ele><time>2024-08-09T12:00:18Z</time></trkpt>
<trkpt lat="46.05349" lon="7.96202"><ele>2100.2</ele><time>2024-08-09T12:00:23Z</time></trkpt>
<trkpt lat="46.05344" lon="7.96203"><ele>2100.8</ele><time>2024-08-09T12:00:27Z</time></trkpt>
<trkpt lat="46.05337" lon="7.96201"><ele>2101.2</ele><time>2024-08-09T12:00:31Z</time></trkpt>
<trkpt lat="46.05329" lon="7.96199"><ele>2102.4</ele><time>2024-08-09T12:00:37Z</time></trkpt>
<trkpt lat="46.05315" lon="7.96192"><ele>2103.4</ele><time>2024-08-09T12:00:46Z</time></trkpt>
<trkpt lat="46.05307" lon="7.9619"><ele>2104.4</ele><time>2024-08-09T12:00:52Z</time></trkpt>
<trkpt lat="46.05303" lon="7.96189"><ele>2104.8</ele><time>2024-08-09T12:00:55Z</time></trkpt>
<trkpt lat="46.05297" lon="7.9619"><ele>2105.6</ele><time>2024-08-09T12:01:01Z</time></trkpt>
<trkpt lat="46.05293" lon="7.96191"><ele>2106</ele><time>2024-08-09T12:01:04Z</time></trkpt>
<trkpt lat="46.05286" lon="7.96193"><ele>2106.6</ele><time>2024-08-09T12:01:09Z</time></trkpt>
<trkpt lat="46.05283" lon="7.96194"><ele>2106.8</ele><time>2024-08-09T12:01:11Z</time></trkpt>
<trkpt lat="46.05276" lon="7.96198"><ele>2107.8</ele><time>2024-08-09T12:01:17Z</time></trkpt>
<trkpt lat="46.05274" lon="7.96198"><ele>2108</ele><time>2024-08-09T12:01:18Z</time></trkpt>
<trkpt lat="46.05268" lon="7.96201"><ele>2108.8</ele><time>2024-08-09T12:01:24Z</time></trkpt>
<trkpt lat="46.05267" lon="7.96202"><ele>2108.8</ele><time>2024-08-09T12:01:25Z</time></trkpt>
<trkpt lat="46.05258" lon="7.96207"><ele>2109.6</ele><time>2024-08-09T12:01:32Z</time></trkpt>
<trkpt lat="46.05256" lon="7.96209"><ele>2110</ele><time>2024-08-09T12:01:34Z</time></trkpt>
<trkpt lat="46.05247" lon="7.96213"><ele>2110.8</ele><time>2024-08-09T12:01:41Z</time></trkpt>
<trkpt lat="46.05246" lon="7.96213"><ele>2111</ele><time>2024-08-09T12:01:42Z</time></trkpt>
<trkpt lat="46.05238" lon="7.96217"><ele>2112</ele><time>2024-08-09T12:01:49Z</time></trkpt>
<trkpt lat="46.05237" lon="7.96218"><ele>2112</ele><time>2024-08-09T12:01:50Z</time></trkpt>
<trkpt lat="46.05229" lon="7.96222"><ele>2113</ele><time>2024-08-09T12:01:56Z</time></trkpt>
<trkpt lat="46.05228" lon="7.96222"><ele>2113</ele><time>2024-08-09T12:01:57Z</time></trkpt>
<trkpt lat="46.05221" lon="7.96223"><ele>2113.8</ele><time>2024-08-09T12:02:02Z</time></trkpt>
<trkpt lat="46.05218" lon="7.96224"><ele>2114.2</ele><time>2024-08-09T12:02:05Z</time></trkpt>
<trkpt lat="46.0521" lon="7.96227"><ele>2115.2</ele><time>2024-08-09T12:02:11Z</time></trkpt>
<trkpt lat="46.05209" lon="7.96228"><ele>2115.2</ele><time>2024-08-09T12:02:12Z</time></trkpt>
<trkpt lat="46.05201" lon="7.96228"><ele>2116.2</ele><time>2024-08-09T12:02:18Z</time></trkpt>
<trkpt lat="46.05199" lon="7.96229"><ele>2116.2</ele><time>2024-08-09T12:02:19Z</time></trkpt>
<trkpt lat="46.05191" lon="7.96231"><ele>2117.2</ele><time>2024-08-09T12:02:25Z</time></trkpt>
<trkpt lat="46.05189" lon="7.96232"><ele>2117.4</ele><time>2024-08-09T12:02:26Z</time></trkpt>
<trkpt lat="46.05183" lon="7.96233"><ele>2117.8</ele><time>2024-08-09T12:02:31Z</time></trkpt>
<trkpt lat="46.05178" lon="7.96234"><ele>2118.4</ele><time>2024-08-09T12:02:35Z</time></trkpt>
<trkpt lat="46.05173" lon="7.96236"><ele>2119</ele><time>2024-08-09T12:02:39Z</time></trkpt>
<trkpt lat="46.0517" lon="7.96236"><ele>2119.2</ele><time>2024-08-09T12:02:41Z</time></trkpt>
<trkpt lat="46.05169" lon="7.96236"><ele>2119.6</ele><time>2024-08-09T12:02:42Z</time></trkpt>
<trkpt lat="46.05163" lon="7.96238"><ele>2120</ele><time>2024-08-09T12:02:47Z</time></trkpt>
<trkpt lat="46.05159" lon="7.96241"><ele>2120.8</ele><time>2024-08-09T12:02:51Z</time></trkpt>
<trkpt lat="46.05152" lon="7.96243"><ele>2121.2</ele><time>2024-08-09T12:02:56Z</time></trkpt>
<trkpt lat="46.05144" lon="7.96247"><ele>2121.8</ele><time>2024-08-09T12:03:02Z</time></trkpt>
<trkpt lat="46.05143" lon="7.96247"><ele>2121.8</ele><time>2024-08-09T12:03:03Z</time></trkpt>
<trkpt lat="46.05132" lon="7.96248"><ele>2122.6</ele><time>2024-08-09T12:03:10Z</time></trkpt>
<trkpt lat="46.0513" lon="7.96248"><ele>2123</ele><time>2024-08-09T12:03:12Z</time></trkpt>
<trkpt lat="46.05125" lon="7.96247"><ele>2123.6</ele><time>2024-08-09T12:03:16Z</time></trkpt>
<trkpt lat="46.0512" lon="7.96245"><ele>2124</ele><time>2024-08-09T12:03:20Z</time></trkpt>
<trkpt lat="46.05118" lon="7.96243"><ele>2124.4</ele><time>2024-08-09T12:03:22Z</time></trkpt>
<trkpt lat="46.05116" lon="7.9624"><ele>2124.6</ele><time>2024-08-09T12:03:25Z</time></trkpt>
<trkpt lat="46.05113" lon="7.96236"><ele>2125.2</ele><time>2024-08-09T12:03:28Z</time></trkpt>
<trkpt lat="46.05111" lon="7.96232"><ele>2125.6</ele><time>2024-08-09T12:03:31Z</time></trkpt>
<trkpt lat="46.05108" lon="7.96226"><ele>2126.2</ele><time>2024-08-09T12:03:35Z</time></trkpt>
<trkpt lat="46.05107" lon="7.96224"><ele>2126.4</ele><time>2024-08-09T12:03:36Z</time></trkpt>
<trkpt lat="46.05104" lon="7.96212"><ele>2127.2</ele><time>2024-08-09T12:03:43Z</time></trkpt>
<trkpt lat="46.051" lon="7.96203"><ele>2128.4</ele><time>2024-08-09T12:03:49Z</time></trkpt>
<trkpt lat="46.051" lon="7.96201"><ele>2128.4</ele><time>2024-08-09T12:03:50Z</time></trkpt>
<trkpt lat="46.05096" lon="7.9619"><ele>2129.4</ele><time>2024-08-09T12:03:56Z</time></trkpt>
<trkpt lat="46.05096" lon="7.96188"><ele>2129.6</ele><time>2024-08-09T12:03:57Z</time></trkpt>
<trkpt lat="46.0509" lon="7.96175"><ele>2130.6</ele><time>2024-08-09T12:04:05Z</time></trkpt>
<trkpt lat="46.05087" lon="7.96163"><ele>2131.8</ele><time>2024-08-09T12:04:12Z</time></trkpt>
<trkpt lat="46.05082" lon="7.96152"><ele>2132.6</ele><time>2024-08-09T12:04:18Z</time></trkpt>
<trkpt lat="46.05082" lon="7.9615"><ele>2132.8</ele><time>2024-08-09T12:04:19Z</time></trkpt>
<trkpt lat="46.05079" lon="7.96137"><ele>2133.8</ele><time>2024-08-09T12:04:27Z</time></trkpt>
<trkpt lat="46.05078" lon="7.96135"><ele>2134</ele><time>2024-08-09T12:04:28Z</time></trkpt>
<trkpt lat="46.05073" lon="7.96123"><ele>2134.8</ele><time>2024-08-09T12:04:35Z</time></trkpt>
<trkpt lat="46.05071" lon="7.96118"><ele>2135.2</ele><time>2024-08-09T12:04:38Z</time></trkpt>
<trkpt lat="46.05069" lon="7.96112"><ele>2135.6</ele><time>2024-08-09T12:04:41Z</time></trkpt>
<trkpt lat="46.05065" lon="7.96104"><ele>2136.2</ele><time>2024-08-09T12:04:47Z</time></trkpt>
<trkpt lat="46.05065" lon="7.96102"><ele>2136.4</ele><time>2024-08-09T12:04:48Z</time></trkpt>
<trkpt lat="46.0506" lon="7.9609"><ele>2137.2</ele><time>2024-08-09T12:04:55Z</time></trkpt>
<trkpt lat="46.0506" lon="7.96088"><ele>2137.4</ele><time>2024-08-09T12:04:56Z</time></trkpt>
<trkpt lat="46.05056" lon="7.96075"><ele>2138.4</ele><time>2024-08-09T12:05:03Z</time></trkpt>
<trkpt lat="46.05051" lon="7.96061"><ele>2139.6</ele><time>2024-08-09T12:05:11Z</time></trkpt>
<trkpt lat="46.05044" lon="7.96047"><ele>2140.6</ele><time>2024-08-09T12:05:20Z</time></trkpt>
<trkpt lat="46.05044" lon="7.96045"><ele>2140.8</ele><time>2024-08-09T12:05:21Z</time></trkpt>
<trkpt lat="46.0504" lon="7.96035"><ele>2141.8</ele><time>2024-08-09T12:05:27Z</time></trkpt>
<trkpt lat="46.05039" lon="7.96031"><ele>2141.8</ele><time>2024-08-09T12:05:29Z</time></trkpt>
<trkpt lat="46.05034" lon="7.96019"><ele>2142.8</ele><time>2024-08-09T12:05:36Z</time></trkpt>
<trkpt lat="46.05031" lon="7.96011"><ele>2143.6</ele><time>2024-08-09T12:05:41Z</time></trkpt>
<trkpt lat="46.0503" lon="7.96008"><ele>2144</ele><time>2024-08-09T12:05:43Z</time></trkpt>
<trkpt lat="46.05025" lon="7.95997"><ele>2144.8</ele><time>2024-08-09T12:05:50Z</time></trkpt>
<trkpt lat="46.05024" lon="7.95992"><ele>2145.2</ele><time>2024-08-09T12:05:52Z</time></trkpt>
<trkpt lat="46.05024" lon="7.95988"><ele>2145.6</ele><time>2024-08-09T12:05:56Z</time></trkpt>
<trkpt lat="46.05025" lon="7.9599"><ele>2145.6</ele><time>2024-08-09T12:06:01Z</time></trkpt>
<trkpt lat="46.05025" lon="7.95988"><ele>2145.4</ele><time>2024-08-09T12:06:08Z</time></trkpt>
<trkpt lat="46.05023" lon="7.95988"><ele>2145.6</ele><time>2024-08-09T12:06:17Z</time></trkpt>
<trkpt lat="46.05023" lon="7.95987"><ele>2145.4</ele><time>2024-08-09T12:06:18Z</time></trkpt>
<trkpt lat="46.05022" lon="7.95984"><ele>2145.2</ele><time>2024-08-09T12:06:26Z</time></trkpt>
<trkpt lat="46.05023" lon="7.95985"><ele>2145.4</ele><time>2024-08-09T12:06:33Z</time></trkpt>
<trkpt lat="46.05022" lon="7.95987"><ele>2145.2</ele><time>2024-08-09T12:06:39Z</time></trkpt>
<trkpt lat="46.05023" lon="7.95987"><ele>2145.2</ele><time>2024-08-09T12:06:40Z</time></trkpt>
<trkpt lat="46.05023" lon="7.95987"><ele>2145.2</ele><time>2024-08-09T12:06:44Z</time></trkpt>
<trkpt lat="46.05023" lon="7.95987"><ele>2145.2</ele><time>2024-08-09T12:06:48Z</time></trkpt>
<trkpt lat="46.05023" lon="7.95987"><ele>2145.2</ele><time>2024-08-09T12:06:51Z</time></trkpt>
<trkpt lat="46.05023" lon="7.95987"><ele>2145.4</ele><time>2024-08-09T12:06:58Z</time></trkpt>
<trkpt lat="46.05022" lon="7.95986"><ele>2145.4</ele><time>2024-08-09T12:07:12Z</time></trkpt>
<trkpt lat="46.05022" lon="7.95986"><ele>2145.4</ele><time>2024-08-09T12:07:16Z</time></trkpt>
<trkpt lat="46.05021" lon="7.95985"><ele>2145.4</ele><time>2024-08-09T12:07:24Z</time></trkpt>
<trkpt lat="46.05021" lon="7.95986"><ele>2145.4</ele><time>2024-08-09T12:07:34Z</time></trkpt>
<trkpt lat="46.05021" lon="7.95986"><ele>2145.4</ele><time>2024-08-09T12:07:43Z</time></trkpt>
<trkpt lat="46.05022" lon="7.95987"><ele>2145.4</ele><time>2024-08-09T12:07:54Z</time></trkpt>
<trkpt lat="46.05024" lon="7.9599"><ele>2145.4</ele><time>2024-08-09T12:08:02Z</time></trkpt>
<trkpt lat="46.05024" lon="7.95992"><ele>2145.4</ele><time>2024-08-09T12:08:09Z</time></trkpt>
<trkpt lat="46.05024" lon="7.95991"><ele>2145.4</ele><time>2024-08-09T12:08:17Z</time></trkpt>
<trkpt lat="46.05024" lon="7.95991"><ele>2145.4</ele><time>2024-08-09T12:08:22Z</time></trkpt>
<trkpt lat="46.05024" lon="7.9599"><ele>2145.4</ele><time>2024-08-09T12:08:25Z</time></trkpt>
<trkpt lat="46.05024" lon="7.95991"><ele>2145.4</ele><time>2024-08-09T12:08:33Z</time></trkpt>
<trkpt lat="46.05023" lon="7.95989"><ele>2145.4</ele><time>2024-08-09T12:08:40Z</time></trkpt>
<trkpt lat="46.05023" lon="7.95989"><ele>2145.4</ele><time>2024-08-09T12:08:41Z</time></trkpt>
<trkpt lat="46.05021" lon="7.9599"><ele>2145.4</ele><time>2024-08-09T12:08:46Z</time></trkpt>
<trkpt lat="46.05021" lon="7.95988"><ele>2145.4</ele><time>2024-08-09T12:08:48Z</time></trkpt>
<trkpt lat="46.05019" lon="7.95983"><ele>2145</ele><time>2024-08-09T12:08:51Z</time></trkpt>
<trkpt lat="46.05016" lon="7.95975"><ele>2145.8</ele><time>2024-08-09T12:08:56Z</time></trkpt>
<trkpt lat="46.05015" lon="7.95968"><ele>2146.2</ele><time>2024-08-09T12:09:00Z</time></trkpt>
<trkpt lat="46.05012" lon="7.95961"><ele>2147</ele><time>2024-08-09T12:09:04Z</time></trkpt>
<trkpt lat="46.05011" lon="7.95959"><ele>2147.4</ele><time>2024-08-09T12:09:06Z</time></trkpt>
<trkpt lat="46.05007" lon="7.9595"><ele>2148.2</ele><time>2024-08-09T12:09:12Z</time></trkpt>
<trkpt lat="46.05006" lon="7.95948"><ele>2148.4</ele><time>2024-08-09T12:09:13Z</time></trkpt>
<trkpt lat="46.05003" lon="7.95942"><ele>2149</ele><time>2024-08-09T12:09:18Z</time></trkpt>
<trkpt lat="46.05001" lon="7.95937"><ele>2149.6</ele><time>2024-08-09T12:09:21Z</time></trkpt>
<trkpt lat="46.05001" lon="7.95935"><ele>2149.6</ele><time>2024-08-09T12:09:22Z</time></trkpt>
<trkpt lat="46.04999" lon="7.95928"><ele>2150.2</ele><time>2024-08-09T12:09:26Z</time></trkpt>
<trkpt lat="46.04998" lon="7.95927"><ele>2150.4</ele><time>2024-08-09T12:09:27Z</time></trkpt>
<trkpt lat="46.04998" lon="7.95925"><ele>2150.4</ele><time>2024-08-09T12:09:28Z</time></trkpt>
<trkpt lat="46.04997" lon="7.95924"><ele>2150.6</ele><time>2024-08-09T12:09:29Z</time></trkpt>
<trkpt lat="46.04996" lon="7.95921"><ele>2150.8</ele><time>2024-08-09T12:09:31Z</time></trkpt>
<trkpt lat="46.04992" lon="7.95912"><ele>2151.8</ele><time>2024-08-09T12:09:37Z</time></trkpt>
<trkpt lat="46.04992" lon="7.95911"><ele>2152.2</ele><time>2024-08-09T12:09:38Z</time></trkpt>
<trkpt lat="46.04988" lon="7.95903"><ele>2152.8</ele><time>2024-08-09T12:09:43Z</time></trkpt>
<trkpt lat="46.04987" lon="7.95901"><ele>2153</ele><time>2024-08-09T12:09:44Z</time></trkpt>
<trkpt lat="46.04982" lon="7.95888"><ele>2154</ele><time>2024-08-09T12:09:51Z</time></trkpt>
<trkpt lat="46.04982" lon="7.95887"><ele>2154.2</ele><time>2024-08-09T12:09:52Z</time></trkpt>
<trkpt lat="46.04977" lon="7.95878"><ele>2155.2</ele><time>2024-08-09T12:09:58Z</time></trkpt>
<trkpt lat="46.04976" lon="7.95873"><ele>2155.6</ele><time>2024-08-09T12:10:01Z</time></trkpt>
<trkpt lat="46.04973" lon="7.95868"><ele>2156.2</ele><time>2024-08-09T12:10:05Z</time></trkpt>
<trkpt lat="46.04972" lon="7.9586"><ele>2156.8</ele><time>2024-08-09T12:10:09Z</time></trkpt>
<trkpt lat="46.0497" lon="7.95854"><ele>2157.4</ele><time>2024-08-09T12:10:13Z</time></trkpt>
<trkpt lat="46.04966" lon="7.95846"><ele>2158.2</ele><time>2024-08-09T12:10:19Z</time></trkpt>
<trkpt lat="46.04965" lon="7.95843"><ele>2158.6</ele><time>2024-08-09T12:10:21Z</time></trkpt>
<trkpt lat="46.0496" lon="7.95833"><ele>2159.6</ele><time>2024-08-09T12:10:27Z</time></trkpt>
<trkpt lat="46.0496" lon="7.95831"><ele>2159.8</ele><time>2024-08-09T12:10:28Z</time></trkpt>
<trkpt lat="46.04956" lon="7.95821"><ele>2160.6</ele><time>2024-08-09T12:10:34Z</time></trkpt>
<trkpt lat="46.04955" lon="7.95818"><ele>2160.8</ele><time>2024-08-09T12:10:36Z</time></trkpt>
<trkpt lat="46.04954" lon="7.95813"><ele>2161.6</ele><time>2024-08-09T12:10:39Z</time></trkpt>
<trkpt lat="46.04952" lon="7.95809"><ele>2161.8</ele><time>2024-08-09T12:10:42Z</time></trkpt>
<trkpt lat="46.04951" lon="7.95807"><ele>2162.4</ele><time>2024-08-09T12:10:44Z</time></trkpt>
<trkpt lat="46.04947" lon="7.95795"><ele>2162.8</ele><time>2024-08-09T12:10:51Z</time></trkpt>
<trkpt lat="46.04946" lon="7.95794"><ele>2163</ele><time>2024-08-09T12:10:52Z</time></trkpt>
<trkpt lat="46.04943" lon="7.95786"><ele>2164</ele><time>2024-08-09T12:10:57Z</time></trkpt>
<trkpt lat="46.0494" lon="7.95778"><ele>2164.8</ele><time>2024-08-09T12:11:02Z</time></trkpt>
<trkpt lat="46.04938" lon="7.95773"><ele>2165</ele><time>2024-08-09T12:11:05Z</time></trkpt>
<trkpt lat="46.04934" lon="7.95764"><ele>2166.2</ele><time>2024-08-09T12:11:11Z</time></trkpt>
<trkpt lat="46.04932" lon="7.95757"><ele>2167.2</ele><time>2024-08-09T12:11:15Z</time></trkpt>
<trkpt lat="46.04927" lon="7.95745"><ele>2168.2</ele><time>2024-08-09T12:11:22Z</time></trkpt>
<trkpt lat="46.04926" lon="7.95744"><ele>2168.2</ele><time>2024-08-09T12:11:23Z</time></trkpt>
<trkpt lat="46.0492" lon="7.9573"><ele>2169.4</ele><time>2024-08-09T12:11:31Z</time></trkpt>
<trkpt lat="46.04918" lon="7.95725"><ele>2169.8</ele><time>2024-08-09T12:11:34Z</time></trkpt>
<trkpt lat="46.04916" lon="7.95722"><ele>2170.4</ele><time>2024-08-09T12:11:36Z</time></trkpt>
<trkpt lat="46.04913" lon="7.9571"><ele>2171.6</ele><time>2024-08-09T12:11:43Z</time></trkpt>
<trkpt lat="46.04912" lon="7.95708"><ele>2171.8</ele><time>2024-08-09T12:11:44Z</time></trkpt>
<trkpt lat="46.04908" lon="7.95697"><ele>2172.8</ele><time>2024-08-09T12:11:50Z</time></trkpt>
<trkpt lat="46.04906" lon="7.95692"><ele>2173.6</ele><time>2024-08-09T12:11:53Z</time></trkpt>
<trkpt lat="46.04904" lon="7.95688"><ele>2174</ele><time>2024-08-09T12:11:56Z</time></trkpt>
<trkpt lat="46.04901" lon="7.95681"><ele>2175</ele><time>2024-08-09T12:12:01Z</time></trkpt>
<trkpt lat="46.04899" lon="7.95677"><ele>2175.2</ele><time>2024-08-09T12:12:03Z</time></trkpt>
<trkpt lat="46.04895" lon="7.95668"><ele>2176.2</ele><time>2024-08-09T12:12:08Z</time></trkpt>
<trkpt lat="46.04893" lon="7.95663"><ele>2176.6</ele><time>2024-08-09T12:12:11Z</time></trkpt>
<trkpt lat="46.04892" lon="7.95656"><ele>2177.4</ele><time>2024-08-09T12:12:15Z</time></trkpt>
<trkpt lat="46.04889" lon="7.95649"><ele>2178.2</ele><time>2024-08-09T12:12:20Z</time></trkpt>
<trkpt lat="46.04888" lon="7.95647"><ele>2178.4</ele><time>2024-08-09T12:12:21Z</time></trkpt>
<trkpt lat="46.04883" lon="7.95636"><ele>2179.4</ele><time>2024-08-09T12:12:28Z</time></trkpt>
<trkpt lat="46.04882" lon="7.95634"><ele>2179.8</ele><time>2024-08-09T12:12:29Z</time></trkpt>
<trkpt lat="46.04878" lon="7.95621"><ele>2180.8</ele><time>2024-08-09T12:12:36Z</time></trkpt>
<trkpt lat="46.04876" lon="7.95616"><ele>2181.2</ele><time>2024-08-09T12:12:39Z</time></trkpt>
<trkpt lat="46.04873" lon="7.95609"><ele>2181.8</ele><time>2024-08-09T12:12:43Z</time></trkpt>
<trkpt lat="46.0487" lon="7.95602"><ele>2183</ele><time>2024-08-09T12:12:48Z</time></trkpt>
<trkpt lat="46.04866" lon="7.95588"><ele>2184.2</ele><time>2024-08-09T12:12:56Z</time></trkpt>
<trkpt lat="46.04865" lon="7.95586"><ele>2184.2</ele><time>2024-08-09T12:12:57Z</time></trkpt>
<trkpt lat="46.04861" lon="7.95579"><ele>2185.4</ele><time>2024-08-09T12:13:02Z</time></trkpt>
<trkpt lat="46.04858" lon="7.95572"><ele>2186.4</ele><time>2024-08-09T12:13:07Z</time></trkpt>
<trkpt lat="46.04854" lon="7.95563"><ele>2187.4</ele><time>2024-08-09T12:13:13Z</time></trkpt>
<trkpt lat="46.04853" lon="7.95558"><ele>2188</ele><time>2024-08-09T12:13:16Z</time></trkpt>
<trkpt lat="46.04849" lon="7.95551"><ele>2188.6</ele><time>2024-08-09T12:13:21Z</time></trkpt>
<trkpt lat="46.04849" lon="7.95547"><ele>2189</ele><time>2024-08-09T12:13:23Z</time></trkpt>
<trkpt lat="46.04847" lon="7.95543"><ele>2189.6</ele><time>2024-08-09T12:13:27Z</time></trkpt>
<trkpt lat="46.04845" lon="7.95538"><ele>2190</ele><time>2024-08-09T12:13:30Z</time></trkpt>
<trkpt lat="46.04843" lon="7.95534"><ele>2190.6</ele><time>2024-08-09T12:13:33Z</time></trkpt>
<trkpt lat="46.04839" lon="7.95526"><ele>2191.4</ele><time>2024-08-09T12:13:38Z</time></trkpt>
<trkpt lat="46.04838" lon="7.95523"><ele>2191.6</ele><time>2024-08-09T12:13:40Z</time></trkpt>
<trkpt lat="46.04837" lon="7.95516"><ele>2192.4</ele><time>2024-08-09T12:13:44Z</time></trkpt>
<trkpt lat="46.04834" lon="7.95512"><ele>2192.8</ele><time>2024-08-09T12:13:47Z</time></trkpt>
<trkpt lat="46.0483" lon="7.95503"><ele>2194</ele><time>2024-08-09T12:13:53Z</time></trkpt>
<trkpt lat="46.04827" lon="7.95495"><ele>2194.6</ele><time>2024-08-09T12:13:59Z</time></trkpt>
<trkpt lat="46.04825" lon="7.95491"><ele>2195.2</ele><time>2024-08-09T12:14:03Z</time></trkpt>
<trkpt lat="46.04823" lon="7.95487"><ele>2195.6</ele><time>2024-08-09T12:14:06Z</time></trkpt>
<trkpt lat="46.04822" lon="7.95484"><ele>2196</ele><time>2024-08-09T12:14:08Z</time></trkpt>
<trkpt lat="46.04821" lon="7.95481"><ele>2196.2</ele><time>2024-08-09T12:14:10Z</time></trkpt>
<trkpt lat="46.04819" lon="7.95475"><ele>2197.2</ele><time>2024-08-09T12:14:14Z</time></trkpt>
<trkpt lat="46.04819" lon="7.95474"><ele>2197.4</ele><time>2024-08-09T12:14:15Z</time></trkpt>
<trkpt lat="46.04817" lon="7.95469"><ele>2198.4</ele><time>2024-08-09T12:14:19Z</time></trkpt>
<trkpt lat="46.04816" lon="7.95467"><ele>2199</ele><time>2024-08-09T12:14:21Z</time></trkpt>
<trkpt lat="46.04813" lon="7.95462"><ele>2199.6</ele><time>2024-08-09T12:14:25Z</time></trkpt>
<trkpt lat="46.04812" lon="7.95459"><ele>2200.2</ele><time>2024-08-09T12:14:27Z</time></trkpt>
<trkpt lat="46.04811" lon="7.95451"><ele>2200.8</ele><time>2024-08-09T12:14:31Z</time></trkpt>
<trkpt lat="46.04809" lon="7.95446"><ele>2201.2</ele><time>2024-08-09T12:14:34Z</time></trkpt>
<trkpt lat="46.04807" lon="7.95439"><ele>2201.6</ele><time>2024-08-09T12:14:40Z</time></trkpt>
<trkpt lat="46.04806" lon="7.95436"><ele>2201.8</ele><time>2024-08-09T12:14:43Z</time></trkpt>
<trkpt lat="46.04806" lon="7.95434"><ele>2202</ele><time>2024-08-09T12:14:44Z</time></trkpt>
<trkpt lat="46.04805" lon="7.95432"><ele>2202.2</ele><time>2024-08-09T12:14:46Z</time></trkpt>
<trkpt lat="46.04801" lon="7.95431"><ele>2202.6</ele><time>2024-08-09T12:14:51Z</time></trkpt>
<trkpt lat="46.048" lon="7.95429"><ele>2202.8</ele><time>2024-08-09T12:14:52Z</time></trkpt>
<trkpt lat="46.04799" lon="7.95428"><ele>2202.8</ele><time>2024-08-09T12:14:53Z</time></trkpt>
<trkpt lat="46.04797" lon="7.95428"><ele>2203.2</ele><time>2024-08-09T12:14:55Z</time></trkpt>
<trkpt lat="46.04797" lon="7.95429"><ele>2203.4</ele><time>2024-08-09T12:14:56Z</time></trkpt>
<trkpt lat="46.04796" lon="7.95432"><ele>2203.4</ele><time>2024-08-09T12:14:57Z</time></trkpt>
<trkpt lat="46.04796" lon="7.95441"><ele>2203.8</ele><time>2024-08-09T12:15:01Z</time></trkpt>
<trkpt lat="46.04796" lon="7.95454"><ele>2203.8</ele><time>2024-08-09T12:15:07Z</time></trkpt>
<trkpt lat="46.04797" lon="7.95454"><ele>2203.8</ele><time>2024-08-09T12:15:08Z</time></trkpt>
<trkpt lat="46.04797" lon="7.95454"><ele>2203.8</ele><time>2024-08-09T12:15:17Z</time></trkpt>
<trkpt lat="46.04798" lon="7.95453"><ele>2204</ele><time>2024-08-09T12:15:25Z</time></trkpt>
<trkpt lat="46.04797" lon="7.95452"><ele>2204</ele><time>2024-08-09T12:15:26Z</time></trkpt>
<trkpt lat="46.04797" lon="7.95455"><ele>2204.6</ele><time>2024-08-09T12:15:34Z</time></trkpt>
<trkpt lat="46.04798" lon="7.95454"><ele>2204.8</ele><time>2024-08-09T12:15:39Z</time></trkpt>
<trkpt lat="46.04798" lon="7.95453"><ele>2204.6</ele><time>2024-08-09T12:15:48Z</time></trkpt>
<trkpt lat="46.048" lon="7.95455"><ele>2204.8</ele><time>2024-08-09T12:15:54Z</time></trkpt>
<trkpt lat="46.04799" lon="7.95455"><ele>2204.8</ele><time>2024-08-09T12:15:59Z</time></trkpt>
<trkpt lat="46.04797" lon="7.95454"><ele>2204.8</ele><time>2024-08-09T12:16:06Z</time></trkpt>
<trkpt lat="46.04797" lon="7.95455"><ele>2204.8</ele><time>2024-08-09T12:16:09Z</time></trkpt>
<trkpt lat="46.04799" lon="7.95454"><ele>2204.4</ele><time>2024-08-09T12:16:16Z</time></trkpt>
<trkpt lat="46.04798" lon="7.95454"><ele>2204.8</ele><time>2024-08-09T12:16:22Z</time></trkpt>
<trkpt lat="46.04798" lon="7.95457"><ele>2205</ele><time>2024-08-09T12:16:25Z</time></trkpt>
<trkpt lat="46.04801" lon="7.95457"><ele>2205.2</ele><time>2024-08-09T12:16:27Z</time></trkpt>
<trkpt lat="46.04801" lon="7.95456"><ele>2205.2</ele><time>2024-08-09T12:16:28Z</time></trkpt>
<trkpt lat="46.04798" lon="7.95449"><ele>2205.4</ele><time>2024-08-09T12:16:31Z</time></trkpt>
<trkpt lat="46.04796" lon="7.9544"><ele>2205.4</ele><time>2024-08-09T12:16:35Z</time></trkpt>
<trkpt lat="46.04791" lon="7.95433"><ele>2205.4</ele><time>2024-08-09T12:16:39Z</time></trkpt>
<trkpt lat="46.04788" lon="7.95431"><ele>2205.8</ele><time>2024-08-09T12:16:41Z</time></trkpt>
<trkpt lat="46.04786" lon="7.9543"><ele>2206</ele><time>2024-08-09T12:16:42Z</time></trkpt>
<trkpt lat="46.04782" lon="7.95429"><ele>2206.4</ele><time>2024-08-09T12:16:45Z</time></trkpt>
<trkpt lat="46.04779" lon="7.95429"><ele>2206.8</ele><time>2024-08-09T12:16:47Z</time></trkpt>
<trkpt lat="46.04778" lon="7.9543"><ele>2207</ele><time>2024-08-09T12:16:48Z</time></trkpt>
<trkpt lat="46.04771" lon="7.95432"><ele>2208.2</ele><time>2024-08-09T12:16:52Z</time></trkpt>
<trkpt lat="46.04766" lon="7.95433"><ele>2209.4</ele><time>2024-08-09T12:16:55Z</time></trkpt>
<trkpt lat="46.04762" lon="7.95434"><ele>2209.8</ele><time>2024-08-09T12:16:58Z</time></trkpt>
<trkpt lat="46.04759" lon="7.95436"><ele>2210.4</ele><time>2024-08-09T12:17:01Z</time></trkpt>
<trkpt lat="46.04758" lon="7.95435"><ele>2210.4</ele><time>2024-08-09T12:17:02Z</time></trkpt>
<trkpt lat="46.04752" lon="7.95437"><ele>2211.4</ele><time>2024-08-09T12:17:07Z</time></trkpt>
<trkpt lat="46.04751" lon="7.95438"><ele>2211.4</ele><time>2024-08-09T12:17:08Z</time></trkpt>
<trkpt lat="46.04751" lon="7.95437"><ele>2212</ele><time>2024-08-09T12:17:12Z</time></trkpt>
<trkpt lat="46.04751" lon="7.95436"><ele>2212</ele><time>2024-08-09T12:17:13Z</time></trkpt>
<trkpt lat="46.04751" lon="7.95437"><ele>2211.8</ele><time>2024-08-09T12:17:20Z</time></trkpt>
<trkpt lat="46.0475" lon="7.95438"><ele>2212.2</ele><time>2024-08-09T12:17:29Z</time></trkpt>
<trkpt lat="46.0475" lon="7.95436"><ele>2212.2</ele><time>2024-08-09T12:17:45Z</time></trkpt>
<trkpt lat="46.04751" lon="7.95438"><ele>2211.8</ele><time>2024-08-09T12:17:52Z</time></trkpt>
<trkpt lat="46.0475" lon="7.95438"><ele>2212.2</ele><time>2024-08-09T12:17:56Z</time></trkpt>
<trkpt lat="46.0475" lon="7.95437"><ele>2212.2</ele><time>2024-08-09T12:18:00Z</time></trkpt>
<trkpt lat="46.0475" lon="7.95437"><ele>2212.4</ele><time>2024-08-09T12:18:02Z</time></trkpt>
<trkpt lat="46.0475" lon="7.95437"><ele>2212.6</ele><time>2024-08-09T12:18:04Z</time></trkpt>
<trkpt lat="46.04747" lon="7.95437"><ele>2212.8</ele><time>2024-08-09T12:18:07Z</time></trkpt>
<trkpt lat="46.04745" lon="7.95437"><ele>2212.8</ele><time>2024-08-09T12:18:09Z</time></trkpt>
<trkpt lat="46.04738" lon="7.9544"><ele>2213</ele><time>2024-08-09T12:18:14Z</time></trkpt>
<trkpt lat="46.04734" lon="7.95441"><ele>2213.6</ele><time>2024-08-09T12:18:16Z</time></trkpt>
<trkpt lat="46.04723" lon="7.95444"><ele>2214.6</ele><time>2024-08-09T12:18:22Z</time></trkpt>
<trkpt lat="46.04721" lon="7.95445"><ele>2214.8</ele><time>2024-08-09T12:18:23Z</time></trkpt>
<trkpt lat="46.04709" lon="7.95446"><ele>2216</ele><time>2024-08-09T12:18:29Z</time></trkpt>
<trkpt lat="46.04707" lon="7.95447"><ele>2216.4</ele><time>2024-08-09T12:18:30Z</time></trkpt>
<trkpt lat="46.04699" lon="7.95448"><ele>2217.2</ele><time>2024-08-09T12:18:34Z</time></trkpt>
<trkpt lat="46.04688" lon="7.95447"><ele>2217.4</ele><time>2024-08-09T12:18:39Z</time></trkpt>
<trkpt lat="46.04671" lon="7.95447"><ele>2217.8</ele><time>2024-08-09T12:18:47Z</time></trkpt>
<trkpt lat="46.04659" lon="7.95445"><ele>2218.2</ele><time>2024-08-09T12:18:52Z</time></trkpt>
<trkpt lat="46.04657" lon="7.95446"><ele>2218.2</ele><time>2024-08-09T12:18:53Z</time></trkpt>
<trkpt lat="46.04655" lon="7.95445"><ele>2218.4</ele><time>2024-08-09T12:18:54Z</time></trkpt>
<trkpt lat="46.04651" lon="7.95443"><ele>2218.6</ele><time>2024-08-09T12:18:59Z</time></trkpt>
<trkpt lat="46.04652" lon="7.95443"><ele>2218.6</ele><time>2024-08-09T12:19:05Z</time></trkpt>
<trkpt lat="46.04652" lon="7.95444"><ele>2218.6</ele><time>2024-08-09T12:19:08Z</time></trkpt>
<trkpt lat="46.04651" lon="7.95444"><ele>2218.6</ele><time>2024-08-09T12:19:12Z</time></trkpt>
<trkpt lat="46.0465" lon="7.95443"><ele>2218.6</ele><time>2024-08-09T12:19:13Z</time></trkpt>
<trkpt lat="46.04642" lon="7.95442"><ele>2218.8</ele><time>2024-08-09T12:19:17Z</time></trkpt>
<trkpt lat="46.04625" lon="7.95429"><ele>2218.6</ele><time>2024-08-09T12:19:23Z</time></trkpt>
<trkpt lat="46.0461" lon="7.95404"><ele>2219.2</ele><time>2024-08-09T12:19:30Z</time></trkpt>
<trkpt lat="46.04607" lon="7.95401"><ele>2219.4</ele><time>2024-08-09T12:19:31Z</time></trkpt>
<trkpt lat="46.04607" lon="7.95401"><ele>2219.4</ele><time>2024-08-09T12:19:31Z</time></trkpt>
<trkpt lat="46.04607" lon="7.95401"><ele>2219.4</ele><time>2024-08-09T12:19:31Z</time></trkpt>
<trkpt lat="46.04607" lon="7.95401"><ele>2219.4</ele><time>2024-08-09T12:19:31Z</time></trkpt>
<trkpt lat="46.04607" lon="7.95401"><ele>2219.4</ele><time>2024-08-09T12:19:31Z</time></trkpt>
<trkpt lat="46.04422" lon="7.95384"><ele>2224.4</ele><time>2024-08-09T12:20:30Z</time></trkpt>
<trkpt lat="46.04415" lon="7.95378"><ele>2224.6</ele><time>2024-08-09T12:20:31Z</time></trkpt>
<trkpt lat="46.044" lon="7.95384"><ele>2224.6</ele><time>2024-08-09T12:20:36Z</time></trkpt>
<trkpt lat="46.04396" lon="7.95382"><ele>2224.8</ele><time>2024-08-09T12:20:38Z</time></trkpt>
<trkpt lat="46.04392" lon="7.95381"><ele>2225.4</ele><time>2024-08-09T12:20:40Z</time></trkpt>
<trkpt lat="46.0439" lon="7.95381"><ele>2225.8</ele><time>2024-08-09T12:20:41Z</time></trkpt>
<trkpt lat="46.04383" lon="7.95376"><ele>2226.6</ele><time>2024-08-09T12:20:45Z</time></trkpt>
<trkpt lat="46.04379" lon="7.95375"><ele>2226.8</ele><time>2024-08-09T12:20:47Z</time></trkpt>
<trkpt lat="46.04374" lon="7.95372"><ele>2227.4</ele><time>2024-08-09T12:20:51Z</time></trkpt>
<trkpt lat="46.04366" lon="7.95371"><ele>2228</ele><time>2024-08-09T12:20:55Z</time></trkpt>
<trkpt lat="46.04361" lon="7.95371"><ele>2228.4</ele><time>2024-08-09T12:20:58Z</time></trkpt>
<trkpt lat="46.04356" lon="7.95371"><ele>2229.2</ele><time>2024-08-09T12:21:01Z</time></trkpt>
<trkpt lat="46.04347" lon="7.9537"><ele>2229.6</ele><time>2024-08-09T12:21:06Z</time></trkpt>
<trkpt lat="46.04343" lon="7.9537"><ele>2230.2</ele><time>2024-08-09T12:21:09Z</time></trkpt>
<trkpt lat="46.04334" lon="7.95367"><ele>2230.6</ele><time>2024-08-09T12:21:14Z</time></trkpt>
<trkpt lat="46.04324" lon="7.95362"><ele>2231.4</ele><time>2024-08-09T12:21:20Z</time></trkpt>
<trkpt lat="46.04319" lon="7.95362"><ele>2231.6</ele><time>2024-08-09T12:21:23Z</time></trkpt>
<trkpt lat="46.04308" lon="7.95363"><ele>2232.4</ele><time>2024-08-09T12:21:30Z</time></trkpt>
<trkpt lat="46.04307" lon="7.95363"><ele>2232.6</ele><time>2024-08-09T12:21:31Z</time></trkpt>
<trkpt lat="46.04297" lon="7.95366"><ele>2233.2</ele><time>2024-08-09T12:21:38Z</time></trkpt>
<trkpt lat="46.04294" lon="7.95367"><ele>2233.4</ele><time>2024-08-09T12:21:40Z</time></trkpt>
<trkpt lat="46.04289" lon="7.95371"><ele>2233.8</ele><time>2024-08-09T12:21:43Z</time></trkpt>
<trkpt lat="46.04277" lon="7.95378"><ele>2234.4</ele><time>2024-08-09T12:21:50Z</time></trkpt>
<trkpt lat="46.04269" lon="7.95383"><ele>2235.6</ele><time>2024-08-09T12:21:56Z</time></trkpt>
<trkpt lat="46.04263" lon="7.95387"><ele>2236.2</ele><time>2024-08-09T12:22:00Z</time></trkpt>
<trkpt lat="46.04256" lon="7.95386"><ele>2236.6</ele><time>2024-08-09T12:22:04Z</time></trkpt>
<trkpt lat="46.04249" lon="7.95383"><ele>2237.2</ele><time>2024-08-09T12:22:08Z</time></trkpt>
<trkpt lat="46.04241" lon="7.9538"><ele>2237.6</ele><time>2024-08-09T12:22:13Z</time></trkpt>
<trkpt lat="46.04234" lon="7.95377"><ele>2237.8</ele><time>2024-08-09T12:22:17Z</time></trkpt>
<trkpt lat="46.04222" lon="7.95372"><ele>2238.8</ele><time>2024-08-09T12:22:24Z</time></trkpt>
<trkpt lat="46.04217" lon="7.95371"><ele>2239</ele><time>2024-08-09T12:22:27Z</time></trkpt>
<trkpt lat="46.04207" lon="7.95368"><ele>2240</ele><time>2024-08-09T12:22:33Z</time></trkpt>
<trkpt lat="46.04202" lon="7.95366"><ele>2240.4</ele><time>2024-08-09T12:22:36Z</time></trkpt>
<trkpt lat="46.04194" lon="7.95365"><ele>2241</ele><time>2024-08-09T12:22:41Z</time></trkpt>
<trkpt lat="46.04189" lon="7.95363"><ele>2241.6</ele><time>2024-08-09T12:22:44Z</time></trkpt>
<trkpt lat="46.04186" lon="7.95363"><ele>2242</ele><time>2024-08-09T12:22:46Z</time></trkpt>
<trkpt lat="46.04178" lon="7.95363"><ele>2242.4</ele><time>2024-08-09T12:22:51Z</time></trkpt>
<trkpt lat="46.04166" lon="7.95364"><ele>2243</ele><time>2024-08-09T12:22:58Z</time></trkpt>
<trkpt lat="46.04162" lon="7.95366"><ele>2243.2</ele><time>2024-08-09T12:23:00Z</time></trkpt>
<trkpt lat="46.04154" lon="7.9537"><ele>2244.2</ele><time>2024-08-09T12:23:05Z</time></trkpt>
<trkpt lat="46.04152" lon="7.95371"><ele>2244.6</ele><time>2024-08-09T12:23:06Z</time></trkpt>
<trkpt lat="46.04147" lon="7.95372"><ele>2245.2</ele><time>2024-08-09T12:23:10Z</time></trkpt>
<trkpt lat="46.0414" lon="7.95374"><ele>2246</ele><time>2024-08-09T12:23:14Z</time></trkpt>
<trkpt lat="46.04139" lon="7.95374"><ele>2246.2</ele><time>2024-08-09T12:23:15Z</time></trkpt>
<trkpt lat="46.04134" lon="7.95375"><ele>2247</ele><time>2024-08-09T12:23:18Z</time></trkpt>
<trkpt lat="46.04129" lon="7.95376"><ele>2247.6</ele><time>2024-08-09T12:23:21Z</time></trkpt>
<trkpt lat="46.04123" lon="7.95378"><ele>2248.4</ele><time>2024-08-09T12:23:26Z</time></trkpt>
<trkpt lat="46.04121" lon="7.95379"><ele>2248.8</ele><time>2024-08-09T12:23:28Z</time></trkpt>
<trkpt lat="46.04117" lon="7.95382"><ele>2249.4</ele><time>2024-08-09T12:23:33Z</time></trkpt>
<trkpt lat="46.04106" lon="7.95385"><ele>2249.8</ele><time>2024-08-09T12:23:38Z</time></trkpt>
<trkpt lat="46.0409" lon="7.95398"><ele>2247.4</ele><time>2024-08-09T12:23:43Z</time></trkpt>
<trkpt lat="46.04088" lon="7.95402"><ele>2247</ele><time>2024-08-09T12:23:44Z</time></trkpt>
<trkpt lat="46.04084" lon="7.95408"><ele>2246.2</ele><time>2024-08-09T12:23:47Z</time></trkpt>
<trkpt lat="46.04082" lon="7.95411"><ele>2245.6</ele><time>2024-08-09T12:23:49Z</time></trkpt>
<trkpt lat="46.0408" lon="7.95414"><ele>2245.2</ele><time>2024-08-09T12:23:53Z</time></trkpt>
<trkpt lat="46.0408" lon="7.95414"><ele>2245.2</ele><time>2024-08-09T12:23:54Z</time></trkpt>
<trkpt lat="46.04081" lon="7.95414"><ele>2245</ele><time>2024-08-09T12:23:59Z</time></trkpt>
<trkpt lat="46.04081" lon="7.95414"><ele>2245</ele><time>2024-08-09T12:24:00Z</time></trkpt>
<trkpt lat="46.04077" lon="7.95419"><ele>2245</ele><time>2024-08-09T12:24:07Z</time></trkpt>
<trkpt lat="46.04071" lon="7.95423"><ele>2245</ele><time>2024-08-09T12:24:12Z</time></trkpt>
<trkpt lat="46.04069" lon="7.95428"><ele>2245</ele><time>2024-08-09T12:24:17Z</time></trkpt>
<trkpt lat="46.04059" lon="7.95435"><ele>2244.8</ele><time>2024-08-09T12:24:22Z</time></trkpt>
<trkpt lat="46.0405" lon="7.95435"><ele>2244.6</ele><time>2024-08-09T12:24:26Z</time></trkpt>
<trkpt lat="46.0404" lon="7.95431"><ele>2244.4</ele><time>2024-08-09T12:24:30Z</time></trkpt>
<trkpt lat="46.04038" lon="7.95429"><ele>2244.2</ele><time>2024-08-09T12:24:31Z</time></trkpt>
<trkpt lat="46.04029" lon="7.95425"><ele>2244</ele><time>2024-08-09T12:24:34Z</time></trkpt>
<trkpt lat="46.04027" lon="7.95425"><ele>2244</ele><time>2024-08-09T12:24:35Z</time></trkpt>
<trkpt lat="46.04025" lon="7.95426"><ele>2244</ele><time>2024-08-09T12:24:36Z</time></trkpt>
<trkpt lat="46.0402" lon="7.95427"><ele>2243.6</ele><time>2024-08-09T12:24:39Z</time></trkpt>
<trkpt lat="46.0401" lon="7.95424"><ele>2243</ele><time>2024-08-09T12:24:45Z</time></trkpt>
<trkpt lat="46.04008" lon="7.95423"><ele>2243</ele><time>2024-08-09T12:24:46Z</time></trkpt>
<trkpt lat="46.04008" lon="7.95423"><ele>2243</ele><time>2024-08-09T12:24:46Z</time></trkpt>
<trkpt lat="46.04008" lon="7.95423"><ele>2243</ele><time>2024-08-09T12:24:46Z</time></trkpt>
<trkpt lat="46.04008" lon="7.95423"><ele>2243</ele><time>2024-08-09T12:24:46Z</time></trkpt>
<trkpt lat="46.03887" lon="7.95402"><ele>2240.4</ele><time>2024-08-09T12:25:38Z</time></trkpt>
<trkpt lat="46.03875" lon="7.95411"><ele>2240.4</ele><time>2024-08-09T12:25:39Z</time></trkpt>
<trkpt lat="46.03855" lon="7.95432"><ele>2240</ele><time>2024-08-09T12:25:42Z</time></trkpt>
<trkpt lat="46.03852" lon="7.95433"><ele>2239.6</ele><time>2024-08-09T12:25:43Z</time></trkpt>
<trkpt lat="46.03844" lon="7.95435"><ele>2239</ele><time>2024-08-09T12:25:46Z</time></trkpt>
<trkpt lat="46.03838" lon="7.95439"><ele>2238.6</ele><time>2024-08-09T12:25:48Z</time></trkpt>
<trkpt lat="46.0383" lon="7.95452"><ele>2237.8</ele><time>2024-08-09T12:25:52Z</time></trkpt>
<trkpt lat="46.03825" lon="7.95457"><ele>2237.8</ele><time>2024-08-09T12:25:54Z</time></trkpt>
<trkpt lat="46.03823" lon="7.95458"><ele>2237.8</ele><time>2024-08-09T12:25:55Z</time></trkpt>
<trkpt lat="46.0382" lon="7.95459"><ele>2237.8</ele><time>2024-08-09T12:25:56Z</time></trkpt>
<trkpt lat="46.03817" lon="7.9546"><ele>2237.8</ele><time>2024-08-09T12:25:57Z</time></trkpt>
<trkpt lat="46.03805" lon="7.95459"><ele>2238.2</ele><time>2024-08-09T12:26:02Z</time></trkpt>
<trkpt lat="46.03797" lon="7.95455"><ele>2238.4</ele><time>2024-08-09T12:26:08Z</time></trkpt>
<trkpt lat="46.03788" lon="7.95456"><ele>2238.4</ele><time>2024-08-09T12:26:12Z</time></trkpt>
<trkpt lat="46.03774" lon="7.9546"><ele>2239</ele><time>2024-08-09T12:26:17Z</time></trkpt>
<trkpt lat="46.03772" lon="7.95462"><ele>2239</ele><time>2024-08-09T12:26:18Z</time></trkpt>
<trkpt lat="46.03764" lon="7.95465"><ele>2239.4</ele><time>2024-08-09T12:26:21Z</time></trkpt>
<trkpt lat="46.03754" lon="7.95468"><ele>2239.4</ele><time>2024-08-09T12:26:24Z</time></trkpt>
<trkpt lat="46.03744" lon="7.9548"><ele>2239.4</ele><time>2024-08-09T12:26:28Z</time></trkpt>
<trkpt lat="46.03734" lon="7.95492"><ele>2239.6</ele><time>2024-08-09T12:26:32Z</time></trkpt>
<trkpt lat="46.03717" lon="7.9549"><ele>2239.6</ele><time>2024-08-09T12:26:38Z</time></trkpt>
<trkpt lat="46.03709" lon="7.95493"><ele>2239.8</ele><time>2024-08-09T12:26:41Z</time></trkpt>
<trkpt lat="46.03704" lon="7.95496"><ele>2240</ele><time>2024-08-09T12:26:43Z</time></trkpt>
<trkpt lat="46.03701" lon="7.95497"><ele>2240.4</ele><time>2024-08-09T12:26:44Z</time></trkpt>
<trkpt lat="46.03681" lon="7.95505"><ele>2240.8</ele><time>2024-08-09T12:26:50Z</time></trkpt>
<trkpt lat="46.03678" lon="7.95507"><ele>2240.8</ele><time>2024-08-09T12:26:51Z</time></trkpt>
<trkpt lat="46.03668" lon="7.95512"><ele>2241.2</ele><time>2024-08-09T12:26:54Z</time></trkpt>
<trkpt lat="46.03661" lon="7.95511"><ele>2241.8</ele><time>2024-08-09T12:26:57Z</time></trkpt>
<trkpt lat="46.03647" lon="7.95497"><ele>2242</ele><time>2024-08-09T12:27:03Z</time></trkpt>
<trkpt lat="46.03637" lon="7.95489"><ele>2242.2</ele><time>2024-08-09T12:27:07Z</time></trkpt>
<trkpt lat="46.03632" lon="7.95486"><ele>2242.4</ele><time>2024-08-09T12:27:09Z</time></trkpt>
<trkpt lat="46.03619" lon="7.95471"><ele>2242.6</ele><time>2024-08-09T12:27:14Z</time></trkpt>
<trkpt lat="46.03615" lon="7.95458"><ele>2243.2</ele><time>2024-08-09T12:27:17Z</time></trkpt>
<trkpt lat="46.03611" lon="7.95448"><ele>2243.4</ele><time>2024-08-09T12:27:19Z</time></trkpt>
<trkpt lat="46.03607" lon="7.95439"><ele>2243</ele><time>2024-08-09T12:27:21Z</time></trkpt>
<trkpt lat="46.03593" lon="7.95431"><ele>2243</ele><time>2024-08-09T12:27:25Z</time></trkpt>
<trkpt lat="46.03567" lon="7.95421"><ele>2243.8</ele><time>2024-08-09T12:27:31Z</time></trkpt>
<trkpt lat="46.03541" lon="7.95416"><ele>2244.4</ele><time>2024-08-09T12:27:37Z</time></trkpt>
<trkpt lat="46.03507" lon="7.95423"><ele>2244</ele><time>2024-08-09T12:27:45Z</time></trkpt>
<trkpt lat="46.03491" lon="7.9543"><ele>2243.8</ele><time>2024-08-09T12:27:49Z</time></trkpt>
<trkpt lat="46.03484" lon="7.95435"><ele>2243.8</ele><time>2024-08-09T12:27:51Z</time></trkpt>
<trkpt lat="46.0346" lon="7.95451"><ele>2243.4</ele><time>2024-08-09T12:27:57Z</time></trkpt>
<trkpt lat="46.03456" lon="7.95454"><ele>2243.2</ele><time>2024-08-09T12:27:58Z</time></trkpt>
<trkpt lat="46.03437" lon="7.95469"><ele>2242.8</ele><time>2024-08-09T12:28:02Z</time></trkpt>
<trkpt lat="46.03433" lon="7.95474"><ele>2242.4</ele><time>2024-08-09T12:28:03Z</time></trkpt>
<trkpt lat="46.03429" lon="7.9548"><ele>2242.4</ele><time>2024-08-09T12:28:04Z</time></trkpt>
<trkpt lat="46.03426" lon="7.95487"><ele>2242.2</ele><time>2024-08-09T12:28:05Z</time></trkpt>
<trkpt lat="46.0342" lon="7.95497"><ele>2242</ele><time>2024-08-09T12:28:07Z</time></trkpt>
<trkpt lat="46.03418" lon="7.95501"><ele>2241.8</ele><time>2024-08-09T12:28:08Z</time></trkpt>
<trkpt lat="46.03409" lon="7.95514"><ele>2242</ele><time>2024-08-09T12:28:11Z</time></trkpt>
<trkpt lat="46.03402" lon="7.9552"><ele>2242</ele><time>2024-08-09T12:28:13Z</time></trkpt>
<trkpt lat="46.0338" lon="7.95541"><ele>2241.6</ele><time>2024-08-09T12:28:18Z</time></trkpt>
<trkpt lat="46.03377" lon="7.95548"><ele>2241.4</ele><time>2024-08-09T12:28:19Z</time></trkpt>
<trkpt lat="46.03374" lon="7.95557"><ele>2241.4</ele><time>2024-08-09T12:28:20Z</time></trkpt>
<trkpt lat="46.03365" lon="7.9557"><ele>2241.4</ele><time>2024-08-09T12:28:22Z</time></trkpt>
<trkpt lat="46.03352" lon="7.95568"><ele>2241.4</ele><time>2024-08-09T12:28:24Z</time></trkpt>
<trkpt lat="46.0334" lon="7.95568"><ele>2241.4</ele><time>2024-08-09T12:28:26Z</time></trkpt>
<trkpt lat="46.03335" lon="7.95573"><ele>2241.4</ele><time>2024-08-09T12:28:27Z</time></trkpt>
<trkpt lat="46.03332" lon="7.95579"><ele>2241.4</ele><time>2024-08-09T12:28:28Z</time></trkpt>
<trkpt lat="46.03323" lon="7.95599"><ele>2241.6</ele><time>2024-08-09T12:28:31Z</time></trkpt>
<trkpt lat="46.03313" lon="7.95622"><ele>2241.8</ele><time>2024-08-09T12:28:35Z</time></trkpt>
<trkpt lat="46.0331" lon="7.95635"><ele>2242</ele><time>2024-08-09T12:28:37Z</time></trkpt>
<trkpt lat="46.03305" lon="7.95648"><ele>2242</ele><time>2024-08-09T12:28:40Z</time></trkpt>
<trkpt lat="46.03302" lon="7.95651"><ele>2242.2</ele><time>2024-08-09T12:28:41Z</time></trkpt>
<trkpt lat="46.03285" lon="7.95673"><ele>2242.2</ele><time>2024-08-09T12:28:47Z</time></trkpt>
<trkpt lat="46.03268" lon="7.95686"><ele>2242.2</ele><time>2024-08-09T12:28:52Z</time></trkpt>
<trkpt lat="46.03238" lon="7.95701"><ele>2242.2</ele><time>2024-08-09T12:29:01Z</time></trkpt>
<trkpt lat="46.03217" lon="7.95711"><ele>2241.6</ele><time>2024-08-09T12:29:07Z</time></trkpt>
<trkpt lat="46.03214" lon="7.95714"><ele>2241.6</ele><time>2024-08-09T12:29:08Z</time></trkpt>
<trkpt lat="46.03203" lon="7.95723"><ele>2241.6</ele><time>2024-08-09T12:29:11Z</time></trkpt>
<trkpt lat="46.03195" lon="7.95735"><ele>2241.8</ele><time>2024-08-09T12:29:13Z</time></trkpt>
<trkpt lat="46.03186" lon="7.95746"><ele>2241.8</ele><time>2024-08-09T12:29:15Z</time></trkpt>
<trkpt lat="46.03178" lon="7.95752"><ele>2242</ele><time>2024-08-09T12:29:17Z</time></trkpt>
<trkpt lat="46.03157" lon="7.95761"><ele>2242.2</ele><time>2024-08-09T12:29:23Z</time></trkpt>
<trkpt lat="46.03143" lon="7.95768"><ele>2242.2</ele><time>2024-08-09T12:29:27Z</time></trkpt>
<trkpt lat="46.0313" lon="7.95778"><ele>2242.2</ele><time>2024-08-09T12:29:31Z</time></trkpt>
<trkpt lat="46.0311" lon="7.95788"><ele>2242.2</ele><time>2024-08-09T12:29:37Z</time></trkpt>
<trkpt lat="46.03088" lon="7.958"><ele>2242.2</ele><time>2024-08-09T12:29:48Z</time></trkpt>
<trkpt lat="46.03076" lon="7.95807"><ele>2242.2</ele><time>2024-08-09T12:29:55Z</time></trkpt>
<trkpt lat="46.03064" lon="7.95811"><ele>2242</ele><time>2024-08-09T12:30:00Z</time></trkpt>
<trkpt lat="46.03049" lon="7.95818"><ele>2242</ele><time>2024-08-09T12:30:05Z</time></trkpt>
<trkpt lat="46.0303" lon="7.95825"><ele>2241.8</ele><time>2024-08-09T12:30:11Z</time></trkpt>
<trkpt lat="46.03023" lon="7.95828"><ele>2241.8</ele><time>2024-08-09T12:30:13Z</time></trkpt>
<trkpt lat="46.03012" lon="7.95831"><ele>2241.6</ele><time>2024-08-09T12:30:16Z</time></trkpt>
<trkpt lat="46.03002" lon="7.95839"><ele>2241.6</ele><time>2024-08-09T12:30:19Z</time></trkpt>
<trkpt lat="46.02981" lon="7.95853"><ele>2242</ele><time>2024-08-09T12:30:25Z</time></trkpt>
<trkpt lat="46.02978" lon="7.95855"><ele>2242.2</ele><time>2024-08-09T12:30:26Z</time></trkpt>
<trkpt lat="46.0296" lon="7.95861"><ele>2242</ele><time>2024-08-09T12:30:32Z</time></trkpt>
<trkpt lat="46.02939" lon="7.95867"><ele>2242</ele><time>2024-08-09T12:30:36Z</time></trkpt>
<trkpt lat="46.02898" lon="7.95881"><ele>2241.6</ele><time>2024-08-09T12:30:42Z</time></trkpt>
<trkpt lat="46.02883" lon="7.95887"><ele>2241.8</ele><time>2024-08-09T12:30:44Z</time></trkpt>
<trkpt lat="46.02862" lon="7.95896"><ele>2241.8</ele><time>2024-08-09T12:30:47Z</time></trkpt>
<trkpt lat="46.02842" lon="7.95906"><ele>2241.8</ele><time>2024-08-09T12:30:50Z</time></trkpt>
<trkpt lat="46.02812" lon="7.95933"><ele>2241.4</ele><time>2024-08-09T12:30:55Z</time></trkpt>
<trkpt lat="46.02803" lon="7.95947"><ele>2241.4</ele><time>2024-08-09T12:30:57Z</time></trkpt>
<trkpt lat="46.02797" lon="7.9596"><ele>2241.6</ele><time>2024-08-09T12:30:59Z</time></trkpt>
<trkpt lat="46.02793" lon="7.95966"><ele>2242.2</ele><time>2024-08-09T12:31:00Z</time></trkpt>
<trkpt lat="46.02784" lon="7.95973"><ele>2242.4</ele><time>2024-08-09T12:31:02Z</time></trkpt>
<trkpt lat="46.02778" lon="7.95975"><ele>2242.6</ele><time>2024-08-09T12:31:03Z</time></trkpt>
<trkpt lat="46.02741" lon="7.95995"><ele>2242.4</ele><time>2024-08-09T12:31:10Z</time></trkpt>
<trkpt lat="46.02705" lon="7.96015"><ele>2242.6</ele><time>2024-08-09T12:31:16Z</time></trkpt>
<trkpt lat="46.02698" lon="7.96016"><ele>2242.6</ele><time>2024-08-09T12:31:17Z</time></trkpt>
<trkpt lat="46.02685" lon="7.96023"><ele>2242.6</ele><time>2024-08-09T12:31:19Z</time></trkpt>
<trkpt lat="46.02674" lon="7.96031"><ele>2242.2</ele><time>2024-08-09T12:31:21Z</time></trkpt>
<trkpt lat="46.02652" lon="7.96044"><ele>2243.4</ele><time>2024-08-09T12:31:26Z</time></trkpt>
<trkpt lat="46.02634" lon="7.96047"><ele>2244</ele><time>2024-08-09T12:31:31Z</time></trkpt>
<trkpt lat="46.02626" lon="7.96051"><ele>2244</ele><time>2024-08-09T12:31:34Z</time></trkpt>
<trkpt lat="46.02613" lon="7.96056"><ele>2244.2</ele><time>2024-08-09T12:31:38Z</time></trkpt>
<trkpt lat="46.02607" lon="7.96059"><ele>2244.4</ele><time>2024-08-09T12:31:40Z</time></trkpt>
<trkpt lat="46.0259" lon="7.96074"><ele>2244.4</ele><time>2024-08-09T12:31:46Z</time></trkpt>
<trkpt lat="46.02582" lon="7.96089"><ele>2244.6</ele><time>2024-08-09T12:31:51Z</time></trkpt>
<trkpt lat="46.02579" lon="7.96094"><ele>2244.8</ele><time>2024-08-09T12:31:53Z</time></trkpt>
<trkpt lat="46.02567" lon="7.96102"><ele>2245.2</ele><time>2024-08-09T12:31:58Z</time></trkpt>
<trkpt lat="46.02554" lon="7.96101"><ele>2245</ele><time>2024-08-09T12:32:03Z</time></trkpt>
<trkpt lat="46.02544" lon="7.96102"><ele>2244.8</ele><time>2024-08-09T12:32:06Z</time></trkpt>
<trkpt lat="46.02533" lon="7.96106"><ele>2244.4</ele><time>2024-08-09T12:32:09Z</time></trkpt>
<trkpt lat="46.02508" lon="7.96113"><ele>2244.2</ele><time>2024-08-09T12:32:15Z</time></trkpt>
<trkpt lat="46.02487" lon="7.96126"><ele>2243.8</ele><time>2024-08-09T12:32:21Z</time></trkpt>
<trkpt lat="46.0248" lon="7.96135"><ele>2243.6</ele><time>2024-08-09T12:32:23Z</time></trkpt>
<trkpt lat="46.02476" lon="7.96139"><ele>2243.6</ele><time>2024-08-09T12:32:24Z</time></trkpt>
<trkpt lat="46.02467" lon="7.96144"><ele>2243.4</ele><time>2024-08-09T12:32:26Z</time></trkpt>
<trkpt lat="46.02462" lon="7.96147"><ele>2243.4</ele><time>2024-08-09T12:32:27Z</time></trkpt>
<trkpt lat="46.02434" lon="7.96163"><ele>2242.2</ele><time>2024-08-09T12:32:32Z</time></trkpt>
<trkpt lat="46.02427" lon="7.96165"><ele>2242.2</ele><time>2024-08-09T12:32:33Z</time></trkpt>
<trkpt lat="46.02408" lon="7.96176"><ele>2241.6</ele><time>2024-08-09T12:32:36Z</time></trkpt>
<trkpt lat="46.02396" lon="7.96187"><ele>2241.2</ele><time>2024-08-09T12:32:38Z</time></trkpt>
<trkpt lat="46.02357" lon="7.96215"><ele>2240.6</ele><time>2024-08-09T12:32:44Z</time></trkpt>
<trkpt lat="46.02342" lon="7.96221"><ele>2240.2</ele><time>2024-08-09T12:32:46Z</time></trkpt>
<trkpt lat="46.02319" lon="7.96228"><ele>2239.8</ele><time>2024-08-09T12:32:49Z</time></trkpt>
<trkpt lat="46.0231" lon="7.96229"><ele>2239.6</ele><time>2024-08-09T12:32:50Z</time></trkpt>
<trkpt lat="46.02302" lon="7.96233"><ele>2239.4</ele><time>2024-08-09T12:32:51Z</time></trkpt>
<trkpt lat="46.02286" lon="7.96243"><ele>2239</ele><time>2024-08-09T12:32:53Z</time></trkpt>
<trkpt lat="46.02237" lon="7.96272"><ele>2238</ele><time>2024-08-09T12:32:59Z</time></trkpt>
<trkpt lat="46.02229" lon="7.96276"><ele>2237.8</ele><time>2024-08-09T12:33:00Z</time></trkpt>
<trkpt lat="46.02222" lon="7.96281"><ele>2237.8</ele><time>2024-08-09T12:33:01Z</time></trkpt>
<trkpt lat="46.02211" lon="7.96291"><ele>2237.6</ele><time>2024-08-09T12:33:03Z</time></trkpt>
<trkpt lat="46.02201" lon="7.96299"><ele>2237.2</ele><time>2024-08-09T12:33:05Z</time></trkpt>
<trkpt lat="46.02191" lon="7.96305"><ele>2237.2</ele><time>2024-08-09T12:33:07Z</time></trkpt>
<trkpt lat="46.02165" lon="7.96318"><ele>2236.8</ele><time>2024-08-09T12:33:13Z</time></trkpt>
<trkpt lat="46.02161" lon="7.96321"><ele>2236.8</ele><time>2024-08-09T12:33:14Z</time></trkpt>
<trkpt lat="46.02151" lon="7.96324"><ele>2236.4</ele><time>2024-08-09T12:33:16Z</time></trkpt>
<trkpt lat="46.02142" lon="7.96322"><ele>2236.4</ele><time>2024-08-09T12:33:18Z</time></trkpt>
<trkpt lat="46.02124" lon="7.96317"><ele>2236.4</ele><time>2024-08-09T12:33:24Z</time></trkpt>
<trkpt lat="46.02107" lon="7.96316"><ele>2236.6</ele><time>2024-08-09T12:33:32Z</time></trkpt>
<trkpt lat="46.02097" lon="7.96316"><ele>2236.6</ele><time>2024-08-09T12:33:38Z</time></trkpt>
<trkpt lat="46.0208" lon="7.96314"><ele>2236</ele><time>2024-08-09T12:33:47Z</time></trkpt>
<trkpt lat="46.02072" lon="7.96314"><ele>2235.8</ele><time>2024-08-09T12:33:51Z</time></trkpt>
<trkpt lat="46.02066" lon="7.96312"><ele>2235.6</ele><time>2024-08-09T12:33:54Z</time></trkpt>
<trkpt lat="46.02064" lon="7.96312"><ele>2235.6</ele><time>2024-08-09T12:33:55Z</time></trkpt>
<trkpt lat="46.0206" lon="7.96312"><ele>2235.6</ele><time>2024-08-09T12:33:57Z</time></trkpt>
<trkpt lat="46.02051" lon="7.96316"><ele>2235</ele><time>2024-08-09T12:34:03Z</time></trkpt>
<trkpt lat="46.02042" lon="7.96328"><ele>2234.8</ele><time>2024-08-09T12:34:09Z</time></trkpt>
<trkpt lat="46.02041" lon="7.96331"><ele>2234.8</ele><time>2024-08-09T12:34:10Z</time></trkpt>
<trkpt lat="46.02033" lon="7.96339"><ele>2234.6</ele><time>2024-08-09T12:34:14Z</time></trkpt>
<trkpt lat="46.02017" lon="7.96349"><ele>2234.2</ele><time>2024-08-09T12:34:20Z</time></trkpt>
<trkpt lat="46.01998" lon="7.96361"><ele>2233.6</ele><time>2024-08-09T12:34:26Z</time></trkpt>
<trkpt lat="46.01995" lon="7.96365"><ele>2233.6</ele><time>2024-08-09T12:34:27Z</time></trkpt>
<trkpt lat="46.0197" lon="7.96382"><ele>2232.8</ele><time>2024-08-09T12:34:35Z</time></trkpt>
<trkpt lat="46.01959" lon="7.96389"><ele>2232.6</ele><time>2024-08-09T12:34:39Z</time></trkpt>
<trkpt lat="46.01954" lon="7.96395"><ele>2232.2</ele><time>2024-08-09T12:34:42Z</time></trkpt>
<trkpt lat="46.01952" lon="7.96397"><ele>2232.2</ele><time>2024-08-09T12:34:43Z</time></trkpt>
<trkpt lat="46.01951" lon="7.964"><ele>2232</ele><time>2024-08-09T12:34:44Z</time></trkpt>
<trkpt lat="46.01949" lon="7.96404"><ele>2232</ele><time>2024-08-09T12:34:46Z</time></trkpt>
<trkpt lat="46.01947" lon="7.96407"><ele>2232.2</ele><time>2024-08-09T12:34:48Z</time></trkpt>
<trkpt lat="46.01942" lon="7.96421"><ele>2232.2</ele><time>2024-08-09T12:34:55Z</time></trkpt>
<trkpt lat="46.01942" lon="7.96424"><ele>2232.2</ele><time>2024-08-09T12:34:56Z</time></trkpt>
<trkpt lat="46.01944" lon="7.96432"><ele>2231.8</ele><time>2024-08-09T12:35:00Z</time></trkpt>
<trkpt lat="46.01949" lon="7.96438"><ele>2231.8</ele><time>2024-08-09T12:35:05Z</time></trkpt>
<trkpt lat="46.01949" lon="7.96439"><ele>2231.8</ele><time>2024-08-09T12:35:06Z</time></trkpt>
<trkpt lat="46.01953" lon="7.96447"><ele>2232</ele><time>2024-08-09T12:35:13Z</time></trkpt>
<trkpt lat="46.01955" lon="7.96452"><ele>2231.8</ele><time>2024-08-09T12:35:18Z</time></trkpt>
<trkpt lat="46.0196" lon="7.96456"><ele>2231.8</ele><time>2024-08-09T12:35:23Z</time></trkpt>
<trkpt lat="46.0196" lon="7.96457"><ele>2231.6</ele><time>2024-08-09T12:35:24Z</time></trkpt>
<trkpt lat="46.01961" lon="7.96457"><ele>2231.6</ele><time>2024-08-09T12:35:28Z</time></trkpt>
<trkpt lat="46.01961" lon="7.96455"><ele>2231.6</ele><time>2024-08-09T12:35:34Z</time></trkpt>
<trkpt lat="46.01961" lon="7.96455"><ele>2231.8</ele><time>2024-08-09T12:35:41Z</time></trkpt>
<trkpt lat="46.0196" lon="7.96455"><ele>2231.6</ele><time>2024-08-09T12:35:47Z</time></trkpt>
<trkpt lat="46.01953" lon="7.96451"><ele>2231.6</ele><time>2024-08-09T12:35:54Z</time></trkpt>
<trkpt lat="46.01946" lon="7.96453"><ele>2232.2</ele><time>2024-08-09T12:36:02Z</time></trkpt>
<trkpt lat="46.01944" lon="7.96456"><ele>2232.6</ele><time>2024-08-09T12:36:06Z</time></trkpt>
<trkpt lat="46.01942" lon="7.96457"><ele>2233</ele><time>2024-08-09T12:36:09Z</time></trkpt>
<trkpt lat="46.01938" lon="7.9646"><ele>2233.8</ele><time>2024-08-09T12:36:13Z</time></trkpt>
<trkpt lat="46.01938" lon="7.96461"><ele>2233.8</ele><time>2024-08-09T12:36:15Z</time></trkpt>
<trkpt lat="46.01933" lon="7.96462"><ele>2234.6</ele><time>2024-08-09T12:36:20Z</time></trkpt>
<trkpt lat="46.01933" lon="7.96462"><ele>2234.8</ele><time>2024-08-09T12:36:21Z</time></trkpt>
<trkpt lat="46.01932" lon="7.96462"><ele>2235</ele><time>2024-08-09T12:36:23Z</time></trkpt>
<trkpt lat="46.01932" lon="7.96462"><ele>2235</ele><time>2024-08-09T12:36:24Z</time></trkpt>
<trkpt lat="46.01931" lon="7.96462"><ele>2235</ele><time>2024-08-09T12:36:25Z</time></trkpt>
<trkpt lat="46.01931" lon="7.9646"><ele>2235</ele><time>2024-08-09T12:36:29Z</time></trkpt>
<trkpt lat="46.01927" lon="7.96458"><ele>2235.4</ele><time>2024-08-09T12:36:36Z</time></trkpt>
<trkpt lat="46.01926" lon="7.96459"><ele>2235.6</ele><time>2024-08-09T12:36:37Z</time></trkpt>
<trkpt lat="46.01925" lon="7.96459"><ele>2236</ele><time>2024-08-09T12:36:40Z</time></trkpt>
<trkpt lat="46.01924" lon="7.9646"><ele>2236.2</ele><time>2024-08-09T12:36:42Z</time></trkpt>
<trkpt lat="46.0192" lon="7.96461"><ele>2237</ele><time>2024-08-09T12:36:48Z</time></trkpt>
<trkpt lat="46.01918" lon="7.96461"><ele>2237</ele><time>2024-08-09T12:36:50Z</time></trkpt>
<trkpt lat="46.01913" lon="7.96463"><ele>2237.6</ele><time>2024-08-09T12:36:56Z</time></trkpt>
<trkpt lat="46.01913" lon="7.96463"><ele>2237.6</ele><time>2024-08-09T12:36:57Z</time></trkpt>
<trkpt lat="46.01912" lon="7.96464"><ele>2238</ele><time>2024-08-09T12:36:59Z</time></trkpt>
<trkpt lat="46.01909" lon="7.96466"><ele>2238.8</ele><time>2024-08-09T12:37:04Z</time></trkpt>
<trkpt lat="46.01907" lon="7.96468"><ele>2239</ele><time>2024-08-09T12:37:06Z</time></trkpt>
<trkpt lat="46.01907" lon="7.96469"><ele>2239.4</ele><time>2024-08-09T12:37:10Z</time></trkpt>
<trkpt lat="46.01905" lon="7.9647"><ele>2239.6</ele><time>2024-08-09T12:37:12Z</time></trkpt>
<trkpt lat="46.01904" lon="7.96468"><ele>2240.2</ele><time>2024-08-09T12:37:15Z</time></trkpt>
<trkpt lat="46.01904" lon="7.96461"><ele>2240.6</ele><time>2024-08-09T12:37:21Z</time></trkpt>
<trkpt lat="46.01903" lon="7.96458"><ele>2241.2</ele><time>2024-08-09T12:37:25Z</time></trkpt>
<trkpt lat="46.01901" lon="7.96457"><ele>2242.2</ele><time>2024-08-09T12:37:29Z</time></trkpt>
<trkpt lat="46.019" lon="7.96454"><ele>2242.6</ele><time>2024-08-09T12:37:33Z</time></trkpt>
<trkpt lat="46.01899" lon="7.96454"><ele>2242.6</ele><time>2024-08-09T12:37:36Z</time></trkpt>
<trkpt lat="46.01896" lon="7.96458"><ele>2243</ele><time>2024-08-09T12:37:44Z</time></trkpt>
<trkpt lat="46.01895" lon="7.96458"><ele>2243.2</ele><time>2024-08-09T12:37:45Z</time></trkpt>
<trkpt lat="46.01893" lon="7.96459"><ele>2243.8</ele><time>2024-08-09T12:37:47Z</time></trkpt>
<trkpt lat="46.0189" lon="7.96462"><ele>2244</ele><time>2024-08-09T12:37:51Z</time></trkpt>
<trkpt lat="46.01887" lon="7.96463"><ele>2244.4</ele><time>2024-08-09T12:37:54Z</time></trkpt>
<trkpt lat="46.01886" lon="7.96467"><ele>2244.8</ele><time>2024-08-09T12:37:58Z</time></trkpt>
<trkpt lat="46.01884" lon="7.9647"><ele>2245.4</ele><time>2024-08-09T12:38:01Z</time></trkpt>
<trkpt lat="46.01882" lon="7.96472"><ele>2245.8</ele><time>2024-08-09T12:38:06Z</time></trkpt>
<trkpt lat="46.01882" lon="7.96474"><ele>2246</ele><time>2024-08-09T12:38:13Z</time></trkpt>
<trkpt lat="46.01882" lon="7.96474"><ele>2246.4</ele><time>2024-08-09T12:38:17Z</time></trkpt>
<trkpt lat="46.01883" lon="7.96473"><ele>2246.6</ele><time>2024-08-09T12:38:20Z</time></trkpt>
<trkpt lat="46.01882" lon="7.96473"><ele>2246.6</ele><time>2024-08-09T12:38:26Z</time></trkpt>
<trkpt lat="46.01882" lon="7.96474"><ele>2246.4</ele><time>2024-08-09T12:38:31Z</time></trkpt>
<trkpt lat="46.01883" lon="7.96473"><ele>2246</ele><time>2024-08-09T12:38:40Z</time></trkpt>
<trkpt lat="46.01883" lon="7.96474"><ele>2245.8</ele><time>2024-08-09T12:38:45Z</time></trkpt>
<trkpt lat="46.01883" lon="7.96475"><ele>2245.8</ele><time>2024-08-09T12:38:47Z</time></trkpt>
<trkpt lat="46.01884" lon="7.96474"><ele>2245.8</ele><time>2024-08-09T12:38:56Z</time></trkpt>
<trkpt lat="46.01884" lon="7.96475"><ele>2245.8</ele><time>2024-08-09T12:38:58Z</time></trkpt>
<trkpt lat="46.01883" lon="7.96475"><ele>2246</ele><time>2024-08-09T12:39:00Z</time></trkpt>
<trkpt lat="46.01883" lon="7.96475"><ele>2246</ele><time>2024-08-09T12:39:01Z</time></trkpt>
<trkpt lat="46.01882" lon="7.96475"><ele>2246</ele><time>2024-08-09T12:39:03Z</time></trkpt>
<trkpt lat="46.01882" lon="7.96475"><ele>2246</ele><time>2024-08-09T12:39:05Z</time></trkpt>
<trkpt lat="46.01882" lon="7.96473"><ele>2246</ele><time>2024-08-09T12:39:15Z</time></trkpt>
<trkpt lat="46.01882" lon="7.96473"><ele>2246</ele><time>2024-08-09T12:39:24Z</time></trkpt>
<trkpt lat="46.01882" lon="7.96473"><ele>2246.2</ele><time>2024-08-09T12:39:30Z</time></trkpt>
<trkpt lat="46.01882" lon="7.96473"><ele>2246.2</ele><time>2024-08-09T12:39:32Z</time></trkpt>
<trkpt lat="46.01882" lon="7.96471"><ele>2246.2</ele><time>2024-08-09T12:39:41Z</time></trkpt>
<trkpt lat="46.01881" lon="7.96473"><ele>2246.2</ele><time>2024-08-09T12:39:49Z</time></trkpt>
<trkpt lat="46.01883" lon="7.96475"><ele>2246.2</ele><time>2024-08-09T12:39:55Z</time></trkpt>
<trkpt lat="46.01884" lon="7.96475"><ele>2246.2</ele><time>2024-08-09T12:39:57Z</time></trkpt>
<trkpt lat="46.01884" lon="7.96475"><ele>2246.2</ele><time>2024-08-09T12:39:58Z</time></trkpt>
<trkpt lat="46.01884" lon="7.96475"><ele>2246.2</ele><time>2024-08-09T12:39:59Z</time></trkpt>
<trkpt lat="46.01884" lon="7.96475"><ele>2246.2</ele><time>2024-08-09T12:40:00Z</time></trkpt>
<trkpt lat="46.01883" lon="7.96475"><ele>2246.2</ele><time>2024-08-09T12:40:02Z</time></trkpt>
<trkpt lat="46.01883" lon="7.96475"><ele>2246.2</ele><time>2024-08-09T12:40:04Z</time></trkpt>
<trkpt lat="46.01882" lon="7.96475"><ele>2246.2</ele><time>2024-08-09T12:40:10Z</time></trkpt>
<trkpt lat="46.01882" lon="7.96474"><ele>2246.2</ele><time>2024-08-09T12:40:13Z</time></trkpt>
<trkpt lat="46.01883" lon="7.96475"><ele>2246.2</ele><time>2024-08-09T12:40:22Z</time></trkpt>
<trkpt lat="46.01883" lon="7.96476"><ele>2246.2</ele><time>2024-08-09T12:40:30Z</time></trkpt>
<trkpt lat="46.01883" lon="7.96476"><ele>2246.2</ele><time>2024-08-09T12:40:32Z</time></trkpt>
<trkpt lat="46.01883" lon="7.96475"><ele>2246.2</ele><time>2024-08-09T12:40:39Z</time></trkpt>
<trkpt lat="46.01882" lon="7.96473"><ele>2246.2</ele><time>2024-08-09T12:40:48Z</time></trkpt>
<trkpt lat="46.01882" lon="7.96472"><ele>2246.2</ele><time>2024-08-09T12:40:55Z</time></trkpt>
<trkpt lat="46.01883" lon="7.96471"><ele>2246.2</ele><time>2024-08-09T12:41:02Z</time></trkpt>
<trkpt lat="46.01882" lon="7.96473"><ele>2246.2</ele><time>2024-08-09T12:41:08Z</time></trkpt>
<trkpt lat="46.01882" lon="7.96471"><ele>2246.2</ele><time>2024-08-09T12:41:13Z</time></trkpt>
<trkpt lat="46.01882" lon="7.96472"><ele>2246.2</ele><time>2024-08-09T12:41:21Z</time></trkpt>
<trkpt lat="46.01883" lon="7.96471"><ele>2246.2</ele><time>2024-08-09T12:41:26Z</time></trkpt>
<trkpt lat="46.01883" lon="7.96471"><ele>2246.2</ele><time>2024-08-09T12:41:27Z</time></trkpt>
<trkpt lat="46.01882" lon="7.96473"><ele>2246.2</ele><time>2024-08-09T12:41:35Z</time></trkpt>
<trkpt lat="46.01883" lon="7.96475"><ele>2246.2</ele><time>2024-08-09T12:41:43Z</time></trkpt>
<trkpt lat="46.01882" lon="7.96474"><ele>2246.2</ele><time>2024-08-09T12:41:44Z</time></trkpt>
<trkpt lat="46.01883" lon="7.96474"><ele>2246.2</ele><time>2024-08-09T12:41:53Z</time></trkpt>
<trkpt lat="46.01882" lon="7.96474"><ele>2246.2</ele><time>2024-08-09T12:42:01Z</time></trkpt>
<trkpt lat="46.01881" lon="7.96474"><ele>2246.2</ele><time>2024-08-09T12:42:12Z</time></trkpt>
<trkpt lat="46.01883" lon="7.96473"><ele>2246.2</ele><time>2024-08-09T12:42:20Z</time></trkpt>
<trkpt lat="46.01883" lon="7.96473"><ele>2246.2</ele><time>2024-08-09T12:42:26Z</time></trkpt>
<trkpt lat="46.01883" lon="7.96473"><ele>2246.2</ele><time>2024-08-09T12:42:33Z</time></trkpt>
<trkpt lat="46.01881" lon="7.96473"><ele>2246.2</ele><time>2024-08-09T12:42:38Z</time></trkpt>
<trkpt lat="46.01884" lon="7.96474"><ele>2246.2</ele><time>2024-08-09T12:42:45Z</time></trkpt>
<trkpt lat="46.01883" lon="7.96469"><ele>2246.2</ele><time>2024-08-09T12:42:53Z</time></trkpt>
<trkpt lat="46.01882" lon="7.96469"><ele>2246.2</ele><time>2024-08-09T12:42:57Z</time></trkpt>
<trkpt lat="46.01882" lon="7.96469"><ele>2246.2</ele><time>2024-08-09T12:42:58Z</time></trkpt>
<trkpt lat="46.01883" lon="7.96473"><ele>2246.2</ele><time>2024-08-09T12:43:04Z</time></trkpt>
<trkpt lat="46.01882" lon="7.96474"><ele>2246.2</ele><time>2024-08-09T12:43:10Z</time></trkpt>
<trkpt lat="46.01883" lon="7.96475"><ele>2246.2</ele><time>2024-08-09T12:43:13Z</time></trkpt>
<trkpt lat="46.01883" lon="7.96473"><ele>2246.2</ele><time>2024-08-09T12:43:17Z</time></trkpt>
<trkpt lat="46.01884" lon="7.96472"><ele>2246.2</ele><time>2024-08-09T12:43:23Z</time></trkpt>
<trkpt lat="46.01883" lon="7.96474"><ele>2246.2</ele><time>2024-08-09T12:43:32Z</time></trkpt>
<trkpt lat="46.01883" lon="7.96475"><ele>2246.2</ele><time>2024-08-09T12:43:39Z</time></trkpt>
<trkpt lat="46.01883" lon="7.96474"><ele>2246.2</ele><time>2024-08-09T12:43:47Z</time></trkpt>
<trkpt lat="46.01883" lon="7.96474"><ele>2246.2</ele><time>2024-08-09T12:43:53Z</time></trkpt>
<trkpt lat="46.01883" lon="7.96474"><ele>2246.2</ele><time>2024-08-09T12:44:02Z</time></trkpt>
<trkpt lat="46.01883" lon="7.96474"><ele>2246.2</ele><time>2024-08-09T12:44:12Z</time></trkpt>
<trkpt lat="46.01883" lon="7.96474"><ele>2246.2</ele><time>2024-08-09T12:44:15Z</time></trkpt>
<trkpt lat="46.01884" lon="7.96473"><ele>2246.2</ele><time>2024-08-09T12:44:21Z</time></trkpt>
<trkpt lat="46.01884" lon="7.96473"><ele>2246.2</ele><time>2024-08-09T12:44:23Z</time></trkpt>
<trkpt lat="46.01883" lon="7.96471"><ele>2246.2</ele><time>2024-08-09T12:44:31Z</time></trkpt>
<trkpt lat="46.01883" lon="7.9647"><ele>2246.2</ele><time>2024-08-09T12:44:32Z</time></trkpt>
<trkpt lat="46.01881" lon="7.96467"><ele>2246.2</ele><time>2024-08-09T12:44:43Z</time></trkpt>
<trkpt lat="46.01879" lon="7.9647"><ele>2246.2</ele><time>2024-08-09T12:44:53Z</time></trkpt>
<trkpt lat="46.01879" lon="7.96471"><ele>2246.2</ele><time>2024-08-09T12:45:04Z</time></trkpt>
<trkpt lat="46.01879" lon="7.96471"><ele>2246.2</ele><time>2024-08-09T12:45:09Z</time></trkpt>
<trkpt lat="46.01879" lon="7.96471"><ele>2246.2</ele><time>2024-08-09T12:45:14Z</time></trkpt>
<trkpt lat="46.01879" lon="7.96471"><ele>2246.2</ele><time>2024-08-09T12:45:16Z</time></trkpt>
<trkpt lat="46.01879" lon="7.96471"><ele>2246.2</ele><time>2024-08-09T12:45:18Z</time></trkpt>
<trkpt lat="46.01879" lon="7.9647"><ele>2246.2</ele><time>2024-08-09T12:45:31Z</time></trkpt>
<trkpt lat="46.01879" lon="7.9647"><ele>2246.2</ele><time>2024-08-09T12:45:46Z</time></trkpt>
<trkpt lat="46.01879" lon="7.96471"><ele>2246.2</ele><time>2024-08-09T12:46:01Z</time></trkpt>
<trkpt lat="46.0188" lon="7.96471"><ele>2246.2</ele><time>2024-08-09T12:46:04Z</time></trkpt>
<trkpt lat="46.01882" lon="7.96473"><ele>2246.2</ele><time>2024-08-09T12:46:16Z</time></trkpt>
<trkpt lat="46.01882" lon="7.96473"><ele>2246.2</ele><time>2024-08-09T12:46:27Z</time></trkpt>
<trkpt lat="46.01882" lon="7.96473"><ele>2246.2</ele><time>2024-08-09T12:46:31Z</time></trkpt>
<trkpt lat="46.01882" lon="7.96473"><ele>2246.2</ele><time>2024-08-09T12:46:39Z</time></trkpt>
<trkpt lat="46.01881" lon="7.96473"><ele>2246.2</ele><time>2024-08-09T12:46:46Z</time></trkpt>
<trkpt lat="46.01882" lon="7.96473"><ele>2246.2</ele><time>2024-08-09T12:46:58Z</time></trkpt>
<trkpt lat="46.01881" lon="7.96473"><ele>2246.2</ele><time>2024-08-09T12:47:05Z</time></trkpt>
<trkpt lat="46.01881" lon="7.96473"><ele>2246.2</ele><time>2024-08-09T12:47:09Z</time></trkpt>
<trkpt lat="46.01881" lon="7.96473"><ele>2246.2</ele><time>2024-08-09T12:47:15Z</time></trkpt>
<trkpt lat="46.01881" lon="7.96473"><ele>2246.2</ele><time>2024-08-09T12:47:33Z</time></trkpt>
<trkpt lat="46.01881" lon="7.96472"><ele>2246.2</ele><time>2024-08-09T12:47:42Z</time></trkpt>
<trkpt lat="46.01881" lon="7.96472"><ele>2246.2</ele><time>2024-08-09T12:47:45Z</time></trkpt>
<trkpt lat="46.01881" lon="7.96472"><ele>2246.2</ele><time>2024-08-09T12:47:52Z</time></trkpt>
<trkpt lat="46.01881" lon="7.96472"><ele>2246.2</ele><time>2024-08-09T12:47:53Z</time></trkpt>
<trkpt lat="46.01881" lon="7.96472"><ele>2246.2</ele><time>2024-08-09T12:48:15Z</time></trkpt>
<trkpt lat="46.01881" lon="7.96472"><ele>2246.2</ele><time>2024-08-09T12:48:29Z</time></trkpt>
<trkpt lat="46.01881" lon="7.96472"><ele>2246.2</ele><time>2024-08-09T12:48:31Z</time></trkpt>
<trkpt lat="46.01881" lon="7.96472"><ele>2246.2</ele><time>2024-08-09T12:48:43Z</time></trkpt>
<trkpt lat="46.01881" lon="7.96472"><ele>2246.2</ele><time>2024-08-09T12:48:48Z</time></trkpt>
<trkpt lat="46.01881" lon="7.96472"><ele>2246.2</ele><time>2024-08-09T12:48:49Z</time></trkpt>
<trkpt lat="46.01881" lon="7.96471"><ele>2246.2</ele><time>2024-08-09T12:48:54Z</time></trkpt>
<trkpt lat="46.01883" lon="7.9647"><ele>2246.2</ele><time>2024-08-09T12:48:58Z</time></trkpt>
<trkpt lat="46.01883" lon="7.96471"><ele>2246.2</ele><time>2024-08-09T12:49:08Z</time></trkpt>
<trkpt lat="46.01881" lon="7.96472"><ele>2246.2</ele><time>2024-08-09T12:49:16Z</time></trkpt>
<trkpt lat="46.01881" lon="7.96472"><ele>2246.2</ele><time>2024-08-09T12:49:19Z</time></trkpt>
<trkpt lat="46.01881" lon="7.96471"><ele>2246.2</ele><time>2024-08-09T12:49:24Z</time></trkpt>
<trkpt lat="46.01881" lon="7.96471"><ele>2246.2</ele><time>2024-08-09T12:49:25Z</time></trkpt>
<trkpt lat="46.0188" lon="7.96472"><ele>2246.2</ele><time>2024-08-09T12:49:28Z</time></trkpt>
<trkpt lat="46.0188" lon="7.96472"><ele>2246.2</ele><time>2024-08-09T12:49:30Z</time></trkpt>
<trkpt lat="46.01881" lon="7.96472"><ele>2246.2</ele><time>2024-08-09T12:49:37Z</time></trkpt>
<trkpt lat="46.01881" lon="7.96474"><ele>2246.2</ele><time>2024-08-09T12:49:45Z</time></trkpt>
<trkpt lat="46.01881" lon="7.96474"><ele>2246.2</ele><time>2024-08-09T12:49:46Z</time></trkpt>
<trkpt lat="46.01881" lon="7.96474"><ele>2246.2</ele><time>2024-08-09T12:49:54Z</time></trkpt>
<trkpt lat="46.01881" lon="7.96473"><ele>2246.2</ele><time>2024-08-09T12:50:04Z</time></trkpt>
<trkpt lat="46.01881" lon="7.96473"><ele>2246.2</ele><time>2024-08-09T12:50:14Z</time></trkpt>
<trkpt lat="46.01882" lon="7.96473"><ele>2246.2</ele><time>2024-08-09T12:50:24Z</time></trkpt>
<trkpt lat="46.01882" lon="7.96473"><ele>2246.2</ele><time>2024-08-09T12:50:33Z</time></trkpt>
<trkpt lat="46.01882" lon="7.96473"><ele>2246.2</ele><time>2024-08-09T12:50:39Z</time></trkpt>
<trkpt lat="46.01882" lon="7.96473"><ele>2246.2</ele><time>2024-08-09T12:50:40Z</time></trkpt>
<trkpt lat="46.01882" lon="7.96473"><ele>2246.2</ele><time>2024-08-09T12:50:42Z</time></trkpt>
<trkpt lat="46.01881" lon="7.96474"><ele>2246.2</ele><time>2024-08-09T12:50:49Z</time></trkpt>
<trkpt lat="46.01883" lon="7.96473"><ele>2246.2</ele><time>2024-08-09T12:50:56Z</time></trkpt>
<trkpt lat="46.01883" lon="7.96473"><ele>2246.2</ele><time>2024-08-09T12:51:03Z</time></trkpt>
<trkpt lat="46.01882" lon="7.96472"><ele>2246.2</ele><time>2024-08-09T12:51:06Z</time></trkpt>
<trkpt lat="46.01882" lon="7.96472"><ele>2246.2</ele><time>2024-08-09T12:51:15Z</time></trkpt>
<trkpt lat="46.0188" lon="7.96472"><ele>2246.2</ele><time>2024-08-09T12:51:22Z</time></trkpt>
<trkpt lat="46.01881" lon="7.96474"><ele>2246.2</ele><time>2024-08-09T12:51:31Z</time></trkpt>
<trkpt lat="46.01882" lon="7.96474"><ele>2246.2</ele><time>2024-08-09T12:51:38Z</time></trkpt>
<trkpt lat="46.01881" lon="7.96474"><ele>2246.2</ele><time>2024-08-09T12:51:46Z</time></trkpt>
<trkpt lat="46.0188" lon="7.96473"><ele>2246.2</ele><time>2024-08-09T12:51:57Z</time></trkpt>
<trkpt lat="46.01881" lon="7.96474"><ele>2246.2</ele><time>2024-08-09T12:52:03Z</time></trkpt>
<trkpt lat="46.01881" lon="7.96475"><ele>2246.2</ele><time>2024-08-09T12:52:05Z</time></trkpt>
<trkpt lat="46.01881" lon="7.96474"><ele>2246.2</ele><time>2024-08-09T12:52:07Z</time></trkpt>
<trkpt lat="46.01881" lon="7.96473"><ele>2246.2</ele><time>2024-08-09T12:52:09Z</time></trkpt>
<trkpt lat="46.01881" lon="7.96474"><ele>2246.2</ele><time>2024-08-09T12:52:13Z</time></trkpt>
<trkpt lat="46.01882" lon="7.96471"><ele>2246.2</ele><time>2024-08-09T12:52:22Z</time></trkpt>
<trkpt lat="46.01881" lon="7.96468"><ele>2246.2</ele><time>2024-08-09T12:52:30Z</time></trkpt>
<trkpt lat="46.0188" lon="7.96465"><ele>2246.2</ele><time>2024-08-09T12:52:32Z</time></trkpt>
<trkpt lat="46.0188" lon="7.96468"><ele>2246.2</ele><time>2024-08-09T12:52:34Z</time></trkpt>
<trkpt lat="46.01881" lon="7.96473"><ele>2246.4</ele><time>2024-08-09T12:52:39Z</time></trkpt>
<trkpt lat="46.01882" lon="7.96473"><ele>2246.6</ele><time>2024-08-09T12:52:46Z</time></trkpt>
<trkpt lat="46.01882" lon="7.96473"><ele>2246.6</ele><time>2024-08-09T12:52:48Z</time></trkpt>
<trkpt lat="46.01882" lon="7.96474"><ele>2246.6</ele><time>2024-08-09T12:52:58Z</time></trkpt>
<trkpt lat="46.01882" lon="7.96474"><ele>2246.8</ele><time>2024-08-09T12:53:00Z</time></trkpt>
<trkpt lat="46.01884" lon="7.96474"><ele>2246.8</ele><time>2024-08-09T12:53:07Z</time></trkpt>
<trkpt lat="46.01885" lon="7.96473"><ele>2246.8</ele><time>2024-08-09T12:53:15Z</time></trkpt>
<trkpt lat="46.01884" lon="7.96473"><ele>2246.8</ele><time>2024-08-09T12:53:18Z</time></trkpt>
<trkpt lat="46.01881" lon="7.96472"><ele>2246.6</ele><time>2024-08-09T12:53:28Z</time></trkpt>
<trkpt lat="46.01881" lon="7.96471"><ele>2246.6</ele><time>2024-08-09T12:53:35Z</time></trkpt>
<trkpt lat="46.01882" lon="7.96473"><ele>2246.8</ele><time>2024-08-09T12:53:41Z</time></trkpt>
<trkpt lat="46.01882" lon="7.96475"><ele>2246.6</ele><time>2024-08-09T12:53:47Z</time></trkpt>
<trkpt lat="46.01882" lon="7.96475"><ele>2246.8</ele><time>2024-08-09T12:53:49Z</time></trkpt>
<trkpt lat="46.01882" lon="7.96474"><ele>2246.8</ele><time>2024-08-09T12:53:53Z</time></trkpt>
<trkpt lat="46.01882" lon="7.96473"><ele>2246.8</ele><time>2024-08-09T12:53:55Z</time></trkpt>
<trkpt lat="46.01883" lon="7.96471"><ele>2247</ele><time>2024-08-09T12:54:00Z</time></trkpt>
<trkpt lat="46.01883" lon="7.96472"><ele>2246.8</ele><time>2024-08-09T12:54:04Z</time></trkpt>
<trkpt lat="46.01883" lon="7.96472"><ele>2246.6</ele><time>2024-08-09T12:54:13Z</time></trkpt>
<trkpt lat="46.01883" lon="7.96472"><ele>2246.6</ele><time>2024-08-09T12:54:14Z</time></trkpt>
<trkpt lat="46.01881" lon="7.96474"><ele>2246.4</ele><time>2024-08-09T12:54:22Z</time></trkpt>
<trkpt lat="46.0188" lon="7.96474"><ele>2246.2</ele><time>2024-08-09T12:54:31Z</time></trkpt>
<trkpt lat="46.01881" lon="7.96473"><ele>2246.6</ele><time>2024-08-09T12:54:36Z</time></trkpt>
<trkpt lat="46.01883" lon="7.96473"><ele>2246.8</ele><time>2024-08-09T12:54:45Z</time></trkpt>
<trkpt lat="46.01881" lon="7.96473"><ele>2246.8</ele><time>2024-08-09T12:54:53Z</time></trkpt>
<trkpt lat="46.01881" lon="7.96472"><ele>2246.8</ele><time>2024-08-09T12:55:03Z</time></trkpt>
<trkpt lat="46.01881" lon="7.96473"><ele>2246.8</ele><time>2024-08-09T12:55:06Z</time></trkpt>
<trkpt lat="46.01881" lon="7.96473"><ele>2246.8</ele><time>2024-08-09T12:55:10Z</time></trkpt>
<trkpt lat="46.01881" lon="7.96473"><ele>2246.8</ele><time>2024-08-09T12:55:13Z</time></trkpt>
<trkpt lat="46.01881" lon="7.96473"><ele>2246.8</ele><time>2024-08-09T12:55:23Z</time></trkpt>
<trkpt lat="46.01881" lon="7.96473"><ele>2246.8</ele><time>2024-08-09T12:55:33Z</time></trkpt>
<trkpt lat="46.01881" lon="7.96473"><ele>2246.8</ele><time>2024-08-09T12:55:34Z</time></trkpt>
<trkpt lat="46.01881" lon="7.96473"><ele>2246.8</ele><time>2024-08-09T12:55:38Z</time></trkpt>
<trkpt lat="46.01882" lon="7.96473"><ele>2246.8</ele><time>2024-08-09T12:55:39Z</time></trkpt>
<trkpt lat="46.01882" lon="7.96473"><ele>2246.8</ele><time>2024-08-09T12:55:40Z</time></trkpt>
<trkpt lat="46.01882" lon="7.96474"><ele>2246.8</ele><time>2024-08-09T12:55:44Z</time></trkpt>
<trkpt lat="46.01883" lon="7.96474"><ele>2246.8</ele><time>2024-08-09T12:55:54Z</time></trkpt>
<trkpt lat="46.01883" lon="7.96475"><ele>2246.8</ele><time>2024-08-09T12:56:01Z</time></trkpt>
<trkpt lat="46.01883" lon="7.96475"><ele>2246.8</ele><time>2024-08-09T12:56:07Z</time></trkpt>
<trkpt lat="46.01883" lon="7.96475"><ele>2246.8</ele><time>2024-08-09T12:56:08Z</time></trkpt>
<trkpt lat="46.01885" lon="7.96472"><ele>2246.8</ele><time>2024-08-09T12:56:17Z</time></trkpt>
<trkpt lat="46.01883" lon="7.96474"><ele>2246.8</ele><time>2024-08-09T12:56:24Z</time></trkpt>
<trkpt lat="46.01883" lon="7.96472"><ele>2246.8</ele><time>2024-08-09T12:56:33Z</time></trkpt>
<trkpt lat="46.01883" lon="7.96472"><ele>2246.8</ele><time>2024-08-09T12:56:34Z</time></trkpt>
<trkpt lat="46.01882" lon="7.96475"><ele>2246.8</ele><time>2024-08-09T12:56:44Z</time></trkpt>
<trkpt lat="46.01881" lon="7.96475"><ele>2246.8</ele><time>2024-08-09T12:56:53Z</time></trkpt>
<trkpt lat="46.01882" lon="7.96473"><ele>2246.8</ele><time>2024-08-09T12:57:01Z</time></trkpt>
<trkpt lat="46.01882" lon="7.96475"><ele>2246.8</ele><time>2024-08-09T12:57:08Z</time></trkpt>
<trkpt lat="46.01882" lon="7.96477"><ele>2246.8</ele><time>2024-08-09T12:57:17Z</time></trkpt>
<trkpt lat="46.01882" lon="7.96474"><ele>2246.8</ele><time>2024-08-09T12:57:24Z</time></trkpt>
<trkpt lat="46.01882" lon="7.96474"><ele>2246.8</ele><time>2024-08-09T12:57:25Z</time></trkpt>
<trkpt lat="46.01883" lon="7.96474"><ele>2246.8</ele><time>2024-08-09T12:57:34Z</time></trkpt>
<trkpt lat="46.01882" lon="7.96473"><ele>2246.8</ele><time>2024-08-09T12:57:41Z</time></trkpt>
<trkpt lat="46.01881" lon="7.96474"><ele>2246.8</ele><time>2024-08-09T12:57:50Z</time></trkpt>
<trkpt lat="46.01882" lon="7.96473"><ele>2246.8</ele><time>2024-08-09T12:57:59Z</time></trkpt>
<trkpt lat="46.01882" lon="7.96474"><ele>2246.8</ele><time>2024-08-09T12:58:09Z</time></trkpt>
<trkpt lat="46.01881" lon="7.96474"><ele>2246.8</ele><time>2024-08-09T12:58:17Z</time></trkpt>
<trkpt lat="46.01881" lon="7.96475"><ele>2246.8</ele><time>2024-08-09T12:58:27Z</time></trkpt>
<trkpt lat="46.01881" lon="7.96475"><ele>2246.8</ele><time>2024-08-09T12:58:28Z</time></trkpt>
<trkpt lat="46.01882" lon="7.96474"><ele>2246.8</ele><time>2024-08-09T12:58:35Z</time></trkpt>
<trkpt lat="46.01882" lon="7.96474"><ele>2246.8</ele><time>2024-08-09T12:58:37Z</time></trkpt>
<trkpt lat="46.01882" lon="7.96474"><ele>2246.8</ele><time>2024-08-09T12:58:38Z</time></trkpt>
<trkpt lat="46.01882" lon="7.96474"><ele>2246.8</ele><time>2024-08-09T12:58:42Z</time></trkpt>
<trkpt lat="46.01882" lon="7.96474"><ele>2246.8</ele><time>2024-08-09T12:58:48Z</time></trkpt>
<trkpt lat="46.01882" lon="7.96474"><ele>2246.8</ele><time>2024-08-09T12:58:49Z</time></trkpt>
<trkpt lat="46.01882" lon="7.96474"><ele>2246.8</ele><time>2024-08-09T12:58:52Z</time></trkpt>
<trkpt lat="46.01882" lon="7.96474"><ele>2246.8</ele><time>2024-08-09T12:58:59Z</time></trkpt>
<trkpt lat="46.01883" lon="7.96474"><ele>2246.8</ele><time>2024-08-09T12:59:02Z</time></trkpt>
<trkpt lat="46.01881" lon="7.96476"><ele>2246.8</ele><time>2024-08-09T12:59:08Z</time></trkpt>
<trkpt lat="46.01882" lon="7.96476"><ele>2246.8</ele><time>2024-08-09T12:59:15Z</time></trkpt>
<trkpt lat="46.01881" lon="7.96477"><ele>2246.8</ele><time>2024-08-09T12:59:26Z</time></trkpt>
<trkpt lat="46.01882" lon="7.96475"><ele>2246.8</ele><time>2024-08-09T12:59:35Z</time></trkpt>
<trkpt lat="46.01882" lon="7.96475"><ele>2246.8</ele><time>2024-08-09T12:59:42Z</time></trkpt>
<trkpt lat="46.01882" lon="7.96473"><ele>2246.8</ele><time>2024-08-09T12:59:44Z</time></trkpt>
<trkpt lat="46.01882" lon="7.96474"><ele>2246.8</ele><time>2024-08-09T12:59:54Z</time></trkpt>
<trkpt lat="46.01882" lon="7.96473"><ele>2246.8</ele><time>2024-08-09T13:00:01Z</time></trkpt>
<trkpt lat="46.01882" lon="7.96473"><ele>2246.8</ele><time>2024-08-09T13:00:09Z</time></trkpt>
<trkpt lat="46.01882" lon="7.96473"><ele>2246.8</ele><time>2024-08-09T13:00:17Z</time></trkpt>
<trkpt lat="46.01883" lon="7.96473"><ele>2246.8</ele><time>2024-08-09T13:00:42Z</time></trkpt>
<trkpt lat="46.01883" lon="7.96473"><ele>2246.8</ele><time>2024-08-09T13:00:49Z</time></trkpt>
<trkpt lat="46.01883" lon="7.96474"><ele>2246.8</ele><time>2024-08-09T13:00:54Z</time></trkpt>
<trkpt lat="46.01881" lon="7.96475"><ele>2246.8</ele><time>2024-08-09T13:01:02Z</time></trkpt>
<trkpt lat="46.01882" lon="7.96474"><ele>2246.8</ele><time>2024-08-09T13:01:11Z</time></trkpt>
<trkpt lat="46.01883" lon="7.96473"><ele>2246.8</ele><time>2024-08-09T13:01:19Z</time></trkpt>
<trkpt lat="46.01882" lon="7.96474"><ele>2246.8</ele><time>2024-08-09T13:01:25Z</time></trkpt>
<trkpt lat="46.01882" lon="7.96474"><ele>2246.8</ele><time>2024-08-09T13:01:31Z</time></trkpt>
<trkpt lat="46.01883" lon="7.96474"><ele>2246.8</ele><time>2024-08-09T13:01:35Z</time></trkpt>
<trkpt lat="46.01883" lon="7.96474"><ele>2246.8</ele><time>2024-08-09T13:01:43Z</time></trkpt>
<trkpt lat="46.01881" lon="7.96473"><ele>2246.8</ele><time>2024-08-09T13:01:50Z</time></trkpt>
<trkpt lat="46.01881" lon="7.96472"><ele>2246.8</ele><time>2024-08-09T13:01:56Z</time></trkpt>
<trkpt lat="46.01881" lon="7.96472"><ele>2246.8</ele><time>2024-08-09T13:01:59Z</time></trkpt>
<trkpt lat="46.01881" lon="7.96472"><ele>2246.8</ele><time>2024-08-09T13:02:17Z</time></trkpt>
<trkpt lat="46.01881" lon="7.96472"><ele>2246.8</ele><time>2024-08-09T13:02:22Z</time></trkpt>
<trkpt lat="46.01881" lon="7.96472"><ele>2246.8</ele><time>2024-08-09T13:02:44Z</time></trkpt>
<trkpt lat="46.01881" lon="7.96472"><ele>2246.8</ele><time>2024-08-09T13:03:09Z</time></trkpt>
<trkpt lat="46.01881" lon="7.96472"><ele>2246.8</ele><time>2024-08-09T13:03:18Z</time></trkpt>
<trkpt lat="46.01882" lon="7.96473"><ele>2246.8</ele><time>2024-08-09T13:03:22Z</time></trkpt>
<trkpt lat="46.01882" lon="7.96472"><ele>2246.8</ele><time>2024-08-09T13:03:28Z</time></trkpt>
<trkpt lat="46.01882" lon="7.96473"><ele>2246.8</ele><time>2024-08-09T13:03:41Z</time></trkpt>
<trkpt lat="46.01882" lon="7.96473"><ele>2246.8</ele><time>2024-08-09T13:03:50Z</time></trkpt>
<trkpt lat="46.01883" lon="7.96473"><ele>2246.8</ele><time>2024-08-09T13:03:55Z</time></trkpt>
<trkpt lat="46.01883" lon="7.96473"><ele>2246.8</ele><time>2024-08-09T13:03:58Z</time></trkpt>
<trkpt lat="46.01883" lon="7.96472"><ele>2246.8</ele><time>2024-08-09T13:04:07Z</time></trkpt>
<trkpt lat="46.01884" lon="7.96472"><ele>2246.8</ele><time>2024-08-09T13:04:09Z</time></trkpt>
<trkpt lat="46.01883" lon="7.96473"><ele>2246.8</ele><time>2024-08-09T13:04:18Z</time></trkpt>
<trkpt lat="46.01882" lon="7.96474"><ele>2246.8</ele><time>2024-08-09T13:04:19Z</time></trkpt>
<trkpt lat="46.01882" lon="7.96474"><ele>2246.8</ele><time>2024-08-09T13:04:27Z</time></trkpt>
<trkpt lat="46.01882" lon="7.96474"><ele>2246.8</ele><time>2024-08-09T13:04:29Z</time></trkpt>
<trkpt lat="46.01881" lon="7.96473"><ele>2246.8</ele><time>2024-08-09T13:04:32Z</time></trkpt>
<trkpt lat="46.01881" lon="7.96473"><ele>2246.8</ele><time>2024-08-09T13:04:34Z</time></trkpt>
<trkpt lat="46.01881" lon="7.96473"><ele>2246.8</ele><time>2024-08-09T13:04:35Z</time></trkpt>
<trkpt lat="46.01881" lon="7.96473"><ele>2246.8</ele><time>2024-08-09T13:04:37Z</time></trkpt>
<trkpt lat="46.01881" lon="7.96474"><ele>2246.8</ele><time>2024-08-09T13:04:40Z</time></trkpt>
<trkpt lat="46.01881" lon="7.96474"><ele>2246.8</ele><time>2024-08-09T13:04:41Z</time></trkpt>
<trkpt lat="46.01881" lon="7.96475"><ele>2246.8</ele><time>2024-08-09T13:04:51Z</time></trkpt>
<trkpt lat="46.01882" lon="7.96475"><ele>2246.8</ele><time>2024-08-09T13:05:00Z</time></trkpt>
<trkpt lat="46.01882" lon="7.96474"><ele>2246.8</ele><time>2024-08-09T13:05:09Z</time></trkpt>
<trkpt lat="46.01884" lon="7.96473"><ele>2246.8</ele><time>2024-08-09T13:05:11Z</time></trkpt>
<trkpt lat="46.01884" lon="7.96473"><ele>2246.8</ele><time>2024-08-09T13:05:12Z</time></trkpt>
<trkpt lat="46.01883" lon="7.96474"><ele>2246.8</ele><time>2024-08-09T13:05:20Z</time></trkpt>
<trkpt lat="46.01883" lon="7.96474"><ele>2246.8</ele><time>2024-08-09T13:05:21Z</time></trkpt>
<trkpt lat="46.01881" lon="7.96474"><ele>2246.8</ele><time>2024-08-09T13:05:28Z</time></trkpt>
<trkpt lat="46.01882" lon="7.96474"><ele>2246.8</ele><time>2024-08-09T13:05:35Z</time></trkpt>
<trkpt lat="46.01882" lon="7.96474"><ele>2246.8</ele><time>2024-08-09T13:05:38Z</time></trkpt>
<trkpt lat="46.01882" lon="7.96475"><ele>2246.8</ele><time>2024-08-09T13:05:41Z</time></trkpt>
<trkpt lat="46.01882" lon="7.96473"><ele>2246.8</ele><time>2024-08-09T13:05:48Z</time></trkpt>
<trkpt lat="46.01882" lon="7.96474"><ele>2246.8</ele><time>2024-08-09T13:05:54Z</time></trkpt>
<trkpt lat="46.01882" lon="7.96474"><ele>2246.8</ele><time>2024-08-09T13:06:00Z</time></trkpt>
<trkpt lat="46.01882" lon="7.96474"><ele>2246.8</ele><time>2024-08-09T13:06:01Z</time></trkpt>
<trkpt lat="46.01882" lon="7.96473"><ele>2246.8</ele><time>2024-08-09T13:06:02Z</time></trkpt>
<trkpt lat="46.01882" lon="7.96473"><ele>2246.8</ele><time>2024-08-09T13:06:03Z</time></trkpt>
<trkpt lat="46.01883" lon="7.96473"><ele>2246.8</ele><time>2024-08-09T13:06:06Z</time></trkpt>
<trkpt lat="46.01882" lon="7.96473"><ele>2246.8</ele><time>2024-08-09T13:06:13Z</time></trkpt>
<trkpt lat="46.01883" lon="7.96473"><ele>2246.8</ele><time>2024-08-09T13:06:20Z</time></trkpt>
<trkpt lat="46.01883" lon="7.96472"><ele>2246.8</ele><time>2024-08-09T13:06:26Z</time></trkpt>
<trkpt lat="46.01883" lon="7.9647"><ele>2246.8</ele><time>2024-08-09T13:06:31Z</time></trkpt>
<trkpt lat="46.01885" lon="7.96469"><ele>2246.8</ele><time>2024-08-09T13:06:42Z</time></trkpt>
<trkpt lat="46.01885" lon="7.96469"><ele>2246.8</ele><time>2024-08-09T13:06:53Z</time></trkpt>
<trkpt lat="46.01885" lon="7.96469"><ele>2246.8</ele><time>2024-08-09T13:07:11Z</time></trkpt>
<trkpt lat="46.01885" lon="7.96469"><ele>2246.8</ele><time>2024-08-09T13:07:14Z</time></trkpt>
<trkpt lat="46.01885" lon="7.96469"><ele>2246.8</ele><time>2024-08-09T13:07:29Z</time></trkpt>
<trkpt lat="46.01885" lon="7.96469"><ele>2246.8</ele><time>2024-08-09T13:07:34Z</time></trkpt>
<trkpt lat="46.01885" lon="7.9647"><ele>2246.8</ele><time>2024-08-09T13:07:46Z</time></trkpt>
<trkpt lat="46.01885" lon="7.9647"><ele>2246.8</ele><time>2024-08-09T13:07:48Z</time></trkpt>
<trkpt lat="46.01885" lon="7.9647"><ele>2246.8</ele><time>2024-08-09T13:07:53Z</time></trkpt>
<trkpt lat="46.01885" lon="7.9647"><ele>2246.8</ele><time>2024-08-09T13:07:55Z</time></trkpt>
<trkpt lat="46.01883" lon="7.96473"><ele>2246.8</ele><time>2024-08-09T13:08:07Z</time></trkpt>
<trkpt lat="46.01883" lon="7.96474"><ele>2246.8</ele><time>2024-08-09T13:08:18Z</time></trkpt>
<trkpt lat="46.01884" lon="7.96473"><ele>2246.8</ele><time>2024-08-09T13:08:20Z</time></trkpt>
<trkpt lat="46.01885" lon="7.96472"><ele>2246.8</ele><time>2024-08-09T13:08:30Z</time></trkpt>
<trkpt lat="46.01884" lon="7.96472"><ele>2246.8</ele><time>2024-08-09T13:08:46Z</time></trkpt>
<trkpt lat="46.01883" lon="7.96473"><ele>2246.8</ele><time>2024-08-09T13:08:56Z</time></trkpt>
<trkpt lat="46.01883" lon="7.96474"><ele>2246.8</ele><time>2024-08-09T13:08:58Z</time></trkpt>
<trkpt lat="46.01883" lon="7.96474"><ele>2246.8</ele><time>2024-08-09T13:08:59Z</time></trkpt>
<trkpt lat="46.01884" lon="7.96473"><ele>2246.8</ele><time>2024-08-09T13:09:15Z</time></trkpt>
<trkpt lat="46.01885" lon="7.96473"><ele>2246.8</ele><time>2024-08-09T13:09:35Z</time></trkpt>
<trkpt lat="46.01885" lon="7.96473"><ele>2246.8</ele><time>2024-08-09T13:09:41Z</time></trkpt>
<trkpt lat="46.01884" lon="7.96473"><ele>2246.8</ele><time>2024-08-09T13:10:00Z</time></trkpt>
<trkpt lat="46.01882" lon="7.96473"><ele>2246.8</ele><time>2024-08-09T13:10:07Z</time></trkpt>
<trkpt lat="46.01882" lon="7.96473"><ele>2246.8</ele><time>2024-08-09T13:10:16Z</time></trkpt>
<trkpt lat="46.01882" lon="7.96473"><ele>2246.8</ele><time>2024-08-09T13:10:25Z</time></trkpt>
<trkpt lat="46.01882" lon="7.96473"><ele>2246.8</ele><time>2024-08-09T13:10:36Z</time></trkpt>
<trkpt lat="46.01883" lon="7.96473"><ele>2246.8</ele><time>2024-08-09T13:10:44Z</time></trkpt>
<trkpt lat="46.01883" lon="7.96473"><ele>2246.8</ele><time>2024-08-09T13:10:51Z</time></trkpt>
<trkpt lat="46.01883" lon="7.96472"><ele>2246.8</ele><time>2024-08-09T13:10:56Z</time></trkpt>
<trkpt lat="46.01883" lon="7.96471"><ele>2246.8</ele><time>2024-08-09T13:10:58Z</time></trkpt>
<trkpt lat="46.01883" lon="7.96471"><ele>2246.8</ele><time>2024-08-09T13:11:01Z</time></trkpt>
<trkpt lat="46.01884" lon="7.96472"><ele>2246.8</ele><time>2024-08-09T13:11:06Z</time></trkpt>
<trkpt lat="46.01882" lon="7.96473"><ele>2246.8</ele><time>2024-08-09T13:11:13Z</time></trkpt>
<trkpt lat="46.01882" lon="7.96475"><ele>2246.8</ele><time>2024-08-09T13:11:19Z</time></trkpt>
<trkpt lat="46.01882" lon="7.96473"><ele>2246.8</ele><time>2024-08-09T13:11:20Z</time></trkpt>
<trkpt lat="46.01882" lon="7.96473"><ele>2246.8</ele><time>2024-08-09T13:11:23Z</time></trkpt>
<trkpt lat="46.01882" lon="7.96472"><ele>2246.8</ele><time>2024-08-09T13:11:27Z</time></trkpt>
<trkpt lat="46.01881" lon="7.96471"><ele>2246.8</ele><time>2024-08-09T13:11:34Z</time></trkpt>
<trkpt lat="46.01882" lon="7.96472"><ele>2246.8</ele><time>2024-08-09T13:11:38Z</time></trkpt>
<trkpt lat="46.01882" lon="7.96472"><ele>2246.8</ele><time>2024-08-09T13:11:40Z</time></trkpt>
<trkpt lat="46.01882" lon="7.96473"><ele>2246.8</ele><time>2024-08-09T13:11:47Z</time></trkpt>
<trkpt lat="46.01881" lon="7.96474"><ele>2246.8</ele><time>2024-08-09T13:11:56Z</time></trkpt>
<trkpt lat="46.01883" lon="7.96473"><ele>2246.8</ele><time>2024-08-09T13:11:59Z</time></trkpt>
<trkpt lat="46.01883" lon="7.96473"><ele>2246.8</ele><time>2024-08-09T13:12:02Z</time></trkpt>
<trkpt lat="46.01883" lon="7.96474"><ele>2246.8</ele><time>2024-08-09T13:12:06Z</time></trkpt>
<trkpt lat="46.01882" lon="7.96473"><ele>2246.8</ele><time>2024-08-09T13:12:15Z</time></trkpt>
<trkpt lat="46.01882" lon="7.96473"><ele>2246.8</ele><time>2024-08-09T13:12:24Z</time></trkpt>
<trkpt lat="46.01882" lon="7.96472"><ele>2246.8</ele><time>2024-08-09T13:12:30Z</time></trkpt>
<trkpt lat="46.01882" lon="7.96472"><ele>2246.8</ele><time>2024-08-09T13:12:51Z</time></trkpt>
<trkpt lat="46.01882" lon="7.96473"><ele>2246.8</ele><time>2024-08-09T13:13:04Z</time></trkpt>
<trkpt lat="46.01882" lon="7.96473"><ele>2246.8</ele><time>2024-08-09T13:13:15Z</time></trkpt>
<trkpt lat="46.01882" lon="7.96473"><ele>2246.8</ele><time>2024-08-09T13:13:28Z</time></trkpt>
<trkpt lat="46.01882" lon="7.96473"><ele>2246.8</ele><time>2024-08-09T13:13:39Z</time></trkpt>
<trkpt lat="46.01882" lon="7.96473"><ele>2246.8</ele><time>2024-08-09T13:13:53Z</time></trkpt>
<trkpt lat="46.01882" lon="7.96473"><ele>2246.8</ele><time>2024-08-09T13:13:59Z</time></trkpt>
<trkpt lat="46.01882" lon="7.96473"><ele>2246.8</ele><time>2024-08-09T13:14:05Z</time></trkpt>
<trkpt lat="46.01882" lon="7.96473"><ele>2246.8</ele><time>2024-08-09T13:14:13Z</time></trkpt>
<trkpt lat="46.01882" lon="7.96473"><ele>2246.8</ele><time>2024-08-09T13:14:14Z</time></trkpt>
<trkpt lat="46.01881" lon="7.96474"><ele>2246.8</ele><time>2024-08-09T13:14:22Z</time></trkpt>
<trkpt lat="46.01881" lon="7.96473"><ele>2246.8</ele><time>2024-08-09T13:14:31Z</time></trkpt>
<trkpt lat="46.0188" lon="7.96474"><ele>2246.8</ele><time>2024-08-09T13:14:38Z</time></trkpt>
<trkpt lat="46.0188" lon="7.96474"><ele>2246.8</ele><time>2024-08-09T13:14:40Z</time></trkpt>
<trkpt lat="46.0188" lon="7.96473"><ele>2246.8</ele><time>2024-08-09T13:14:44Z</time></trkpt>
<trkpt lat="46.0188" lon="7.96473"><ele>2246.8</ele><time>2024-08-09T13:14:47Z</time></trkpt>
<trkpt lat="46.0188" lon="7.96473"><ele>2246.8</ele><time>2024-08-09T13:14:51Z</time></trkpt>
<trkpt lat="46.01884" lon="7.9647"><ele>2246.8</ele><time>2024-08-09T13:15:02Z</time></trkpt>
<trkpt lat="46.01883" lon="7.96472"><ele>2246.8</ele><time>2024-08-09T13:15:10Z</time></trkpt>
<trkpt lat="46.01883" lon="7.96472"><ele>2246.8</ele><time>2024-08-09T13:15:29Z</time></trkpt>
<trkpt lat="46.01883" lon="7.96472"><ele>2246.8</ele><time>2024-08-09T13:15:47Z</time></trkpt>
<trkpt lat="46.01883" lon="7.96473"><ele>2246.8</ele><time>2024-08-09T13:16:09Z</time></trkpt>
<trkpt lat="46.01882" lon="7.96474"><ele>2246.8</ele><time>2024-08-09T13:16:15Z</time></trkpt>
<trkpt lat="46.01881" lon="7.96474"><ele>2246.8</ele><time>2024-08-09T13:16:22Z</time></trkpt>
<trkpt lat="46.01882" lon="7.96473"><ele>2246.8</ele><time>2024-08-09T13:16:30Z</time></trkpt>
<trkpt lat="46.01883" lon="7.96474"><ele>2246.8</ele><time>2024-08-09T13:16:35Z</time></trkpt>
<trkpt lat="46.01883" lon="7.96475"><ele>2246.8</ele><time>2024-08-09T13:16:45Z</time></trkpt>
<trkpt lat="46.01881" lon="7.96478"><ele>2246.8</ele><time>2024-08-09T13:16:57Z</time></trkpt>
<trkpt lat="46.01881" lon="7.96474"><ele>2246.8</ele><time>2024-08-09T13:17:11Z</time></trkpt>
<trkpt lat="46.01882" lon="7.96474"><ele>2246.8</ele><time>2024-08-09T13:17:21Z</time></trkpt>
<trkpt lat="46.01882" lon="7.96474"><ele>2246.8</ele><time>2024-08-09T13:17:29Z</time></trkpt>
<trkpt lat="46.01881" lon="7.96473"><ele>2246.8</ele><time>2024-08-09T13:17:35Z</time></trkpt>
<trkpt lat="46.01881" lon="7.96472"><ele>2246.8</ele><time>2024-08-09T13:17:38Z</time></trkpt>
<trkpt lat="46.01882" lon="7.96473"><ele>2246.8</ele><time>2024-08-09T13:17:47Z</time></trkpt>
<trkpt lat="46.01883" lon="7.96471"><ele>2246.8</ele><time>2024-08-09T13:17:55Z</time></trkpt>
<trkpt lat="46.01883" lon="7.96471"><ele>2246.8</ele><time>2024-08-09T13:18:14Z</time></trkpt>
<trkpt lat="46.01883" lon="7.96472"><ele>2246.8</ele><time>2024-08-09T13:18:19Z</time></trkpt>
<trkpt lat="46.01882" lon="7.96473"><ele>2246.8</ele><time>2024-08-09T13:18:28Z</time></trkpt>
<trkpt lat="46.01882" lon="7.96474"><ele>2246.8</ele><time>2024-08-09T13:18:39Z</time></trkpt>
<trkpt lat="46.01883" lon="7.96472"><ele>2246.8</ele><time>2024-08-09T13:18:47Z</time></trkpt>
<trkpt lat="46.01883" lon="7.96474"><ele>2246.8</ele><time>2024-08-09T13:18:53Z</time></trkpt>
<trkpt lat="46.01882" lon="7.96474"><ele>2246.8</ele><time>2024-08-09T13:18:55Z</time></trkpt>
<trkpt lat="46.01882" lon="7.96475"><ele>2246.8</ele><time>2024-08-09T13:19:00Z</time></trkpt>
<trkpt lat="46.01882" lon="7.96476"><ele>2246.8</ele><time>2024-08-09T13:19:03Z</time></trkpt>
<trkpt lat="46.01881" lon="7.96476"><ele>2246.8</ele><time>2024-08-09T13:19:06Z</time></trkpt>
<trkpt lat="46.01883" lon="7.96475"><ele>2246.8</ele><time>2024-08-09T13:19:15Z</time></trkpt>
<trkpt lat="46.01883" lon="7.96474"><ele>2246.8</ele><time>2024-08-09T13:19:24Z</time></trkpt>
<trkpt lat="46.01883" lon="7.96474"><ele>2246.8</ele><time>2024-08-09T13:19:35Z</time></trkpt>
<trkpt lat="46.01883" lon="7.96474"><ele>2246.8</ele><time>2024-08-09T13:19:44Z</time></trkpt>
<trkpt lat="46.01883" lon="7.96474"><ele>2246.8</ele><time>2024-08-09T13:19:53Z</time></trkpt>
<trkpt lat="46.01883" lon="7.96472"><ele>2246.8</ele><time>2024-08-09T13:20:01Z</time></trkpt>
<trkpt lat="46.01882" lon="7.96474"><ele>2246.8</ele><time>2024-08-09T13:20:09Z</time></trkpt>
<trkpt lat="46.01882" lon="7.96474"><ele>2246.8</ele><time>2024-08-09T13:20:16Z</time></trkpt>
<trkpt lat="46.01882" lon="7.96474"><ele>2246.8</ele><time>2024-08-09T13:20:20Z</time></trkpt>
<trkpt lat="46.01882" lon="7.96473"><ele>2246.8</ele><time>2024-08-09T13:20:28Z</time></trkpt>
<trkpt lat="46.01884" lon="7.96472"><ele>2246.8</ele><time>2024-08-09T13:20:37Z</time></trkpt>
<trkpt lat="46.01881" lon="7.96476"><ele>2246.8</ele><time>2024-08-09T13:20:47Z</time></trkpt>
<trkpt lat="46.01882" lon="7.96474"><ele>2246.8</ele><time>2024-08-09T13:20:58Z</time></trkpt>
<trkpt lat="46.01884" lon="7.96472"><ele>2246.8</ele><time>2024-08-09T13:21:07Z</time></trkpt>
<trkpt lat="46.01883" lon="7.96472"><ele>2246.8</ele><time>2024-08-09T13:21:14Z</time></trkpt>
<trkpt lat="46.01883" lon="7.96472"><ele>2246.8</ele><time>2024-08-09T13:21:17Z</time></trkpt>
<trkpt lat="46.01883" lon="7.96472"><ele>2246.8</ele><time>2024-08-09T13:21:21Z</time></trkpt>
<trkpt lat="46.01881" lon="7.96473"><ele>2246.8</ele><time>2024-08-09T13:21:26Z</time></trkpt>
<trkpt lat="46.01881" lon="7.96473"><ele>2246.8</ele><time>2024-08-09T13:21:37Z</time></trkpt>
<trkpt lat="46.01881" lon="7.96473"><ele>2246.8</ele><time>2024-08-09T13:21:39Z</time></trkpt>
<trkpt lat="46.01882" lon="7.96473"><ele>2246.8</ele><time>2024-08-09T13:21:42Z</time></trkpt>
<trkpt lat="46.01882" lon="7.96473"><ele>2246.8</ele><time>2024-08-09T13:21:54Z</time></trkpt>
<trkpt lat="46.01883" lon="7.96473"><ele>2246.8</ele><time>2024-08-09T13:22:09Z</time></trkpt>
<trkpt lat="46.01884" lon="7.96473"><ele>2246.8</ele><time>2024-08-09T13:22:12Z</time></trkpt>
<trkpt lat="46.01883" lon="7.96473"><ele>2246.8</ele><time>2024-08-09T13:22:13Z</time></trkpt>
<trkpt lat="46.01883" lon="7.96474"><ele>2246.8</ele><time>2024-08-09T13:22:20Z</time></trkpt>
<trkpt lat="46.01883" lon="7.96473"><ele>2246.8</ele><time>2024-08-09T13:22:29Z</time></trkpt>
<trkpt lat="46.01883" lon="7.96475"><ele>2246.8</ele><time>2024-08-09T13:22:32Z</time></trkpt>
<trkpt lat="46.01883" lon="7.96475"><ele>2246.8</ele><time>2024-08-09T13:22:33Z</time></trkpt>
<trkpt lat="46.01883" lon="7.96475"><ele>2246.8</ele><time>2024-08-09T13:22:36Z</time></trkpt>
<trkpt lat="46.01883" lon="7.96473"><ele>2246.8</ele><time>2024-08-09T13:22:42Z</time></trkpt>
<trkpt lat="46.01883" lon="7.96473"><ele>2246.8</ele><time>2024-08-09T13:22:44Z</time></trkpt>
<trkpt lat="46.01883" lon="7.96473"><ele>2246.8</ele><time>2024-08-09T13:22:48Z</time></trkpt>
<trkpt lat="46.01883" lon="7.96473"><ele>2246.8</ele><time>2024-08-09T13:22:50Z</time></trkpt>
<trkpt lat="46.01883" lon="7.96473"><ele>2246.8</ele><time>2024-08-09T13:22:52Z</time></trkpt>
<trkpt lat="46.01883" lon="7.96473"><ele>2246.8</ele><time>2024-08-09T13:22:53Z</time></trkpt>
<trkpt lat="46.01884" lon="7.96475"><ele>2246.8</ele><time>2024-08-09T13:23:03Z</time></trkpt>
<trkpt lat="46.01884" lon="7.96475"><ele>2246.8</ele><time>2024-08-09T13:23:04Z</time></trkpt>
<trkpt lat="46.01884" lon="7.96475"><ele>2246.8</ele><time>2024-08-09T13:23:05Z</time></trkpt>
<trkpt lat="46.01882" lon="7.96472"><ele>2246.8</ele><time>2024-08-09T13:23:12Z</time></trkpt>
<trkpt lat="46.01882" lon="7.96472"><ele>2246.8</ele><time>2024-08-09T13:23:23Z</time></trkpt>
<trkpt lat="46.01882" lon="7.96473"><ele>2246.8</ele><time>2024-08-09T13:23:32Z</time></trkpt>
<trkpt lat="46.01882" lon="7.96473"><ele>2246.8</ele><time>2024-08-09T13:23:47Z</time></trkpt>
<trkpt lat="46.01883" lon="7.96473"><ele>2246.8</ele><time>2024-08-09T13:23:54Z</time></trkpt>
<trkpt lat="46.01883" lon="7.96473"><ele>2246.8</ele><time>2024-08-09T13:23:55Z</time></trkpt>
<trkpt lat="46.01883" lon="7.96473"><ele>2246.8</ele><time>2024-08-09T13:23:56Z</time></trkpt>
<trkpt lat="46.01883" lon="7.96473"><ele>2246.8</ele><time>2024-08-09T13:24:05Z</time></trkpt>
<trkpt lat="46.01882" lon="7.96473"><ele>2246.8</ele><time>2024-08-09T13:24:16Z</time></trkpt>
<trkpt lat="46.01883" lon="7.96472"><ele>2246.8</ele><time>2024-08-09T13:24:25Z</time></trkpt>
<trkpt lat="46.01882" lon="7.96473"><ele>2246.8</ele><time>2024-08-09T13:24:30Z</time></trkpt>
<trkpt lat="46.01882" lon="7.96474"><ele>2246.8</ele><time>2024-08-09T13:24:32Z</time></trkpt>
<trkpt lat="46.01883" lon="7.96473"><ele>2246.8</ele><time>2024-08-09T13:24:34Z</time></trkpt>
<trkpt lat="46.01882" lon="7.96472"><ele>2246.8</ele><time>2024-08-09T13:24:37Z</time></trkpt>
<trkpt lat="46.01882" lon="7.96472"><ele>2246.8</ele><time>2024-08-09T13:24:43Z</time></trkpt>
<trkpt lat="46.01883" lon="7.96473"><ele>2246.8</ele><time>2024-08-09T13:24:49Z</time></trkpt>
<trkpt lat="46.01883" lon="7.96474"><ele>2246.8</ele><time>2024-08-09T13:24:56Z</time></trkpt>
<trkpt lat="46.01883" lon="7.96474"><ele>2246.8</ele><time>2024-08-09T13:24:57Z</time></trkpt>
<trkpt lat="46.01882" lon="7.96473"><ele>2246.8</ele><time>2024-08-09T13:25:05Z</time></trkpt>
<trkpt lat="46.01882" lon="7.96474"><ele>2246.8</ele><time>2024-08-09T13:25:13Z</time></trkpt>
<trkpt lat="46.01882" lon="7.96474"><ele>2246.8</ele><time>2024-08-09T13:25:20Z</time></trkpt>
<trkpt lat="46.01882" lon="7.96472"><ele>2246.8</ele><time>2024-08-09T13:25:25Z</time></trkpt>
<trkpt lat="46.01879" lon="7.96471"><ele>2246.8</ele><time>2024-08-09T13:25:32Z</time></trkpt>
<trkpt lat="46.01877" lon="7.96468"><ele>2246.8</ele><time>2024-08-09T13:25:38Z</time></trkpt>
<trkpt lat="46.01874" lon="7.96464"><ele>2246.8</ele><time>2024-08-09T13:25:43Z</time></trkpt>
<trkpt lat="46.01874" lon="7.96463"><ele>2246.8</ele><time>2024-08-09T13:25:44Z</time></trkpt>
<trkpt lat="46.01874" lon="7.96462"><ele>2246.8</ele><time>2024-08-09T13:25:45Z</time></trkpt>
<trkpt lat="46.01871" lon="7.96458"><ele>2246.4</ele><time>2024-08-09T13:25:51Z</time></trkpt>
<trkpt lat="46.01869" lon="7.96453"><ele>2246.2</ele><time>2024-08-09T13:25:57Z</time></trkpt>
<trkpt lat="46.01869" lon="7.96453"><ele>2246.2</ele><time>2024-08-09T13:26:00Z</time></trkpt>
<trkpt lat="46.01869" lon="7.96453"><ele>2246.2</ele><time>2024-08-09T13:26:02Z</time></trkpt>
<trkpt lat="46.01868" lon="7.96453"><ele>2246.4</ele><time>2024-08-09T13:26:04Z</time></trkpt>
<trkpt lat="46.01864" lon="7.96451"><ele>2246.2</ele><time>2024-08-09T13:26:10Z</time></trkpt>
<trkpt lat="46.01865" lon="7.96452"><ele>2246</ele><time>2024-08-09T13:26:19Z</time></trkpt>
<trkpt lat="46.01871" lon="7.96455"><ele>2246.4</ele><time>2024-08-09T13:26:27Z</time></trkpt>
<trkpt lat="46.01873" lon="7.96456"><ele>2246.8</ele><time>2024-08-09T13:26:33Z</time></trkpt>
<trkpt lat="46.01874" lon="7.96457"><ele>2246.8</ele><time>2024-08-09T13:26:36Z</time></trkpt>
<trkpt lat="46.01875" lon="7.96459"><ele>2246.8</ele><time>2024-08-09T13:26:40Z</time></trkpt>
<trkpt lat="46.01878" lon="7.96461"><ele>2246.4</ele><time>2024-08-09T13:26:46Z</time></trkpt>
<trkpt lat="46.0188" lon="7.96462"><ele>2246.4</ele><time>2024-08-09T13:26:49Z</time></trkpt>
<trkpt lat="46.01882" lon="7.96464"><ele>2246.4</ele><time>2024-08-09T13:26:52Z</time></trkpt>
<trkpt lat="46.01883" lon="7.96464"><ele>2246.6</ele><time>2024-08-09T13:26:56Z</time></trkpt>
<trkpt lat="46.01882" lon="7.96466"><ele>2247.4</ele><time>2024-08-09T13:27:03Z</time></trkpt>
<trkpt lat="46.01882" lon="7.96466"><ele>2247.4</ele><time>2024-08-09T13:27:04Z</time></trkpt>
<trkpt lat="46.01881" lon="7.96466"><ele>2247.4</ele><time>2024-08-09T13:27:10Z</time></trkpt>
<trkpt lat="46.01882" lon="7.96465"><ele>2247.8</ele><time>2024-08-09T13:27:17Z</time></trkpt>
<trkpt lat="46.01881" lon="7.96464"><ele>2247.6</ele><time>2024-08-09T13:27:23Z</time></trkpt>
<trkpt lat="46.01881" lon="7.96465"><ele>2248</ele><time>2024-08-09T13:27:28Z</time></trkpt>
<trkpt lat="46.01881" lon="7.96465"><ele>2248.2</ele><time>2024-08-09T13:27:33Z</time></trkpt>
<trkpt lat="46.01881" lon="7.96465"><ele>2248.2</ele><time>2024-08-09T13:27:34Z</time></trkpt>
<trkpt lat="46.01881" lon="7.96464"><ele>2248.4</ele><time>2024-08-09T13:27:37Z</time></trkpt>
<trkpt lat="46.01881" lon="7.96464"><ele>2248.4</ele><time>2024-08-09T13:27:42Z</time></trkpt>
<trkpt lat="46.01885" lon="7.96467"><ele>2248.6</ele><time>2024-08-09T13:27:46Z</time></trkpt>
<trkpt lat="46.01885" lon="7.96467"><ele>2248.6</ele><time>2024-08-09T13:27:48Z</time></trkpt>
<trkpt lat="46.01885" lon="7.96467"><ele>2248.8</ele><time>2024-08-09T13:27:51Z</time></trkpt>
<trkpt lat="46.01884" lon="7.96469"><ele>2249</ele><time>2024-08-09T13:27:56Z</time></trkpt>
<trkpt lat="46.01883" lon="7.9647"><ele>2249.2</ele><time>2024-08-09T13:28:03Z</time></trkpt>
<trkpt lat="46.01884" lon="7.9647"><ele>2249.4</ele><time>2024-08-09T13:28:06Z</time></trkpt>
<trkpt lat="46.01882" lon="7.9647"><ele>2249.6</ele><time>2024-08-09T13:28:14Z</time></trkpt>
<trkpt lat="46.01883" lon="7.96473"><ele>2250</ele><time>2024-08-09T13:28:20Z</time></trkpt>
<trkpt lat="46.01883" lon="7.96473"><ele>2250</ele><time>2024-08-09T13:28:26Z</time></trkpt>
<trkpt lat="46.01883" lon="7.96474"><ele>2250</ele><time>2024-08-09T13:28:32Z</time></trkpt>
<trkpt lat="46.01883" lon="7.96473"><ele>2250.2</ele><time>2024-08-09T13:28:38Z</time></trkpt>
<trkpt lat="46.01883" lon="7.96473"><ele>2250.2</ele><time>2024-08-09T13:28:45Z</time></trkpt>
<trkpt lat="46.01883" lon="7.96472"><ele>2250.2</ele><time>2024-08-09T13:28:52Z</time></trkpt>
<trkpt lat="46.01883" lon="7.96472"><ele>2250.4</ele><time>2024-08-09T13:28:55Z</time></trkpt>
<trkpt lat="46.01883" lon="7.96472"><ele>2250.6</ele><time>2024-08-09T13:29:01Z</time></trkpt>
<trkpt lat="46.01883" lon="7.96472"><ele>2250.6</ele><time>2024-08-09T13:29:09Z</time></trkpt>
<trkpt lat="46.01883" lon="7.96473"><ele>2250.4</ele><time>2024-08-09T13:29:16Z</time></trkpt>
<trkpt lat="46.01884" lon="7.96472"><ele>2250.2</ele><time>2024-08-09T13:29:26Z</time></trkpt>
<trkpt lat="46.01883" lon="7.96475"><ele>2250.4</ele><time>2024-08-09T13:29:34Z</time></trkpt>
<trkpt lat="46.01882" lon="7.96473"><ele>2250.8</ele><time>2024-08-09T13:29:42Z</time></trkpt>
<trkpt lat="46.01882" lon="7.96473"><ele>2250.8</ele><time>2024-08-09T13:29:43Z</time></trkpt>
<trkpt lat="46.01881" lon="7.96473"><ele>2250.4</ele><time>2024-08-09T13:29:45Z</time></trkpt>
<trkpt lat="46.01882" lon="7.96473"><ele>2250.4</ele><time>2024-08-09T13:29:53Z</time></trkpt>
<trkpt lat="46.01881" lon="7.96473"><ele>2250</ele><time>2024-08-09T13:30:00Z</time></trkpt>
<trkpt lat="46.01881" lon="7.96473"><ele>2250</ele><time>2024-08-09T13:30:01Z</time></trkpt>
<trkpt lat="46.01882" lon="7.96473"><ele>2250.4</ele><time>2024-08-09T13:30:09Z</time></trkpt>
<trkpt lat="46.01881" lon="7.96473"><ele>2251</ele><time>2024-08-09T13:30:15Z</time></trkpt>
<trkpt lat="46.01882" lon="7.96472"><ele>2251</ele><time>2024-08-09T13:30:21Z</time></trkpt>
<trkpt lat="46.01882" lon="7.96472"><ele>2251</ele><time>2024-08-09T13:30:28Z</time></trkpt>
<trkpt lat="46.01882" lon="7.96473"><ele>2251</ele><time>2024-08-09T13:30:35Z</time></trkpt>
<trkpt lat="46.01882" lon="7.96473"><ele>2251</ele><time>2024-08-09T13:30:43Z</time></trkpt>
<trkpt lat="46.01883" lon="7.96471"><ele>2251</ele><time>2024-08-09T13:30:50Z</time></trkpt>
<trkpt lat="46.01883" lon="7.96471"><ele>2251.2</ele><time>2024-08-09T13:30:59Z</time></trkpt>
<trkpt lat="46.01882" lon="7.96472"><ele>2250.8</ele><time>2024-08-09T13:31:07Z</time></trkpt>
<trkpt lat="46.01882" lon="7.96468"><ele>2250.6</ele><time>2024-08-09T13:31:12Z</time></trkpt>
<trkpt lat="46.01884" lon="7.96461"><ele>2249.6</ele><time>2024-08-09T13:31:20Z</time></trkpt>
<trkpt lat="46.01885" lon="7.9646"><ele>2249.4</ele><time>2024-08-09T13:31:21Z</time></trkpt>
<trkpt lat="46.01889" lon="7.96458"><ele>2248.2</ele><time>2024-08-09T13:31:26Z</time></trkpt>
<trkpt lat="46.0189" lon="7.96457"><ele>2248.2</ele><time>2024-08-09T13:31:27Z</time></trkpt>
<trkpt lat="46.01894" lon="7.96452"><ele>2247.4</ele><time>2024-08-09T13:31:35Z</time></trkpt>
<trkpt lat="46.01896" lon="7.96452"><ele>2247.2</ele><time>2024-08-09T13:31:37Z</time></trkpt>
<trkpt lat="46.01901" lon="7.96454"><ele>2246.8</ele><time>2024-08-09T13:31:43Z</time></trkpt>
<trkpt lat="46.01902" lon="7.96454"><ele>2246.8</ele><time>2024-08-09T13:31:44Z</time></trkpt>
<trkpt lat="46.01906" lon="7.96451"><ele>2246.6</ele><time>2024-08-09T13:31:49Z</time></trkpt>
<trkpt lat="46.0191" lon="7.96448"><ele>2246.2</ele><time>2024-08-09T13:31:55Z</time></trkpt>
<trkpt lat="46.01911" lon="7.96446"><ele>2245.8</ele><time>2024-08-09T13:31:57Z</time></trkpt>
<trkpt lat="46.01913" lon="7.96442"><ele>2245</ele><time>2024-08-09T13:32:02Z</time></trkpt>
<trkpt lat="46.01915" lon="7.9644"><ele>2244.4</ele><time>2024-08-09T13:32:05Z</time></trkpt>
<trkpt lat="46.01917" lon="7.9644"><ele>2244.2</ele><time>2024-08-09T13:32:07Z</time></trkpt>
<trkpt lat="46.01917" lon="7.96441"><ele>2244</ele><time>2024-08-09T13:32:08Z</time></trkpt>
<trkpt lat="46.01918" lon="7.96442"><ele>2243.8</ele><time>2024-08-09T13:32:09Z</time></trkpt>
<trkpt lat="46.01918" lon="7.96444"><ele>2243.8</ele><time>2024-08-09T13:32:10Z</time></trkpt>
<trkpt lat="46.01917" lon="7.96451"><ele>2243.6</ele><time>2024-08-09T13:32:16Z</time></trkpt>
<trkpt lat="46.01914" lon="7.9646"><ele>2243.2</ele><time>2024-08-09T13:32:22Z</time></trkpt>
<trkpt lat="46.01915" lon="7.96461"><ele>2243.2</ele><time>2024-08-09T13:32:24Z</time></trkpt>
<trkpt lat="46.01917" lon="7.9646"><ele>2243</ele><time>2024-08-09T13:32:27Z</time></trkpt>
<trkpt lat="46.01925" lon="7.96458"><ele>2242</ele><time>2024-08-09T13:32:36Z</time></trkpt>
<trkpt lat="46.01926" lon="7.96457"><ele>2241.8</ele><time>2024-08-09T13:32:37Z</time></trkpt>
<trkpt lat="46.01932" lon="7.96455"><ele>2240.8</ele><time>2024-08-09T13:32:44Z</time></trkpt>
<trkpt lat="46.01937" lon="7.96451"><ele>2240</ele><time>2024-08-09T13:32:51Z</time></trkpt>
<trkpt lat="46.01938" lon="7.9645"><ele>2239.8</ele><time>2024-08-09T13:32:53Z</time></trkpt>
<trkpt lat="46.01939" lon="7.96449"><ele>2239.2</ele><time>2024-08-09T13:32:58Z</time></trkpt>
<trkpt lat="46.01943" lon="7.96448"><ele>2238.6</ele><time>2024-08-09T13:33:02Z</time></trkpt>
<trkpt lat="46.01944" lon="7.96446"><ele>2238.2</ele><time>2024-08-09T13:33:04Z</time></trkpt>
<trkpt lat="46.01945" lon="7.96439"><ele>2238</ele><time>2024-08-09T13:33:11Z</time></trkpt>
<trkpt lat="46.01945" lon="7.96436"><ele>2237.6</ele><time>2024-08-09T13:33:13Z</time></trkpt>
<trkpt lat="46.01945" lon="7.96434"><ele>2237.2</ele><time>2024-08-09T13:33:15Z</time></trkpt>
<trkpt lat="46.01942" lon="7.9643"><ele>2237.2</ele><time>2024-08-09T13:33:18Z</time></trkpt>
<trkpt lat="46.01942" lon="7.96417"><ele>2237.4</ele><time>2024-08-09T13:33:23Z</time></trkpt>
<trkpt lat="46.01943" lon="7.96412"><ele>2237.8</ele><time>2024-08-09T13:33:28Z</time></trkpt>
<trkpt lat="46.01943" lon="7.96412"><ele>2238</ele><time>2024-08-09T13:33:33Z</time></trkpt>
<trkpt lat="46.01945" lon="7.96407"><ele>2238</ele><time>2024-08-09T13:33:36Z</time></trkpt>
<trkpt lat="46.01956" lon="7.9639"><ele>2238</ele><time>2024-08-09T13:33:43Z</time></trkpt>
<trkpt lat="46.01971" lon="7.9638"><ele>2238.2</ele><time>2024-08-09T13:33:50Z</time></trkpt>
<trkpt lat="46.01977" lon="7.96379"><ele>2238.6</ele><time>2024-08-09T13:33:54Z</time></trkpt>
<trkpt lat="46.0198" lon="7.96378"><ele>2239</ele><time>2024-08-09T13:33:56Z</time></trkpt>
<trkpt lat="46.01982" lon="7.96377"><ele>2239</ele><time>2024-08-09T13:33:57Z</time></trkpt>
<trkpt lat="46.0199" lon="7.96369"><ele>2239.2</ele><time>2024-08-09T13:34:03Z</time></trkpt>
<trkpt lat="46.02" lon="7.96358"><ele>2239.4</ele><time>2024-08-09T13:34:10Z</time></trkpt>
<trkpt lat="46.02005" lon="7.96355"><ele>2239.8</ele><time>2024-08-09T13:34:14Z</time></trkpt>
<trkpt lat="46.02009" lon="7.96354"><ele>2240</ele><time>2024-08-09T13:34:17Z</time></trkpt>
<trkpt lat="46.02019" lon="7.96347"><ele>2240.2</ele><time>2024-08-09T13:34:24Z</time></trkpt>
<trkpt lat="46.02029" lon="7.96342"><ele>2240.8</ele><time>2024-08-09T13:34:30Z</time></trkpt>
<trkpt lat="46.02043" lon="7.96327"><ele>2241.4</ele><time>2024-08-09T13:34:39Z</time></trkpt>
<trkpt lat="46.02053" lon="7.96315"><ele>2241.6</ele><time>2024-08-09T13:34:43Z</time></trkpt>
<trkpt lat="46.02062" lon="7.96311"><ele>2241.6</ele><time>2024-08-09T13:34:45Z</time></trkpt>
<trkpt lat="46.02076" lon="7.9631"><ele>2241.8</ele><time>2024-08-09T13:34:48Z</time></trkpt>
<trkpt lat="46.02098" lon="7.96311"><ele>2242.6</ele><time>2024-08-09T13:34:53Z</time></trkpt>
<trkpt lat="46.02108" lon="7.96312"><ele>2242.8</ele><time>2024-08-09T13:34:56Z</time></trkpt>
<trkpt lat="46.02124" lon="7.96316"><ele>2243.2</ele><time>2024-08-09T13:35:02Z</time></trkpt>
<trkpt lat="46.02146" lon="7.96321"><ele>2243.6</ele><time>2024-08-09T13:35:08Z</time></trkpt>
<trkpt lat="46.02164" lon="7.96317"><ele>2243.6</ele><time>2024-08-09T13:35:13Z</time></trkpt>
<trkpt lat="46.02182" lon="7.96308"><ele>2243.8</ele><time>2024-08-09T13:35:19Z</time></trkpt>
<trkpt lat="46.02196" lon="7.96298"><ele>2244.2</ele><time>2024-08-09T13:35:25Z</time></trkpt>
<trkpt lat="46.02221" lon="7.96283"><ele>2244.8</ele><time>2024-08-09T13:35:35Z</time></trkpt>
<trkpt lat="46.02223" lon="7.96281"><ele>2245</ele><time>2024-08-09T13:35:36Z</time></trkpt>
<trkpt lat="46.02239" lon="7.96274"><ele>2245.4</ele><time>2024-08-09T13:35:42Z</time></trkpt>
<trkpt lat="46.02252" lon="7.96269"><ele>2245.8</ele><time>2024-08-09T13:35:47Z</time></trkpt>
<trkpt lat="46.02256" lon="7.96267"><ele>2246</ele><time>2024-08-09T13:35:49Z</time></trkpt>
<trkpt lat="46.02262" lon="7.96263"><ele>2246.2</ele><time>2024-08-09T13:35:52Z</time></trkpt>
<trkpt lat="46.02277" lon="7.96252"><ele>2246.6</ele><time>2024-08-09T13:35:59Z</time></trkpt>
<trkpt lat="46.02296" lon="7.96239"><ele>2247</ele><time>2024-08-09T13:36:07Z</time></trkpt>
<trkpt lat="46.02301" lon="7.96236"><ele>2247.2</ele><time>2024-08-09T13:36:09Z</time></trkpt>
<trkpt lat="46.02319" lon="7.96231"><ele>2247.2</ele><time>2024-08-09T13:36:15Z</time></trkpt>
<trkpt lat="46.02339" lon="7.96225"><ele>2247.8</ele><time>2024-08-09T13:36:23Z</time></trkpt>
<trkpt lat="46.02342" lon="7.96224"><ele>2248</ele><time>2024-08-09T13:36:24Z</time></trkpt>
<trkpt lat="46.02352" lon="7.96219"><ele>2248.4</ele><time>2024-08-09T13:36:28Z</time></trkpt>
<trkpt lat="46.02366" lon="7.96214"><ele>2248.8</ele><time>2024-08-09T13:36:34Z</time></trkpt>
<trkpt lat="46.02371" lon="7.96211"><ele>2248.8</ele><time>2024-08-09T13:36:36Z</time></trkpt>
<trkpt lat="46.02376" lon="7.96208"><ele>2248.8</ele><time>2024-08-09T13:36:38Z</time></trkpt>
<trkpt lat="46.02386" lon="7.962"><ele>2249</ele><time>2024-08-09T13:36:42Z</time></trkpt>
<trkpt lat="46.02409" lon="7.96179"><ele>2249.4</ele><time>2024-08-09T13:36:52Z</time></trkpt>
<trkpt lat="46.02416" lon="7.96174"><ele>2249.4</ele><time>2024-08-09T13:36:55Z</time></trkpt>
<trkpt lat="46.0243" lon="7.96168"><ele>2249.6</ele><time>2024-08-09T13:37:00Z</time></trkpt>
<trkpt lat="46.02449" lon="7.96157"><ele>2250.4</ele><time>2024-08-09T13:37:08Z</time></trkpt>
<trkpt lat="46.02468" lon="7.96147"><ele>2250.8</ele><time>2024-08-09T13:37:16Z</time></trkpt>
<trkpt lat="46.0248" lon="7.9614"><ele>2251.6</ele><time>2024-08-09T13:37:22Z</time></trkpt>
<trkpt lat="46.02485" lon="7.96135"><ele>2251.8</ele><time>2024-08-09T13:37:25Z</time></trkpt>
<trkpt lat="46.02502" lon="7.96123"><ele>2251.8</ele><time>2024-08-09T13:37:33Z</time></trkpt>
<trkpt lat="46.02517" lon="7.96115"><ele>2252.4</ele><time>2024-08-09T13:37:40Z</time></trkpt>
<trkpt lat="46.02526" lon="7.96112"><ele>2252.6</ele><time>2024-08-09T13:37:44Z</time></trkpt>
<trkpt lat="46.0254" lon="7.96108"><ele>2253</ele><time>2024-08-09T13:37:50Z</time></trkpt>
<trkpt lat="46.0256" lon="7.96105"><ele>2253</ele><time>2024-08-09T13:37:58Z</time></trkpt>
<trkpt lat="46.02575" lon="7.96101"><ele>2253</ele><time>2024-08-09T13:38:04Z</time></trkpt>
<trkpt lat="46.02591" lon="7.96082"><ele>2252.8</ele><time>2024-08-09T13:38:10Z</time></trkpt>
<trkpt lat="46.02609" lon="7.9607"><ele>2252.2</ele><time>2024-08-09T13:38:15Z</time></trkpt>
<trkpt lat="46.02633" lon="7.96059"><ele>2252.2</ele><time>2024-08-09T13:38:23Z</time></trkpt>
<trkpt lat="46.02652" lon="7.96051"><ele>2252.2</ele><time>2024-08-09T13:38:29Z</time></trkpt>
<trkpt lat="46.02667" lon="7.96045"><ele>2251.4</ele><time>2024-08-09T13:38:33Z</time></trkpt>
<trkpt lat="46.02678" lon="7.96039"><ele>2251</ele><time>2024-08-09T13:38:36Z</time></trkpt>
<trkpt lat="46.02702" lon="7.96023"><ele>2250.6</ele><time>2024-08-09T13:38:43Z</time></trkpt>
<trkpt lat="46.02706" lon="7.96021"><ele>2250.4</ele><time>2024-08-09T13:38:44Z</time></trkpt>
<trkpt lat="46.02724" lon="7.96012"><ele>2250.2</ele><time>2024-08-09T13:38:49Z</time></trkpt>
<trkpt lat="46.02737" lon="7.96006"><ele>2251</ele><time>2024-08-09T13:38:53Z</time></trkpt>
<trkpt lat="46.02746" lon="7.96"><ele>2251.2</ele><time>2024-08-09T13:38:56Z</time></trkpt>
<trkpt lat="46.02775" lon="7.9598"><ele>2251.4</ele><time>2024-08-09T13:39:06Z</time></trkpt>
<trkpt lat="46.02788" lon="7.95975"><ele>2251.4</ele><time>2024-08-09T13:39:12Z</time></trkpt>
<trkpt lat="46.028" lon="7.95963"><ele>2251.2</ele><time>2024-08-09T13:39:17Z</time></trkpt>
<trkpt lat="46.02811" lon="7.95939"><ele>2251.2</ele><time>2024-08-09T13:39:23Z</time></trkpt>
<trkpt lat="46.02825" lon="7.95923"><ele>2250.4</ele><time>2024-08-09T13:39:28Z</time></trkpt>
<trkpt lat="46.02829" lon="7.95922"><ele>2250.4</ele><time>2024-08-09T13:39:29Z</time></trkpt>
<trkpt lat="46.02851" lon="7.95911"><ele>2251.4</ele><time>2024-08-09T13:39:36Z</time></trkpt>
<trkpt lat="46.02859" lon="7.95908"><ele>2251.4</ele><time>2024-08-09T13:39:40Z</time></trkpt>
<trkpt lat="46.0286" lon="7.95908"><ele>2251.6</ele><time>2024-08-09T13:39:41Z</time></trkpt>
<trkpt lat="46.02869" lon="7.95904"><ele>2251.6</ele><time>2024-08-09T13:39:45Z</time></trkpt>
<trkpt lat="46.02895" lon="7.95891"><ele>2251.8</ele><time>2024-08-09T13:39:52Z</time></trkpt>
<trkpt lat="46.02923" lon="7.95877"><ele>2251.4</ele><time>2024-08-09T13:39:57Z</time></trkpt>
<trkpt lat="46.02967" lon="7.95861"><ele>2250.6</ele><time>2024-08-09T13:40:03Z</time></trkpt>
<trkpt lat="46.03016" lon="7.9583"><ele>2250.8</ele><time>2024-08-09T13:40:10Z</time></trkpt>
<trkpt lat="46.03056" lon="7.95814"><ele>2251.2</ele><time>2024-08-09T13:40:16Z</time></trkpt>
<trkpt lat="46.03099" lon="7.95798"><ele>2251.4</ele><time>2024-08-09T13:40:23Z</time></trkpt>
<trkpt lat="46.03125" lon="7.95781"><ele>2250.8</ele><time>2024-08-09T13:40:29Z</time></trkpt>
<trkpt lat="46.03142" lon="7.9577"><ele>2251.4</ele><time>2024-08-09T13:40:33Z</time></trkpt>
<trkpt lat="46.03146" lon="7.95767"><ele>2251.2</ele><time>2024-08-09T13:40:34Z</time></trkpt>
<trkpt lat="46.0315" lon="7.95765"><ele>2251.4</ele><time>2024-08-09T13:40:35Z</time></trkpt>
<trkpt lat="46.03159" lon="7.9576"><ele>2251.2</ele><time>2024-08-09T13:40:37Z</time></trkpt>
<trkpt lat="46.03183" lon="7.9575"><ele>2251</ele><time>2024-08-09T13:40:43Z</time></trkpt>
<trkpt lat="46.03186" lon="7.95748"><ele>2251</ele><time>2024-08-09T13:40:44Z</time></trkpt>
<trkpt lat="46.032" lon="7.95731"><ele>2251.2</ele><time>2024-08-09T13:40:48Z</time></trkpt>
<trkpt lat="46.03207" lon="7.95723"><ele>2251</ele><time>2024-08-09T13:40:50Z</time></trkpt>
<trkpt lat="46.03216" lon="7.95716"><ele>2250.8</ele><time>2024-08-09T13:40:52Z</time></trkpt>
<trkpt lat="46.03224" lon="7.95711"><ele>2250.6</ele><time>2024-08-09T13:40:54Z</time></trkpt>
<trkpt lat="46.03251" lon="7.95698"><ele>2251.8</ele><time>2024-08-09T13:41:01Z</time></trkpt>
<trkpt lat="46.03258" lon="7.95695"><ele>2251.6</ele><time>2024-08-09T13:41:03Z</time></trkpt>
<trkpt lat="46.03274" lon="7.95686"><ele>2251.6</ele><time>2024-08-09T13:41:08Z</time></trkpt>
<trkpt lat="46.03278" lon="7.95681"><ele>2252.6</ele><time>2024-08-09T13:41:12Z</time></trkpt>
<trkpt lat="46.03278" lon="7.95681"><ele>2252.8</ele><time>2024-08-09T13:41:13Z</time></trkpt>
<trkpt lat="46.03277" lon="7.95681"><ele>2252.8</ele><time>2024-08-09T13:41:14Z</time></trkpt>
<trkpt lat="46.03271" lon="7.95686"><ele>2253</ele><time>2024-08-09T13:41:16Z</time></trkpt>
<trkpt lat="46.03267" lon="7.95689"><ele>2253</ele><time>2024-08-09T13:41:17Z</time></trkpt>
<trkpt lat="46.03252" lon="7.95696"><ele>2253</ele><time>2024-08-09T13:41:20Z</time></trkpt>
<trkpt lat="46.03239" lon="7.957"><ele>2253</ele><time>2024-08-09T13:41:23Z</time></trkpt>
<trkpt lat="46.03233" lon="7.95702"><ele>2252.8</ele><time>2024-08-09T13:41:25Z</time></trkpt>
<trkpt lat="46.03232" lon="7.95704"><ele>2252.8</ele><time>2024-08-09T13:41:26Z</time></trkpt>
<trkpt lat="46.03234" lon="7.95704"><ele>2252.6</ele><time>2024-08-09T13:41:28Z</time></trkpt>
<trkpt lat="46.03237" lon="7.95704"><ele>2252.6</ele><time>2024-08-09T13:41:30Z</time></trkpt>
<trkpt lat="46.03238" lon="7.95702"><ele>2252.6</ele><time>2024-08-09T13:41:32Z</time></trkpt>
<trkpt lat="46.03247" lon="7.95697"><ele>2252.8</ele><time>2024-08-09T13:41:38Z</time></trkpt>
<trkpt lat="46.03265" lon="7.9569"><ele>2252.8</ele><time>2024-08-09T13:41:45Z</time></trkpt>
<trkpt lat="46.03283" lon="7.95676"><ele>2253</ele><time>2024-08-09T13:41:51Z</time></trkpt>
<trkpt lat="46.03307" lon="7.95647"><ele>2252.6</ele><time>2024-08-09T13:41:59Z</time></trkpt>
<trkpt lat="46.03316" lon="7.95621"><ele>2252.4</ele><time>2024-08-09T13:42:04Z</time></trkpt>
<trkpt lat="46.0333" lon="7.95589"><ele>2252.6</ele><time>2024-08-09T13:42:11Z</time></trkpt>
<trkpt lat="46.03338" lon="7.95568"><ele>2253.2</ele><time>2024-08-09T13:42:17Z</time></trkpt>
<trkpt lat="46.03348" lon="7.95563"><ele>2253</ele><time>2024-08-09T13:42:20Z</time></trkpt>
<trkpt lat="46.03367" lon="7.95566"><ele>2252.8</ele><time>2024-08-09T13:42:25Z</time></trkpt>
<trkpt lat="46.03374" lon="7.95554"><ele>2252.8</ele><time>2024-08-09T13:42:28Z</time></trkpt>
<trkpt lat="46.03387" lon="7.95533"><ele>2253.2</ele><time>2024-08-09T13:42:33Z</time></trkpt>
<trkpt lat="46.0339" lon="7.95529"><ele>2253.2</ele><time>2024-08-09T13:42:34Z</time></trkpt>
<trkpt lat="46.03409" lon="7.95513"><ele>2253.2</ele><time>2024-08-09T13:42:40Z</time></trkpt>
<trkpt lat="46.03423" lon="7.95491"><ele>2253.4</ele><time>2024-08-09T13:42:46Z</time></trkpt>
<trkpt lat="46.03439" lon="7.95465"><ele>2253.6</ele><time>2024-08-09T13:42:53Z</time></trkpt>
<trkpt lat="46.03442" lon="7.95462"><ele>2253.8</ele><time>2024-08-09T13:42:54Z</time></trkpt>
<trkpt lat="46.03459" lon="7.95451"><ele>2254.4</ele><time>2024-08-09T13:43:00Z</time></trkpt>
<trkpt lat="46.03466" lon="7.95447"><ele>2254.8</ele><time>2024-08-09T13:43:02Z</time></trkpt>
<trkpt lat="46.0348" lon="7.95438"><ele>2255.2</ele><time>2024-08-09T13:43:06Z</time></trkpt>
<trkpt lat="46.03491" lon="7.95429"><ele>2255.8</ele><time>2024-08-09T13:43:11Z</time></trkpt>
<trkpt lat="46.03492" lon="7.95428"><ele>2255.8</ele><time>2024-08-09T13:43:12Z</time></trkpt>
<trkpt lat="46.03492" lon="7.95428"><ele>2256</ele><time>2024-08-09T13:43:15Z</time></trkpt>
<trkpt lat="46.03492" lon="7.95428"><ele>2256</ele><time>2024-08-09T13:43:24Z</time></trkpt>
<trkpt lat="46.03495" lon="7.95427"><ele>2256</ele><time>2024-08-09T13:43:27Z</time></trkpt>
<trkpt lat="46.03506" lon="7.95423"><ele>2256</ele><time>2024-08-09T13:43:31Z</time></trkpt>
<trkpt lat="46.03511" lon="7.95421"><ele>2256</ele><time>2024-08-09T13:43:33Z</time></trkpt>
<trkpt lat="46.0353" lon="7.95419"><ele>2256.2</ele><time>2024-08-09T13:43:41Z</time></trkpt>
<trkpt lat="46.03533" lon="7.95417"><ele>2256.2</ele><time>2024-08-09T13:43:45Z</time></trkpt>
<trkpt lat="46.03533" lon="7.95418"><ele>2256.2</ele><time>2024-08-09T13:43:53Z</time></trkpt>
<trkpt lat="46.03534" lon="7.95417"><ele>2255.8</ele><time>2024-08-09T13:43:59Z</time></trkpt>
<trkpt lat="46.03534" lon="7.95416"><ele>2255.6</ele><time>2024-08-09T13:44:04Z</time></trkpt>
<trkpt lat="46.03534" lon="7.95417"><ele>2255.8</ele><time>2024-08-09T13:44:12Z</time></trkpt>
<trkpt lat="46.03534" lon="7.95417"><ele>2255.8</ele><time>2024-08-09T13:44:14Z</time></trkpt>
<trkpt lat="46.03534" lon="7.95417"><ele>2255.8</ele><time>2024-08-09T13:44:15Z</time></trkpt>
<trkpt lat="46.03533" lon="7.95417"><ele>2255.8</ele><time>2024-08-09T13:44:25Z</time></trkpt>
<trkpt lat="46.03539" lon="7.95416"><ele>2255.6</ele><time>2024-08-09T13:44:30Z</time></trkpt>
<trkpt lat="46.03554" lon="7.95416"><ele>2255.6</ele><time>2024-08-09T13:44:35Z</time></trkpt>
<trkpt lat="46.03571" lon="7.95421"><ele>2255.2</ele><time>2024-08-09T13:44:39Z</time></trkpt>
<trkpt lat="46.0358" lon="7.95425"><ele>2255</ele><time>2024-08-09T13:44:41Z</time></trkpt>
<trkpt lat="46.03602" lon="7.95433"><ele>2254.8</ele><time>2024-08-09T13:44:45Z</time></trkpt>
<trkpt lat="46.03607" lon="7.95438"><ele>2254.6</ele><time>2024-08-09T13:44:46Z</time></trkpt>
<trkpt lat="46.03611" lon="7.95444"><ele>2254.6</ele><time>2024-08-09T13:44:47Z</time></trkpt>
<trkpt lat="46.03616" lon="7.95458"><ele>2254.4</ele><time>2024-08-09T13:44:49Z</time></trkpt>
<trkpt lat="46.03626" lon="7.95481"><ele>2254.6</ele><time>2024-08-09T13:44:54Z</time></trkpt>
<trkpt lat="46.03641" lon="7.9549"><ele>2254.4</ele><time>2024-08-09T13:44:58Z</time></trkpt>
<trkpt lat="46.0365" lon="7.955"><ele>2254</ele><time>2024-08-09T13:45:00Z</time></trkpt>
<trkpt lat="46.03658" lon="7.95512"><ele>2253.8</ele><time>2024-08-09T13:45:02Z</time></trkpt>
<trkpt lat="46.03664" lon="7.95515"><ele>2254</ele><time>2024-08-09T13:45:03Z</time></trkpt>
<trkpt lat="46.03675" lon="7.95514"><ele>2253.6</ele><time>2024-08-09T13:45:05Z</time></trkpt>
<trkpt lat="46.0368" lon="7.95511"><ele>2253.6</ele><time>2024-08-09T13:45:06Z</time></trkpt>
<trkpt lat="46.03691" lon="7.95503"><ele>2252</ele><time>2024-08-09T13:45:08Z</time></trkpt>
<trkpt lat="46.03695" lon="7.955"><ele>2250.6</ele><time>2024-08-09T13:45:09Z</time></trkpt>
<trkpt lat="46.0371" lon="7.95492"><ele>2250.6</ele><time>2024-08-09T13:45:12Z</time></trkpt>
<trkpt lat="46.03717" lon="7.9549"><ele>2251.8</ele><time>2024-08-09T13:45:14Z</time></trkpt>
<trkpt lat="46.03732" lon="7.95494"><ele>2251.8</ele><time>2024-08-09T13:45:19Z</time></trkpt>
<trkpt lat="46.03745" lon="7.95485"><ele>2251.4</ele><time>2024-08-09T13:45:23Z</time></trkpt>
<trkpt lat="46.0376" lon="7.95466"><ele>2251.4</ele><time>2024-08-09T13:45:28Z</time></trkpt>
<trkpt lat="46.03772" lon="7.95464"><ele>2251.4</ele><time>2024-08-09T13:45:31Z</time></trkpt>
<trkpt lat="46.03775" lon="7.95463"><ele>2251.6</ele><time>2024-08-09T13:45:32Z</time></trkpt>
<trkpt lat="46.03787" lon="7.95456"><ele>2251.2</ele><time>2024-08-09T13:45:35Z</time></trkpt>
<trkpt lat="46.03796" lon="7.95457"><ele>2251.2</ele><time>2024-08-09T13:45:37Z</time></trkpt>
<trkpt lat="46.0381" lon="7.9546"><ele>2251</ele><time>2024-08-09T13:45:40Z</time></trkpt>
<trkpt lat="46.03815" lon="7.9546"><ele>2250.8</ele><time>2024-08-09T13:45:41Z</time></trkpt>
<trkpt lat="46.0382" lon="7.95458"><ele>2250.4</ele><time>2024-08-09T13:45:42Z</time></trkpt>
<trkpt lat="46.03832" lon="7.95449"><ele>2250.2</ele><time>2024-08-09T13:45:44Z</time></trkpt>
<trkpt lat="46.03837" lon="7.95443"><ele>2250.2</ele><time>2024-08-09T13:45:45Z</time></trkpt>
<trkpt lat="46.03842" lon="7.95438"><ele>2250.2</ele><time>2024-08-09T13:45:46Z</time></trkpt>
<trkpt lat="46.03855" lon="7.95434"><ele>2251</ele><time>2024-08-09T13:45:48Z</time></trkpt>
<trkpt lat="46.03866" lon="7.95432"><ele>2251.4</ele><time>2024-08-09T13:45:50Z</time></trkpt>
<trkpt lat="46.03871" lon="7.9543"><ele>2251.6</ele><time>2024-08-09T13:45:51Z</time></trkpt>
<trkpt lat="46.03876" lon="7.9543"><ele>2252.2</ele><time>2024-08-09T13:45:52Z</time></trkpt>
<trkpt lat="46.0388" lon="7.95431"><ele>2252.4</ele><time>2024-08-09T13:45:53Z</time></trkpt>
<trkpt lat="46.03894" lon="7.95434"><ele>2253.4</ele><time>2024-08-09T13:45:56Z</time></trkpt>
<trkpt lat="46.0391" lon="7.95438"><ele>2253.6</ele><time>2024-08-09T13:46:00Z</time></trkpt>
<trkpt lat="46.0391" lon="7.95438"><ele>2253.6</ele><time>2024-08-09T13:46:00Z</time></trkpt>
<trkpt lat="46.0391" lon="7.95438"><ele>2253.6</ele><time>2024-08-09T13:46:00Z</time></trkpt>
<trkpt lat="46.0391" lon="7.95438"><ele>2253.6</ele><time>2024-08-09T13:46:00Z</time></trkpt>
<trkpt lat="46.0391" lon="7.95438"><ele>2253.6</ele><time>2024-08-09T13:46:00Z</time></trkpt>
<trkpt lat="46.04026" lon="7.95419"><ele>2257</ele><time>2024-08-09T13:46:39Z</time></trkpt>
<trkpt lat="46.04035" lon="7.95429"><ele>2257.6</ele><time>2024-08-09T13:46:42Z</time></trkpt>
<trkpt lat="46.04043" lon="7.95431"><ele>2257.8</ele><time>2024-08-09T13:46:45Z</time></trkpt>
<trkpt lat="46.04059" lon="7.95437"><ele>2258.2</ele><time>2024-08-09T13:46:51Z</time></trkpt>
<trkpt lat="46.04063" lon="7.95435"><ele>2258.2</ele><time>2024-08-09T13:46:52Z</time></trkpt>
<trkpt lat="46.04067" lon="7.95431"><ele>2258.4</ele><time>2024-08-09T13:46:54Z</time></trkpt>
<trkpt lat="46.04069" lon="7.95429"><ele>2258.6</ele><time>2024-08-09T13:46:55Z</time></trkpt>
<trkpt lat="46.0408" lon="7.95416"><ele>2259</ele><time>2024-08-09T13:47:00Z</time></trkpt>
<trkpt lat="46.04092" lon="7.95409"><ele>2259.2</ele><time>2024-08-09T13:47:05Z</time></trkpt>
<trkpt lat="46.04095" lon="7.95408"><ele>2259.6</ele><time>2024-08-09T13:47:07Z</time></trkpt>
<trkpt lat="46.041" lon="7.95403"><ele>2260.6</ele><time>2024-08-09T13:47:11Z</time></trkpt>
<trkpt lat="46.04101" lon="7.95401"><ele>2260.8</ele><time>2024-08-09T13:47:12Z</time></trkpt>
<trkpt lat="46.04103" lon="7.95397"><ele>2261.2</ele><time>2024-08-09T13:47:15Z</time></trkpt>
<trkpt lat="46.04111" lon="7.95386"><ele>2261.8</ele><time>2024-08-09T13:47:20Z</time></trkpt>
<trkpt lat="46.04112" lon="7.95384"><ele>2262</ele><time>2024-08-09T13:47:21Z</time></trkpt>
<trkpt lat="46.04117" lon="7.9538"><ele>2263.2</ele><time>2024-08-09T13:47:24Z</time></trkpt>
<trkpt lat="46.0412" lon="7.95379"><ele>2263.6</ele><time>2024-08-09T13:47:26Z</time></trkpt>
<trkpt lat="46.0413" lon="7.95375"><ele>2263.2</ele><time>2024-08-09T13:47:30Z</time></trkpt>
<trkpt lat="46.04143" lon="7.95372"><ele>2261.8</ele><time>2024-08-09T13:47:35Z</time></trkpt>
<trkpt lat="46.04147" lon="7.95371"><ele>2261</ele><time>2024-08-09T13:47:36Z</time></trkpt>
<trkpt lat="46.04154" lon="7.95369"><ele>2260.6</ele><time>2024-08-09T13:47:38Z</time></trkpt>
<trkpt lat="46.04159" lon="7.95367"><ele>2259.4</ele><time>2024-08-09T13:47:40Z</time></trkpt>
<trkpt lat="46.04165" lon="7.95365"><ele>2259.2</ele><time>2024-08-09T13:47:42Z</time></trkpt>
<trkpt lat="46.04174" lon="7.95364"><ele>2258.4</ele><time>2024-08-09T13:47:45Z</time></trkpt>
<trkpt lat="46.04182" lon="7.95364"><ele>2257.6</ele><time>2024-08-09T13:47:47Z</time></trkpt>
<trkpt lat="46.04187" lon="7.95364"><ele>2257.4</ele><time>2024-08-09T13:47:48Z</time></trkpt>
<trkpt lat="46.04191" lon="7.95365"><ele>2257</ele><time>2024-08-09T13:47:49Z</time></trkpt>
<trkpt lat="46.04204" lon="7.95368"><ele>2256.2</ele><time>2024-08-09T13:47:52Z</time></trkpt>
<trkpt lat="46.04221" lon="7.95372"><ele>2255.2</ele><time>2024-08-09T13:47:55Z</time></trkpt>
<trkpt lat="46.04231" lon="7.95375"><ele>2254</ele><time>2024-08-09T13:47:57Z</time></trkpt>
<trkpt lat="46.04239" lon="7.95379"><ele>2253</ele><time>2024-08-09T13:47:59Z</time></trkpt>
<trkpt lat="46.04247" lon="7.95383"><ele>2252.6</ele><time>2024-08-09T13:48:01Z</time></trkpt>
<trkpt lat="46.04262" lon="7.95386"><ele>2252.2</ele><time>2024-08-09T13:48:04Z</time></trkpt>
<trkpt lat="46.04273" lon="7.95383"><ele>2252.2</ele><time>2024-08-09T13:48:06Z</time></trkpt>
<trkpt lat="46.04283" lon="7.95377"><ele>2251.8</ele><time>2024-08-09T13:48:08Z</time></trkpt>
<trkpt lat="46.04297" lon="7.95367"><ele>2250.4</ele><time>2024-08-09T13:48:11Z</time></trkpt>
<trkpt lat="46.04302" lon="7.95364"><ele>2249</ele><time>2024-08-09T13:48:12Z</time></trkpt>
<trkpt lat="46.04312" lon="7.95359"><ele>2248</ele><time>2024-08-09T13:48:14Z</time></trkpt>
<trkpt lat="46.04327" lon="7.95357"><ele>2247.2</ele><time>2024-08-09T13:48:17Z</time></trkpt>
<trkpt lat="46.04331" lon="7.95358"><ele>2246.6</ele><time>2024-08-09T13:48:18Z</time></trkpt>
<trkpt lat="46.04335" lon="7.95358"><ele>2246</ele><time>2024-08-09T13:48:19Z</time></trkpt>
<trkpt lat="46.04344" lon="7.95359"><ele>2245.4</ele><time>2024-08-09T13:48:21Z</time></trkpt>
<trkpt lat="46.04351" lon="7.95362"><ele>2245.2</ele><time>2024-08-09T13:48:24Z</time></trkpt>
<trkpt lat="46.04351" lon="7.95364"><ele>2244.8</ele><time>2024-08-09T13:48:29Z</time></trkpt>
<trkpt lat="46.04351" lon="7.95364"><ele>2244.8</ele><time>2024-08-09T13:48:31Z</time></trkpt>
<trkpt lat="46.04351" lon="7.95364"><ele>2244.6</ele><time>2024-08-09T13:48:40Z</time></trkpt>
<trkpt lat="46.04351" lon="7.95363"><ele>2244.6</ele><time>2024-08-09T13:48:43Z</time></trkpt>
<trkpt lat="46.04351" lon="7.95363"><ele>2244.6</ele><time>2024-08-09T13:48:44Z</time></trkpt>
<trkpt lat="46.04351" lon="7.95363"><ele>2244.4</ele><time>2024-08-09T13:48:49Z</time></trkpt>
<trkpt lat="46.04352" lon="7.95361"><ele>2244.4</ele><time>2024-08-09T13:48:52Z</time></trkpt>
<trkpt lat="46.04353" lon="7.95361"><ele>2244.2</ele><time>2024-08-09T13:48:53Z</time></trkpt>
<trkpt lat="46.04361" lon="7.95362"><ele>2243.8</ele><time>2024-08-09T13:48:59Z</time></trkpt>
<trkpt lat="46.04367" lon="7.95367"><ele>2243.4</ele><time>2024-08-09T13:49:03Z</time></trkpt>
<trkpt lat="46.0437" lon="7.95368"><ele>2243.4</ele><time>2024-08-09T13:49:04Z</time></trkpt>
<trkpt lat="46.04373" lon="7.95369"><ele>2243</ele><time>2024-08-09T13:49:05Z</time></trkpt>
<trkpt lat="46.04393" lon="7.95379"><ele>2242</ele><time>2024-08-09T13:49:09Z</time></trkpt>
<trkpt lat="46.04399" lon="7.9538"><ele>2241.4</ele><time>2024-08-09T13:49:10Z</time></trkpt>
<trkpt lat="46.0441" lon="7.95376"><ele>2240.8</ele><time>2024-08-09T13:49:12Z</time></trkpt>
<trkpt lat="46.04438" lon="7.95359"><ele>2239.8</ele><time>2024-08-09T13:49:18Z</time></trkpt>
<trkpt lat="46.04446" lon="7.95353"><ele>2239.4</ele><time>2024-08-09T13:49:20Z</time></trkpt>
<trkpt lat="46.04446" lon="7.95353"><ele>2239.4</ele><time>2024-08-09T13:49:20Z</time></trkpt>
<trkpt lat="46.04446" lon="7.95353"><ele>2239.4</ele><time>2024-08-09T13:49:20Z</time></trkpt>
<trkpt lat="46.04446" lon="7.95353"><ele>2239.4</ele><time>2024-08-09T13:49:20Z</time></trkpt>
<trkpt lat="46.04632" lon="7.9545"><ele>2235.2</ele><time>2024-08-09T13:49:51Z</time></trkpt>
<trkpt lat="46.04645" lon="7.95453"><ele>2235.2</ele><time>2024-08-09T13:49:53Z</time></trkpt>
<trkpt lat="46.04652" lon="7.9545"><ele>2235.2</ele><time>2024-08-09T13:49:54Z</time></trkpt>
<trkpt lat="46.04665" lon="7.95451"><ele>2235.2</ele><time>2024-08-09T13:49:56Z</time></trkpt>
<trkpt lat="46.04677" lon="7.95453"><ele>2235</ele><time>2024-08-09T13:49:58Z</time></trkpt>
<trkpt lat="46.04684" lon="7.95452"><ele>2234.8</ele><time>2024-08-09T13:49:59Z</time></trkpt>
<trkpt lat="46.0469" lon="7.95452"><ele>2234.4</ele><time>2024-08-09T13:50:00Z</time></trkpt>
<trkpt lat="46.0471" lon="7.95448"><ele>2233.2</ele><time>2024-08-09T13:50:03Z</time></trkpt>
<trkpt lat="46.04721" lon="7.9545"><ele>2233</ele><time>2024-08-09T13:50:05Z</time></trkpt>
<trkpt lat="46.0473" lon="7.95449"><ele>2232.6</ele><time>2024-08-09T13:50:07Z</time></trkpt>
<trkpt lat="46.0474" lon="7.95447"><ele>2232.2</ele><time>2024-08-09T13:50:09Z</time></trkpt>
<trkpt lat="46.04758" lon="7.95437"><ele>2231</ele><time>2024-08-09T13:50:12Z</time></trkpt>
<trkpt lat="46.0477" lon="7.9543"><ele>2229.8</ele><time>2024-08-09T13:50:14Z</time></trkpt>
<trkpt lat="46.04777" lon="7.95427"><ele>2228.4</ele><time>2024-08-09T13:50:15Z</time></trkpt>
<trkpt lat="46.04782" lon="7.95427"><ele>2227.8</ele><time>2024-08-09T13:50:16Z</time></trkpt>
<trkpt lat="46.04792" lon="7.95434"><ele>2227</ele><time>2024-08-09T13:50:18Z</time></trkpt>
<trkpt lat="46.04798" lon="7.95448"><ele>2226</ele><time>2024-08-09T13:50:20Z</time></trkpt>
<trkpt lat="46.048" lon="7.95456"><ele>2225.6</ele><time>2024-08-09T13:50:21Z</time></trkpt>
<trkpt lat="46.04808" lon="7.95495"><ele>2225.2</ele><time>2024-08-09T13:50:27Z</time></trkpt>
<trkpt lat="46.04819" lon="7.95535"><ele>2225.6</ele><time>2024-08-09T13:50:35Z</time></trkpt>
<trkpt lat="46.04824" lon="7.95555"><ele>2225.4</ele><time>2024-08-09T13:50:41Z</time></trkpt>
<trkpt lat="46.04829" lon="7.95578"><ele>2225</ele><time>2024-08-09T13:50:48Z</time></trkpt>
<trkpt lat="46.04833" lon="7.95595"><ele>2225</ele><time>2024-08-09T13:50:53Z</time></trkpt>
<trkpt lat="46.04836" lon="7.95609"><ele>2226.4</ele><time>2024-08-09T13:50:57Z</time></trkpt>
<trkpt lat="46.04837" lon="7.95613"><ele>2226.4</ele><time>2024-08-09T13:50:58Z</time></trkpt>
<trkpt lat="46.04842" lon="7.95634"><ele>2226.2</ele><time>2024-08-09T13:51:04Z</time></trkpt>
<trkpt lat="46.04843" lon="7.95642"><ele>2226</ele><time>2024-08-09T13:51:06Z</time></trkpt>
<trkpt lat="46.04849" lon="7.95673"><ele>2225.4</ele><time>2024-08-09T13:51:14Z</time></trkpt>
<trkpt lat="46.04857" lon="7.95701"><ele>2225.2</ele><time>2024-08-09T13:51:20Z</time></trkpt>
<trkpt lat="46.04858" lon="7.95706"><ele>2225.4</ele><time>2024-08-09T13:51:21Z</time></trkpt>
<trkpt lat="46.04866" lon="7.95744"><ele>2225</ele><time>2024-08-09T13:51:29Z</time></trkpt>
<trkpt lat="46.04877" lon="7.95786"><ele>2225.2</ele><time>2024-08-09T13:51:38Z</time></trkpt>
<trkpt lat="46.04882" lon="7.95813"><ele>2224.8</ele><time>2024-08-09T13:51:44Z</time></trkpt>
<trkpt lat="46.04884" lon="7.95822"><ele>2224.6</ele><time>2024-08-09T13:51:46Z</time></trkpt>
<trkpt lat="46.04889" lon="7.95846"><ele>2224.4</ele><time>2024-08-09T13:51:51Z</time></trkpt>
<trkpt lat="46.04896" lon="7.95868"><ele>2224.4</ele><time>2024-08-09T13:51:56Z</time></trkpt>
<trkpt lat="46.04899" lon="7.95876"><ele>2224.8</ele><time>2024-08-09T13:51:58Z</time></trkpt>
<trkpt lat="46.04906" lon="7.95901"><ele>2224.6</ele><time>2024-08-09T13:52:04Z</time></trkpt>
<trkpt lat="46.04916" lon="7.95946"><ele>2224.2</ele><time>2024-08-09T13:52:13Z</time></trkpt>
<trkpt lat="46.04926" lon="7.9599"><ele>2224.6</ele><time>2024-08-09T13:52:22Z</time></trkpt>
<trkpt lat="46.04935" lon="7.96033"><ele>2224.4</ele><time>2024-08-09T13:52:30Z</time></trkpt>
<trkpt lat="46.04937" lon="7.9604"><ele>2224.4</ele><time>2024-08-09T13:52:31Z</time></trkpt>
<trkpt lat="46.04948" lon="7.96087"><ele>2224.2</ele><time>2024-08-09T13:52:36Z</time></trkpt>
<trkpt lat="46.04965" lon="7.96163"><ele>2224.4</ele><time>2024-08-09T13:52:43Z</time></trkpt>
<trkpt lat="46.04984" lon="7.96244"><ele>2224</ele><time>2024-08-09T13:52:51Z</time></trkpt>
<trkpt lat="46.04997" lon="7.96301"><ele>2224.8</ele><time>2024-08-09T13:52:58Z</time></trkpt>
<trkpt lat="46.05008" lon="7.96347"><ele>2224.6</ele><time>2024-08-09T13:53:05Z</time></trkpt>
<trkpt lat="46.05013" lon="7.96384"><ele>2224.6</ele><time>2024-08-09T13:53:13Z</time></trkpt>
<trkpt lat="46.05016" lon="7.96392"><ele>2224.8</ele><time>2024-08-09T13:53:17Z</time></trkpt>
<trkpt lat="46.05017" lon="7.96392"><ele>2224.4</ele><time>2024-08-09T13:53:22Z</time></trkpt>
<trkpt lat="46.05017" lon="7.96392"><ele>2224.2</ele><time>2024-08-09T13:53:25Z</time></trkpt>
<trkpt lat="46.05017" lon="7.96392"><ele>2224.2</ele><time>2024-08-09T13:53:26Z</time></trkpt>
<trkpt lat="46.05017" lon="7.96392"><ele>2224.2</ele><time>2024-08-09T13:53:27Z</time></trkpt>
<trkpt lat="46.05018" lon="7.96386"><ele>2224</ele><time>2024-08-09T13:53:34Z</time></trkpt>
<trkpt lat="46.05016" lon="7.96379"><ele>2224.4</ele><time>2024-08-09T13:53:39Z</time></trkpt>
<trkpt lat="46.05013" lon="7.96369"><ele>2224.4</ele><time>2024-08-09T13:53:44Z</time></trkpt>
<trkpt lat="46.0501" lon="7.96357"><ele>2223.8</ele><time>2024-08-09T13:53:50Z</time></trkpt>
<trkpt lat="46.0501" lon="7.96353"><ele>2223.6</ele><time>2024-08-09T13:53:52Z</time></trkpt>
<trkpt lat="46.05009" lon="7.96348"><ele>2224</ele><time>2024-08-09T13:53:57Z</time></trkpt>
<trkpt lat="46.05009" lon="7.96348"><ele>2224.8</ele><time>2024-08-09T13:54:00Z</time></trkpt>
<trkpt lat="46.05008" lon="7.96349"><ele>2225.4</ele><time>2024-08-09T13:54:05Z</time></trkpt>
<trkpt lat="46.05008" lon="7.96349"><ele>2225.2</ele><time>2024-08-09T13:54:10Z</time></trkpt>
<trkpt lat="46.05008" lon="7.96349"><ele>2225</ele><time>2024-08-09T13:54:12Z</time></trkpt>
<trkpt lat="46.05008" lon="7.96349"><ele>2224.8</ele><time>2024-08-09T13:54:14Z</time></trkpt>
<trkpt lat="46.05008" lon="7.96349"><ele>2224.8</ele><time>2024-08-09T13:54:16Z</time></trkpt>
<trkpt lat="46.05008" lon="7.96349"><ele>2224.8</ele><time>2024-08-09T13:54:17Z</time></trkpt>
<trkpt lat="46.05008" lon="7.96349"><ele>2224.8</ele><time>2024-08-09T13:54:20Z</time></trkpt>
<trkpt lat="46.05008" lon="7.96349"><ele>2224.8</ele><time>2024-08-09T13:54:23Z</time></trkpt>
<trkpt lat="46.05009" lon="7.96349"><ele>2224.8</ele><time>2024-08-09T13:54:32Z</time></trkpt>
<trkpt lat="46.05009" lon="7.96348"><ele>2224.8</ele><time>2024-08-09T13:54:43Z</time></trkpt>
<trkpt lat="46.05011" lon="7.96349"><ele>2224.8</ele><time>2024-08-09T13:54:50Z</time></trkpt>
<trkpt lat="46.0501" lon="7.96349"><ele>2224.8</ele><time>2024-08-09T13:54:52Z</time></trkpt>
<trkpt lat="46.05009" lon="7.96349"><ele>2224.8</ele><time>2024-08-09T13:55:01Z</time></trkpt>
<trkpt lat="46.05005" lon="7.9634"><ele>2224.4</ele><time>2024-08-09T13:55:07Z</time></trkpt>
<trkpt lat="46.05001" lon="7.96322"><ele>2224.4</ele><time>2024-08-09T13:55:14Z</time></trkpt>
<trkpt lat="46.04998" lon="7.96315"><ele>2224.2</ele><time>2024-08-09T13:55:17Z</time></trkpt>
<trkpt lat="46.04995" lon="7.96298"><ele>2224.4</ele><time>2024-08-09T13:55:22Z</time></trkpt>
<trkpt lat="46.04992" lon="7.96281"><ele>2224.4</ele><time>2024-08-09T13:55:27Z</time></trkpt>
<trkpt lat="46.04987" lon="7.96256"><ele>2223.8</ele><time>2024-08-09T13:55:31Z</time></trkpt>
<trkpt lat="46.04985" lon="7.96249"><ele>2223.6</ele><time>2024-08-09T13:55:32Z</time></trkpt>
<trkpt lat="46.04976" lon="7.96213"><ele>2223.2</ele><time>2024-08-09T13:55:36Z</time></trkpt>
<trkpt lat="46.04959" lon="7.96134"><ele>2222.6</ele><time>2024-08-09T13:55:44Z</time></trkpt>
<trkpt lat="46.04956" lon="7.96124"><ele>2222.4</ele><time>2024-08-09T13:55:45Z</time></trkpt>
<trkpt lat="46.04936" lon="7.96041"><ele>2223</ele><time>2024-08-09T13:55:53Z</time></trkpt>
<trkpt lat="46.04932" lon="7.96022"><ele>2223.2</ele><time>2024-08-09T13:55:55Z</time></trkpt>
<trkpt lat="46.04919" lon="7.95965"><ele>2223.2</ele><time>2024-08-09T13:56:02Z</time></trkpt>
<trkpt lat="46.04905" lon="7.95907"><ele>2223</ele><time>2024-08-09T13:56:10Z</time></trkpt>
<trkpt lat="46.04888" lon="7.95834"><ele>2223.2</ele><time>2024-08-09T13:56:21Z</time></trkpt>
<trkpt lat="46.04871" lon="7.95756"><ele>2222.4</ele><time>2024-08-09T13:56:32Z</time></trkpt>
<trkpt lat="46.04853" lon="7.95688"><ele>2222.2</ele><time>2024-08-09T13:56:42Z</time></trkpt>
<trkpt lat="46.0484" lon="7.95625"><ele>2222.2</ele><time>2024-08-09T13:56:51Z</time></trkpt>
<trkpt lat="46.04826" lon="7.95569"><ele>2222</ele><time>2024-08-09T13:56:59Z</time></trkpt>
<trkpt lat="46.0482" lon="7.95536"><ele>2221.6</ele><time>2024-08-09T13:57:04Z</time></trkpt>
<trkpt lat="46.04816" lon="7.95517"><ele>2221.2</ele><time>2024-08-09T13:57:07Z</time></trkpt>
<trkpt lat="46.04808" lon="7.95488"><ele>2221.6</ele><time>2024-08-09T13:57:13Z</time></trkpt>
<trkpt lat="46.04802" lon="7.95464"><ele>2221.8</ele><time>2024-08-09T13:57:19Z</time></trkpt>
<trkpt lat="46.04801" lon="7.9546"><ele>2221.4</ele><time>2024-08-09T13:57:20Z</time></trkpt>
<trkpt lat="46.048" lon="7.95457"><ele>2221.2</ele><time>2024-08-09T13:57:21Z</time></trkpt>
<trkpt lat="46.04798" lon="7.95449"><ele>2220.8</ele><time>2024-08-09T13:57:23Z</time></trkpt>
<trkpt lat="46.04797" lon="7.95446"><ele>2220.4</ele><time>2024-08-09T13:57:24Z</time></trkpt>
<trkpt lat="46.04799" lon="7.95434"><ele>2219.6</ele><time>2024-08-09T13:57:29Z</time></trkpt>
<trkpt lat="46.04804" lon="7.95435"><ele>2219.8</ele><time>2024-08-09T13:57:31Z</time></trkpt>
<trkpt lat="46.04806" lon="7.95438"><ele>2220</ele><time>2024-08-09T13:57:32Z</time></trkpt>
<trkpt lat="46.04812" lon="7.95457"><ele>2220.6</ele><time>2024-08-09T13:57:36Z</time></trkpt>
<trkpt lat="46.04818" lon="7.95476"><ele>2220</ele><time>2024-08-09T13:57:39Z</time></trkpt>
<trkpt lat="46.04821" lon="7.95482"><ele>2219.2</ele><time>2024-08-09T13:57:40Z</time></trkpt>
<trkpt lat="46.04825" lon="7.95496"><ele>2218.2</ele><time>2024-08-09T13:57:42Z</time></trkpt>
<trkpt lat="46.04828" lon="7.95503"><ele>2216.8</ele><time>2024-08-09T13:57:43Z</time></trkpt>
<trkpt lat="46.04834" lon="7.95518"><ele>2214.8</ele><time>2024-08-09T13:57:45Z</time></trkpt>
<trkpt lat="46.0484" lon="7.95534"><ele>2212.8</ele><time>2024-08-09T13:57:47Z</time></trkpt>
<trkpt lat="46.04843" lon="7.95543"><ele>2211.6</ele><time>2024-08-09T13:57:48Z</time></trkpt>
<trkpt lat="46.04847" lon="7.95552"><ele>2211</ele><time>2024-08-09T13:57:49Z</time></trkpt>
<trkpt lat="46.0485" lon="7.95561"><ele>2210.4</ele><time>2024-08-09T13:57:50Z</time></trkpt>
<trkpt lat="46.04857" lon="7.95579"><ele>2208</ele><time>2024-08-09T13:57:52Z</time></trkpt>
<trkpt lat="46.04865" lon="7.95596"><ele>2205.8</ele><time>2024-08-09T13:57:54Z</time></trkpt>
<trkpt lat="46.0487" lon="7.95605"><ele>2204.2</ele><time>2024-08-09T13:57:55Z</time></trkpt>
<trkpt lat="46.04875" lon="7.95611"><ele>2203.6</ele><time>2024-08-09T13:57:56Z</time></trkpt>
<trkpt lat="46.04881" lon="7.95617"><ele>2203</ele><time>2024-08-09T13:57:57Z</time></trkpt>
<trkpt lat="46.04895" lon="7.95629"><ele>2201.2</ele><time>2024-08-09T13:57:59Z</time></trkpt>
<trkpt lat="46.04901" lon="7.95636"><ele>2199.4</ele><time>2024-08-09T13:58:00Z</time></trkpt>
<trkpt lat="46.04919" lon="7.95652"><ele>2198.8</ele><time>2024-08-09T13:58:03Z</time></trkpt>
<trkpt lat="46.04923" lon="7.95657"><ele>2198.8</ele><time>2024-08-09T13:58:04Z</time></trkpt>
<trkpt lat="46.04928" lon="7.9566"><ele>2199</ele><time>2024-08-09T13:58:05Z</time></trkpt>
<trkpt lat="46.04937" lon="7.95662"><ele>2200</ele><time>2024-08-09T13:58:08Z</time></trkpt>
<trkpt lat="46.04938" lon="7.95662"><ele>2200.4</ele><time>2024-08-09T13:58:12Z</time></trkpt>
<trkpt lat="46.04939" lon="7.95662"><ele>2200.2</ele><time>2024-08-09T13:58:19Z</time></trkpt>
<trkpt lat="46.04939" lon="7.95662"><ele>2200.2</ele><time>2024-08-09T13:58:20Z</time></trkpt>
<trkpt lat="46.04937" lon="7.95661"><ele>2200</ele><time>2024-08-09T13:58:37Z</time></trkpt>
<trkpt lat="46.04937" lon="7.95661"><ele>2200.2</ele><time>2024-08-09T13:58:51Z</time></trkpt>
<trkpt lat="46.04937" lon="7.95661"><ele>2200.4</ele><time>2024-08-09T13:58:58Z</time></trkpt>
<trkpt lat="46.04936" lon="7.95659"><ele>2200.2</ele><time>2024-08-09T13:59:06Z</time></trkpt>
<trkpt lat="46.04936" lon="7.9566"><ele>2200</ele><time>2024-08-09T13:59:07Z</time></trkpt>
<trkpt lat="46.04936" lon="7.9566"><ele>2199.6</ele><time>2024-08-09T13:59:08Z</time></trkpt>
<trkpt lat="46.04937" lon="7.9566"><ele>2199.6</ele><time>2024-08-09T13:59:13Z</time></trkpt>
<trkpt lat="46.04938" lon="7.95664"><ele>2199.8</ele><time>2024-08-09T13:59:17Z</time></trkpt>
<trkpt lat="46.04938" lon="7.95669"><ele>2199.8</ele><time>2024-08-09T13:59:19Z</time></trkpt>
<trkpt lat="46.04936" lon="7.9567"><ele>2199.8</ele><time>2024-08-09T13:59:20Z</time></trkpt>
<trkpt lat="46.04935" lon="7.9567"><ele>2199.8</ele><time>2024-08-09T13:59:21Z</time></trkpt>
<trkpt lat="46.04929" lon="7.95667"><ele>2199.4</ele><time>2024-08-09T13:59:24Z</time></trkpt>
<trkpt lat="46.04918" lon="7.95652"><ele>2199</ele><time>2024-08-09T13:59:32Z</time></trkpt>
<trkpt lat="46.04905" lon="7.95639"><ele>2199.2</ele><time>2024-08-09T13:59:38Z</time></trkpt>
<trkpt lat="46.04892" lon="7.95635"><ele>2199.2</ele><time>2024-08-09T13:59:43Z</time></trkpt>
<trkpt lat="46.04888" lon="7.95645"><ele>2198.8</ele><time>2024-08-09T13:59:45Z</time></trkpt>
<trkpt lat="46.04889" lon="7.95653"><ele>2198.6</ele><time>2024-08-09T13:59:46Z</time></trkpt>
<trkpt lat="46.04891" lon="7.95661"><ele>2198.4</ele><time>2024-08-09T13:59:47Z</time></trkpt>
<trkpt lat="46.04894" lon="7.9567"><ele>2197.4</ele><time>2024-08-09T13:59:48Z</time></trkpt>
<trkpt lat="46.04898" lon="7.9568"><ele>2196.8</ele><time>2024-08-09T13:59:49Z</time></trkpt>
<trkpt lat="46.04902" lon="7.95691"><ele>2195.8</ele><time>2024-08-09T13:59:50Z</time></trkpt>
<trkpt lat="46.04907" lon="7.95702"><ele>2194.8</ele><time>2024-08-09T13:59:51Z</time></trkpt>
<trkpt lat="46.04917" lon="7.95728"><ele>2193.8</ele><time>2024-08-09T13:59:53Z</time></trkpt>
<trkpt lat="46.04922" lon="7.95741"><ele>2191.2</ele><time>2024-08-09T13:59:54Z</time></trkpt>
<trkpt lat="46.04933" lon="7.95769"><ele>2188</ele><time>2024-08-09T13:59:56Z</time></trkpt>
<trkpt lat="46.04944" lon="7.95798"><ele>2186.8</ele><time>2024-08-09T13:59:58Z</time></trkpt>
<trkpt lat="46.0495" lon="7.95813"><ele>2185</ele><time>2024-08-09T13:59:59Z</time></trkpt>
<trkpt lat="46.04956" lon="7.95828"><ele>2182.6</ele><time>2024-08-09T14:00:00Z</time></trkpt>
<trkpt lat="46.04968" lon="7.9586"><ele>2181.2</ele><time>2024-08-09T14:00:02Z</time></trkpt>
<trkpt lat="46.04981" lon="7.95893"><ele>2178.4</ele><time>2024-08-09T14:00:04Z</time></trkpt>
<trkpt lat="46.04988" lon="7.9591"><ele>2177.4</ele><time>2024-08-09T14:00:05Z</time></trkpt>
<trkpt lat="46.04995" lon="7.95927"><ele>2175.4</ele><time>2024-08-09T14:00:06Z</time></trkpt>
<trkpt lat="46.05001" lon="7.95944"><ele>2174.2</ele><time>2024-08-09T14:00:07Z</time></trkpt>
<trkpt lat="46.05008" lon="7.95962"><ele>2172.8</ele><time>2024-08-09T14:00:08Z</time></trkpt>
<trkpt lat="46.05015" lon="7.95979"><ele>2170</ele><time>2024-08-09T14:00:09Z</time></trkpt>
<trkpt lat="46.05021" lon="7.95997"><ele>2167.4</ele><time>2024-08-09T14:00:10Z</time></trkpt>
<trkpt lat="46.05028" lon="7.96015"><ele>2166.2</ele><time>2024-08-09T14:00:11Z</time></trkpt>
<trkpt lat="46.05042" lon="7.96051"><ele>2163.8</ele><time>2024-08-09T14:00:13Z</time></trkpt>
<trkpt lat="46.05049" lon="7.96069"><ele>2161</ele><time>2024-08-09T14:00:14Z</time></trkpt>
<trkpt lat="46.05056" lon="7.96088"><ele>2158.8</ele><time>2024-08-09T14:00:15Z</time></trkpt>
<trkpt lat="46.05069" lon="7.96125"><ele>2157.4</ele><time>2024-08-09T14:00:17Z</time></trkpt>
<trkpt lat="46.05083" lon="7.96163"><ele>2155.2</ele><time>2024-08-09T14:00:19Z</time></trkpt>
<trkpt lat="46.0509" lon="7.96183"><ele>2152.8</ele><time>2024-08-09T14:00:20Z</time></trkpt>
<trkpt lat="46.05096" lon="7.96202"><ele>2152</ele><time>2024-08-09T14:00:21Z</time></trkpt>
<trkpt lat="46.05102" lon="7.9622"><ele>2150.2</ele><time>2024-08-09T14:00:22Z</time></trkpt>
<trkpt lat="46.05109" lon="7.96236"><ele>2148.2</ele><time>2024-08-09T14:00:23Z</time></trkpt>
<trkpt lat="46.05117" lon="7.96247"><ele>2147.6</ele><time>2024-08-09T14:00:24Z</time></trkpt>
<trkpt lat="46.05128" lon="7.96254"><ele>2147.6</ele><time>2024-08-09T14:00:25Z</time></trkpt>
<trkpt lat="46.0514" lon="7.96255"><ele>2146</ele><time>2024-08-09T14:00:26Z</time></trkpt>
<trkpt lat="46.05151" lon="7.96251"><ele>2145.4</ele><time>2024-08-09T14:00:27Z</time></trkpt>
<trkpt lat="46.05163" lon="7.96247"><ele>2144.6</ele><time>2024-08-09T14:00:28Z</time></trkpt>
<trkpt lat="46.05186" lon="7.9624"><ele>2142.6</ele><time>2024-08-09T14:00:30Z</time></trkpt>
<trkpt lat="46.05198" lon="7.96237"><ele>2140.2</ele><time>2024-08-09T14:00:31Z</time></trkpt>
<trkpt lat="46.05211" lon="7.96233"><ele>2136.2</ele><time>2024-08-09T14:00:32Z</time></trkpt>
<trkpt lat="46.05235" lon="7.96223"><ele>2134.4</ele><time>2024-08-09T14:00:34Z</time></trkpt>
<trkpt lat="46.0526" lon="7.96209"><ele>2132.8</ele><time>2024-08-09T14:00:36Z</time></trkpt>
<trkpt lat="46.05273" lon="7.96202"><ele>2131</ele><time>2024-08-09T14:00:37Z</time></trkpt>
<trkpt lat="46.05286" lon="7.96197"><ele>2129.8</ele><time>2024-08-09T14:00:38Z</time></trkpt>
<trkpt lat="46.05299" lon="7.96196"><ele>2129</ele><time>2024-08-09T14:00:39Z</time></trkpt>
<trkpt lat="46.05312" lon="7.96198"><ele>2127.8</ele><time>2024-08-09T14:00:40Z</time></trkpt>
<trkpt lat="46.05325" lon="7.96203"><ele>2126</ele><time>2024-08-09T14:00:41Z</time></trkpt>
<trkpt lat="46.05351" lon="7.96206"><ele>2122.6</ele><time>2024-08-09T14:00:43Z</time></trkpt>
<trkpt lat="46.05364" lon="7.96203"><ele>2120.8</ele><time>2024-08-09T14:00:44Z</time></trkpt>
<trkpt lat="46.05376" lon="7.96201"><ele>2119.8</ele><time>2024-08-09T14:00:45Z</time></trkpt>
<trkpt lat="46.05389" lon="7.962"><ele>2118.8</ele><time>2024-08-09T14:00:46Z</time></trkpt>
<trkpt lat="46.05401" lon="7.96201"><ele>2117.8</ele><time>2024-08-09T14:00:47Z</time></trkpt>
<trkpt lat="46.05413" lon="7.96207"><ele>2116.6</ele><time>2024-08-09T14:00:48Z</time></trkpt>
<trkpt lat="46.05425" lon="7.96215"><ele>2115.4</ele><time>2024-08-09T14:00:49Z</time></trkpt>
<trkpt lat="46.05437" lon="7.96221"><ele>2113.2</ele><time>2024-08-09T14:00:50Z</time></trkpt>
<trkpt lat="46.05449" lon="7.96223"><ele>2112</ele><time>2024-08-09T14:00:51Z</time></trkpt>
<trkpt lat="46.05461" lon="7.96221"><ele>2111.4</ele><time>2024-08-09T14:00:52Z</time></trkpt>
<trkpt lat="46.05472" lon="7.96214"><ele>2111.2</ele><time>2024-08-09T14:00:53Z</time></trkpt>
<trkpt lat="46.05484" lon="7.96205"><ele>2109.4</ele><time>2024-08-09T14:00:54Z</time></trkpt>
<trkpt lat="46.05496" lon="7.96199"><ele>2107.2</ele><time>2024-08-09T14:00:55Z</time></trkpt>
<trkpt lat="46.05523" lon="7.96192"><ele>2103.6</ele><time>2024-08-09T14:00:57Z</time></trkpt>
<trkpt lat="46.05537" lon="7.96187"><ele>2102.2</ele><time>2024-08-09T14:00:58Z</time></trkpt>
<trkpt lat="46.05564" lon="7.96171"><ele>2100.4</ele><time>2024-08-09T14:01:00Z</time></trkpt>
<trkpt lat="46.05577" lon="7.96164"><ele>2097.8</ele><time>2024-08-09T14:01:01Z</time></trkpt>
<trkpt lat="46.0559" lon="7.96157"><ele>2096</ele><time>2024-08-09T14:01:02Z</time></trkpt>
<trkpt lat="46.05603" lon="7.96151"><ele>2094.4</ele><time>2024-08-09T14:01:03Z</time></trkpt>
<trkpt lat="46.05617" lon="7.96148"><ele>2092</ele><time>2024-08-09T14:01:04Z</time></trkpt>
<trkpt lat="46.05643" lon="7.96144"><ele>2088.4</ele><time>2024-08-09T14:01:06Z</time></trkpt>
<trkpt lat="46.05656" lon="7.96142"><ele>2087.2</ele><time>2024-08-09T14:01:07Z</time></trkpt>
<trkpt lat="46.05667" lon="7.96142"><ele>2086</ele><time>2024-08-09T14:01:08Z</time></trkpt>
<trkpt lat="46.05676" lon="7.96144"><ele>2085</ele><time>2024-08-09T14:01:09Z</time></trkpt>
<trkpt lat="46.05685" lon="7.96143"><ele>2084.6</ele><time>2024-08-09T14:01:10Z</time></trkpt>
<trkpt lat="46.05692" lon="7.9614"><ele>2084.4</ele><time>2024-08-09T14:01:11Z</time></trkpt>
<trkpt lat="46.05695" lon="7.96126"><ele>2083.2</ele><time>2024-08-09T14:01:13Z</time></trkpt>
<trkpt lat="46.05692" lon="7.96119"><ele>2081.4</ele><time>2024-08-09T14:01:14Z</time></trkpt>
<trkpt lat="46.05686" lon="7.96114"><ele>2080.8</ele><time>2024-08-09T14:01:15Z</time></trkpt>
<trkpt lat="46.05679" lon="7.96111"><ele>2080.4</ele><time>2024-08-09T14:01:16Z</time></trkpt>
<trkpt lat="46.05671" lon="7.96109"><ele>2080.4</ele><time>2024-08-09T14:01:17Z</time></trkpt>
<trkpt lat="46.05663" lon="7.96106"><ele>2080.2</ele><time>2024-08-09T14:01:18Z</time></trkpt>
<trkpt lat="46.05654" lon="7.96103"><ele>2079</ele><time>2024-08-09T14:01:19Z</time></trkpt>
<trkpt lat="46.05645" lon="7.96098"><ele>2076.8</ele><time>2024-08-09T14:01:20Z</time></trkpt>
<trkpt lat="46.05625" lon="7.96091"><ele>2075.6</ele><time>2024-08-09T14:01:22Z</time></trkpt>
<trkpt lat="46.056" lon="7.96083"><ele>2073.8</ele><time>2024-08-09T14:01:25Z</time></trkpt>
<trkpt lat="46.05593" lon="7.96082"><ele>2073</ele><time>2024-08-09T14:01:26Z</time></trkpt>
<trkpt lat="46.05587" lon="7.96079"><ele>2071.4</ele><time>2024-08-09T14:01:27Z</time></trkpt>
<trkpt lat="46.05584" lon="7.96074"><ele>2070.2</ele><time>2024-08-09T14:01:28Z</time></trkpt>
<trkpt lat="46.05584" lon="7.96069"><ele>2069.4</ele><time>2024-08-09T14:01:29Z</time></trkpt>
<trkpt lat="46.05586" lon="7.96066"><ele>2069.2</ele><time>2024-08-09T14:01:30Z</time></trkpt>
<trkpt lat="46.05589" lon="7.96065"><ele>2068.6</ele><time>2024-08-09T14:01:31Z</time></trkpt>
<trkpt lat="46.05601" lon="7.96061"><ele>2068</ele><time>2024-08-09T14:01:34Z</time></trkpt>
<trkpt lat="46.05611" lon="7.96057"><ele>2067.4</ele><time>2024-08-09T14:01:36Z</time></trkpt>
<trkpt lat="46.05616" lon="7.96054"><ele>2067</ele><time>2024-08-09T14:01:37Z</time></trkpt>
<trkpt lat="46.05632" lon="7.96047"><ele>2065.8</ele><time>2024-08-09T14:01:40Z</time></trkpt>
<trkpt lat="46.05638" lon="7.96045"><ele>2064.6</ele><time>2024-08-09T14:01:41Z</time></trkpt>
<trkpt lat="46.05645" lon="7.96043"><ele>2064.2</ele><time>2024-08-09T14:01:42Z</time></trkpt>
<trkpt lat="46.05652" lon="7.96042"><ele>2063.4</ele><time>2024-08-09T14:01:43Z</time></trkpt>
<trkpt lat="46.05665" lon="7.96037"><ele>2062.2</ele><time>2024-08-09T14:01:45Z</time></trkpt>
<trkpt lat="46.05672" lon="7.96035"><ele>2060.8</ele><time>2024-08-09T14:01:46Z</time></trkpt>
<trkpt lat="46.05685" lon="7.9603"><ele>2059.2</ele><time>2024-08-09T14:01:48Z</time></trkpt>
<trkpt lat="46.05698" lon="7.96024"><ele>2057.6</ele><time>2024-08-09T14:01:50Z</time></trkpt>
<trkpt lat="46.05708" lon="7.96019"><ele>2056</ele><time>2024-08-09T14:01:52Z</time></trkpt>
<trkpt lat="46.05713" lon="7.96018"><ele>2054.8</ele><time>2024-08-09T14:01:53Z</time></trkpt>
<trkpt lat="46.05719" lon="7.96015"><ele>2053.6</ele><time>2024-08-09T14:01:54Z</time></trkpt>
<trkpt lat="46.05729" lon="7.96013"><ele>2052.8</ele><time>2024-08-09T14:01:56Z</time></trkpt>
<trkpt lat="46.05734" lon="7.96012"><ele>2051.6</ele><time>2024-08-09T14:01:57Z</time></trkpt>
<trkpt lat="46.05738" lon="7.96013"><ele>2050.4</ele><time>2024-08-09T14:01:58Z</time></trkpt>
<trkpt lat="46.05746" lon="7.96017"><ele>2049.4</ele><time>2024-08-09T14:02:00Z</time></trkpt>
<trkpt lat="46.05749" lon="7.96025"><ele>2048.6</ele><time>2024-08-09T14:02:02Z</time></trkpt>
<trkpt lat="46.05752" lon="7.96034"><ele>2047.8</ele><time>2024-08-09T14:02:04Z</time></trkpt>
<trkpt lat="46.05755" lon="7.96043"><ele>2046.6</ele><time>2024-08-09T14:02:06Z</time></trkpt>
<trkpt lat="46.05758" lon="7.96046"><ele>2045.6</ele><time>2024-08-09T14:02:07Z</time></trkpt>
<trkpt lat="46.05761" lon="7.9605"><ele>2045.2</ele><time>2024-08-09T14:02:08Z</time></trkpt>
<trkpt lat="46.05763" lon="7.96053"><ele>2044.4</ele><time>2024-08-09T14:02:09Z</time></trkpt>
<trkpt lat="46.05771" lon="7.96058"><ele>2043.2</ele><time>2024-08-09T14:02:12Z</time></trkpt>
<trkpt lat="46.05773" lon="7.96057"><ele>2042.8</ele><time>2024-08-09T14:02:13Z</time></trkpt>
<trkpt lat="46.05777" lon="7.96059"><ele>2042.2</ele><time>2024-08-09T14:02:15Z</time></trkpt>
<trkpt lat="46.05781" lon="7.96063"><ele>2041.4</ele><time>2024-08-09T14:02:18Z</time></trkpt>
<trkpt lat="46.05781" lon="7.96063"><ele>2041</ele><time>2024-08-09T14:02:20Z</time></trkpt>
<trkpt lat="46.05783" lon="7.96064"><ele>2040.6</ele><time>2024-08-09T14:02:23Z</time></trkpt>
<trkpt lat="46.05787" lon="7.96067"><ele>2039.8</ele><time>2024-08-09T14:02:30Z</time></trkpt>
<trkpt lat="46.05791" lon="7.9607"><ele>2039.4</ele><time>2024-08-09T14:02:35Z</time></trkpt>
<trkpt lat="46.05801" lon="7.9608"><ele>2038.8</ele><time>2024-08-09T14:02:40Z</time></trkpt>
<trkpt lat="46.05803" lon="7.96084"><ele>2038.8</ele><time>2024-08-09T14:02:41Z</time></trkpt>
<trkpt lat="46.05808" lon="7.96093"><ele>2037.8</ele><time>2024-08-09T14:02:44Z</time></trkpt>
<trkpt lat="46.0581" lon="7.96095"><ele>2037</ele><time>2024-08-09T14:02:45Z</time></trkpt>
<trkpt lat="46.05812" lon="7.96097"><ele>2036.6</ele><time>2024-08-09T14:02:46Z</time></trkpt>
<trkpt lat="46.05823" lon="7.96105"><ele>2035.4</ele><time>2024-08-09T14:02:50Z</time></trkpt>
<trkpt lat="46.05832" lon="7.96108"><ele>2034</ele><time>2024-08-09T14:02:53Z</time></trkpt>
<trkpt lat="46.05838" lon="7.96109"><ele>2033.2</ele><time>2024-08-09T14:02:55Z</time></trkpt>
<trkpt lat="46.05843" lon="7.96111"><ele>2032.8</ele><time>2024-08-09T14:02:57Z</time></trkpt>
<trkpt lat="46.05848" lon="7.96114"><ele>2032.2</ele><time>2024-08-09T14:02:59Z</time></trkpt>
<trkpt lat="46.05854" lon="7.96115"><ele>2031.8</ele><time>2024-08-09T14:03:01Z</time></trkpt>
<trkpt lat="46.05856" lon="7.96115"><ele>2031.6</ele><time>2024-08-09T14:03:02Z</time></trkpt>
<trkpt lat="46.05866" lon="7.96116"><ele>2030.6</ele><time>2024-08-09T14:03:06Z</time></trkpt>
<trkpt lat="46.0587" lon="7.96116"><ele>2030.4</ele><time>2024-08-09T14:03:07Z</time></trkpt>
<trkpt lat="46.05881" lon="7.96116"><ele>2029.6</ele><time>2024-08-09T14:03:10Z</time></trkpt>
<trkpt lat="46.05893" lon="7.96119"><ele>2028</ele><time>2024-08-09T14:03:13Z</time></trkpt>
<trkpt lat="46.05897" lon="7.96119"><ele>2026.8</ele><time>2024-08-09T14:03:14Z</time></trkpt>
<trkpt lat="46.05907" lon="7.96124"><ele>2025.6</ele><time>2024-08-09T14:03:17Z</time></trkpt>
<trkpt lat="46.05922" lon="7.96126"><ele>2024</ele><time>2024-08-09T14:03:21Z</time></trkpt>
<trkpt lat="46.05926" lon="7.96124"><ele>2023.6</ele><time>2024-08-09T14:03:22Z</time></trkpt>
<trkpt lat="46.05935" lon="7.96122"><ele>2023.2</ele><time>2024-08-09T14:03:24Z</time></trkpt>
<trkpt lat="46.05939" lon="7.96124"><ele>2022.6</ele><time>2024-08-09T14:03:25Z</time></trkpt>
<trkpt lat="46.05943" lon="7.96124"><ele>2022</ele><time>2024-08-09T14:03:26Z</time></trkpt>
<trkpt lat="46.0595" lon="7.96127"><ele>2021.4</ele><time>2024-08-09T14:03:28Z</time></trkpt>
<trkpt lat="46.05955" lon="7.96129"><ele>2019.8</ele><time>2024-08-09T14:03:30Z</time></trkpt>
<trkpt lat="46.05957" lon="7.96129"><ele>2019.6</ele><time>2024-08-09T14:03:31Z</time></trkpt>
<trkpt lat="46.05963" lon="7.96133"><ele>2018.8</ele><time>2024-08-09T14:03:35Z</time></trkpt>
<trkpt lat="46.05964" lon="7.96134"><ele>2018.4</ele><time>2024-08-09T14:03:37Z</time></trkpt>
<trkpt lat="46.05965" lon="7.96135"><ele>2017.6</ele><time>2024-08-09T14:03:42Z</time></trkpt>
<trkpt lat="46.05965" lon="7.96135"><ele>2017.6</ele><time>2024-08-09T14:03:43Z</time></trkpt>
<trkpt lat="46.05975" lon="7.96132"><ele>2017.4</ele><time>2024-08-09T14:03:47Z</time></trkpt>
<trkpt lat="46.05987" lon="7.96129"><ele>2016.2</ele><time>2024-08-09T14:03:50Z</time></trkpt>
<trkpt lat="46.05996" lon="7.96128"><ele>2015.4</ele><time>2024-08-09T14:03:52Z</time></trkpt>
<trkpt lat="46.06" lon="7.96129"><ele>2015.2</ele><time>2024-08-09T14:03:53Z</time></trkpt>
<trkpt lat="46.06006" lon="7.96134"><ele>2014</ele><time>2024-08-09T14:03:55Z</time></trkpt>
<trkpt lat="46.06008" lon="7.96136"><ele>2013.8</ele><time>2024-08-09T14:03:56Z</time></trkpt>
<trkpt lat="46.06012" lon="7.96137"><ele>2013</ele><time>2024-08-09T14:03:58Z</time></trkpt>
<trkpt lat="46.06017" lon="7.96137"><ele>2012</ele><time>2024-08-09T14:04:02Z</time></trkpt>
<trkpt lat="46.06018" lon="7.96137"><ele>2011.8</ele><time>2024-08-09T14:04:04Z</time></trkpt>
<trkpt lat="46.0602" lon="7.96137"><ele>2011.6</ele><time>2024-08-09T14:04:09Z</time></trkpt>
<trkpt lat="46.06022" lon="7.96137"><ele>2011</ele><time>2024-08-09T14:04:15Z</time></trkpt>
<trkpt lat="46.06025" lon="7.96137"><ele>2011</ele><time>2024-08-09T14:04:21Z</time></trkpt>
<trkpt lat="46.06024" lon="7.96136"><ele>2010.8</ele><time>2024-08-09T14:04:22Z</time></trkpt>
<trkpt lat="46.06026" lon="7.96135"><ele>2010.6</ele><time>2024-08-09T14:04:24Z</time></trkpt>
<trkpt lat="46.0603" lon="7.96135"><ele>2010.6</ele><time>2024-08-09T14:04:26Z</time></trkpt>
<trkpt lat="46.06042" lon="7.96137"><ele>2010</ele><time>2024-08-09T14:04:31Z</time></trkpt>
<trkpt lat="46.06046" lon="7.96136"><ele>2009.6</ele><time>2024-08-09T14:04:32Z</time></trkpt>
<trkpt lat="46.0606" lon="7.96129"><ele>2008.8</ele><time>2024-08-09T14:04:36Z</time></trkpt>
<trkpt lat="46.06065" lon="7.96128"><ele>2007.8</ele><time>2024-08-09T14:04:37Z</time></trkpt>
<trkpt lat="46.06069" lon="7.96127"><ele>2006.6</ele><time>2024-08-09T14:04:38Z</time></trkpt>
<trkpt lat="46.06083" lon="7.96128"><ele>2005.6</ele><time>2024-08-09T14:04:42Z</time></trkpt>
<trkpt lat="46.06087" lon="7.96129"><ele>2005.4</ele><time>2024-08-09T14:04:43Z</time></trkpt>
<trkpt lat="46.06096" lon="7.96132"><ele>2004.2</ele><time>2024-08-09T14:04:45Z</time></trkpt>
<trkpt lat="46.061" lon="7.96132"><ele>2003.4</ele><time>2024-08-09T14:04:46Z</time></trkpt>
<trkpt lat="46.06105" lon="7.96131"><ele>2002.8</ele><time>2024-08-09T14:04:47Z</time></trkpt>
<trkpt lat="46.06121" lon="7.9613"><ele>2001.6</ele><time>2024-08-09T14:04:50Z</time></trkpt>
<trkpt lat="46.06131" lon="7.9613"><ele>2000.2</ele><time>2024-08-09T14:04:52Z</time></trkpt>
<trkpt lat="46.06137" lon="7.96131"><ele>1998.8</ele><time>2024-08-09T14:04:54Z</time></trkpt>
<trkpt lat="46.06138" lon="7.96132"><ele>1998.2</ele><time>2024-08-09T14:04:56Z</time></trkpt>
<trkpt lat="46.06138" lon="7.96131"><ele>1997.8</ele><time>2024-08-09T14:05:01Z</time></trkpt>
<trkpt lat="46.0614" lon="7.96132"><ele>1997.8</ele><time>2024-08-09T14:05:04Z</time></trkpt>
<trkpt lat="46.06142" lon="7.96132"><ele>1997.4</ele><time>2024-08-09T14:05:06Z</time></trkpt>
<trkpt lat="46.06143" lon="7.96132"><ele>1997.2</ele><time>2024-08-09T14:05:07Z</time></trkpt>
<trkpt lat="46.0615" lon="7.9613"><ele>1996.8</ele><time>2024-08-09T14:05:13Z</time></trkpt>
<trkpt lat="46.06155" lon="7.9613"><ele>1996.6</ele><time>2024-08-09T14:05:15Z</time></trkpt>
<trkpt lat="46.06162" lon="7.96126"><ele>1996.4</ele><time>2024-08-09T14:05:17Z</time></trkpt>
<trkpt lat="46.0617" lon="7.96123"><ele>1995</ele><time>2024-08-09T14:05:20Z</time></trkpt>
<trkpt lat="46.06177" lon="7.96128"><ele>1994.6</ele><time>2024-08-09T14:05:22Z</time></trkpt>
<trkpt lat="46.0618" lon="7.96131"><ele>1993.6</ele><time>2024-08-09T14:05:23Z</time></trkpt>
<trkpt lat="46.06191" lon="7.96139"><ele>1992.4</ele><time>2024-08-09T14:05:26Z</time></trkpt>
<trkpt lat="46.062" lon="7.96138"><ele>1991.6</ele><time>2024-08-09T14:05:28Z</time></trkpt>
<trkpt lat="46.06202" lon="7.96134"><ele>1991.4</ele><time>2024-08-09T14:05:29Z</time></trkpt>
<trkpt lat="46.06201" lon="7.96125"><ele>1990.8</ele><time>2024-08-09T14:05:31Z</time></trkpt>
<trkpt lat="46.06196" lon="7.96119"><ele>1990.4</ele><time>2024-08-09T14:05:33Z</time></trkpt>
<trkpt lat="46.0619" lon="7.96115"><ele>1989.8</ele><time>2024-08-09T14:05:35Z</time></trkpt>
<trkpt lat="46.06186" lon="7.96113"><ele>1989.2</ele><time>2024-08-09T14:05:36Z</time></trkpt>
<trkpt lat="46.06173" lon="7.96104"><ele>1988.4</ele><time>2024-08-09T14:05:40Z</time></trkpt>
<trkpt lat="46.06168" lon="7.96103"><ele>1988.2</ele><time>2024-08-09T14:05:41Z</time></trkpt>
<trkpt lat="46.06156" lon="7.961"><ele>1986.2</ele><time>2024-08-09T14:05:44Z</time></trkpt>
<trkpt lat="46.06147" lon="7.961"><ele>1984.8</ele><time>2024-08-09T14:05:47Z</time></trkpt>
<trkpt lat="46.06145" lon="7.961"><ele>1984.6</ele><time>2024-08-09T14:05:48Z</time></trkpt>
<trkpt lat="46.06133" lon="7.96099"><ele>1983.6</ele><time>2024-08-09T14:05:52Z</time></trkpt>
<trkpt lat="46.06131" lon="7.96097"><ele>1983.6</ele><time>2024-08-09T14:05:53Z</time></trkpt>
<trkpt lat="46.06126" lon="7.96092"><ele>1982.6</ele><time>2024-08-09T14:05:55Z</time></trkpt>
<trkpt lat="46.06117" lon="7.96084"><ele>1981</ele><time>2024-08-09T14:05:58Z</time></trkpt>
<trkpt lat="46.0611" lon="7.96079"><ele>1979.8</ele><time>2024-08-09T14:06:01Z</time></trkpt>
<trkpt lat="46.06105" lon="7.96079"><ele>1978.8</ele><time>2024-08-09T14:06:03Z</time></trkpt>
<trkpt lat="46.06104" lon="7.96079"><ele>1978.4</ele><time>2024-08-09T14:06:04Z</time></trkpt>
<trkpt lat="46.06105" lon="7.9608"><ele>1977.8</ele><time>2024-08-09T14:06:07Z</time></trkpt>
<trkpt lat="46.06105" lon="7.9608"><ele>1977.6</ele><time>2024-08-09T14:06:09Z</time></trkpt>
<trkpt lat="46.06104" lon="7.96079"><ele>1977.4</ele><time>2024-08-09T14:06:14Z</time></trkpt>
<trkpt lat="46.06104" lon="7.96079"><ele>1977.4</ele><time>2024-08-09T14:06:15Z</time></trkpt>
<trkpt lat="46.06104" lon="7.96078"><ele>1977.4</ele><time>2024-08-09T14:06:20Z</time></trkpt>
<trkpt lat="46.06105" lon="7.96077"><ele>1977.4</ele><time>2024-08-09T14:06:29Z</time></trkpt>
<trkpt lat="46.06104" lon="7.96077"><ele>1977</ele><time>2024-08-09T14:06:38Z</time></trkpt>
<trkpt lat="46.06102" lon="7.96077"><ele>1977</ele><time>2024-08-09T14:06:39Z</time></trkpt>
<trkpt lat="46.06092" lon="7.96076"><ele>1976.6</ele><time>2024-08-09T14:06:42Z</time></trkpt>
<trkpt lat="46.06088" lon="7.96074"><ele>1976.6</ele><time>2024-08-09T14:06:43Z</time></trkpt>
<trkpt lat="46.06081" lon="7.96069"><ele>1975</ele><time>2024-08-09T14:06:45Z</time></trkpt>
<trkpt lat="46.06068" lon="7.96058"><ele>1974</ele><time>2024-08-09T14:06:49Z</time></trkpt>
<trkpt lat="46.06065" lon="7.96057"><ele>1973.4</ele><time>2024-08-09T14:06:50Z</time></trkpt>
<trkpt lat="46.06058" lon="7.96057"><ele>1972</ele><time>2024-08-09T14:06:54Z</time></trkpt>
<trkpt lat="46.06059" lon="7.96056"><ele>1971.2</ele><time>2024-08-09T14:07:00Z</time></trkpt>
<trkpt lat="46.06058" lon="7.96056"><ele>1970.8</ele><time>2024-08-09T14:07:03Z</time></trkpt>
<trkpt lat="46.06057" lon="7.96057"><ele>1970.8</ele><time>2024-08-09T14:07:06Z</time></trkpt>
<trkpt lat="46.06055" lon="7.96055"><ele>1971</ele><time>2024-08-09T14:07:07Z</time></trkpt>
<trkpt lat="46.06043" lon="7.96044"><ele>1970.6</ele><time>2024-08-09T14:07:11Z</time></trkpt>
<trkpt lat="46.06036" lon="7.96042"><ele>1969.6</ele><time>2024-08-09T14:07:13Z</time></trkpt>
<trkpt lat="46.06033" lon="7.96043"><ele>1968.2</ele><time>2024-08-09T14:07:15Z</time></trkpt>
<trkpt lat="46.06031" lon="7.96043"><ele>1967</ele><time>2024-08-09T14:07:19Z</time></trkpt>
<trkpt lat="46.06025" lon="7.9604"><ele>1966.2</ele><time>2024-08-09T14:07:26Z</time></trkpt>
<trkpt lat="46.06023" lon="7.96039"><ele>1966</ele><time>2024-08-09T14:07:28Z</time></trkpt>
<trkpt lat="46.06017" lon="7.96033"><ele>1965.4</ele><time>2024-08-09T14:07:34Z</time></trkpt>
<trkpt lat="46.06012" lon="7.96029"><ele>1965.4</ele><time>2024-08-09T14:07:39Z</time></trkpt>
<trkpt lat="46.06002" lon="7.96026"><ele>1965</ele><time>2024-08-09T14:07:42Z</time></trkpt>
<trkpt lat="46.05998" lon="7.96025"><ele>1964.6</ele><time>2024-08-09T14:07:43Z</time></trkpt>
<trkpt lat="46.0599" lon="7.96024"><ele>1963.8</ele><time>2024-08-09T14:07:45Z</time></trkpt>
<trkpt lat="46.05978" lon="7.96018"><ele>1962</ele><time>2024-08-09T14:07:48Z</time></trkpt>
<trkpt lat="46.05971" lon="7.96011"><ele>1962</ele><time>2024-08-09T14:07:50Z</time></trkpt>
<trkpt lat="46.05967" lon="7.96001"><ele>1961.8</ele><time>2024-08-09T14:07:52Z</time></trkpt>
<trkpt lat="46.05967" lon="7.95983"><ele>1960.6</ele><time>2024-08-09T14:07:56Z</time></trkpt>
<trkpt lat="46.05968" lon="7.95976"><ele>1960.6</ele><time>2024-08-09T14:07:58Z</time></trkpt>
<trkpt lat="46.05972" lon="7.95966"><ele>1960</ele><time>2024-08-09T14:08:01Z</time></trkpt>
<trkpt lat="46.05973" lon="7.95964"><ele>1959.4</ele><time>2024-08-09T14:08:02Z</time></trkpt>
<trkpt lat="46.05973" lon="7.95964"><ele>1958.8</ele><time>2024-08-09T14:08:05Z</time></trkpt>
<trkpt lat="46.05976" lon="7.9596"><ele>1958.8</ele><time>2024-08-09T14:08:10Z</time></trkpt>
<trkpt lat="46.05978" lon="7.95959"><ele>1958.2</ele><time>2024-08-09T14:08:12Z</time></trkpt>
<trkpt lat="46.05983" lon="7.95957"><ele>1957.2</ele><time>2024-08-09T14:08:17Z</time></trkpt>
<trkpt lat="46.05984" lon="7.95957"><ele>1957</ele><time>2024-08-09T14:08:18Z</time></trkpt>
<trkpt lat="46.05986" lon="7.95954"><ele>1956</ele><time>2024-08-09T14:08:22Z</time></trkpt>
<trkpt lat="46.05989" lon="7.95952"><ele>1955.6</ele><time>2024-08-09T14:08:26Z</time></trkpt>
<trkpt lat="46.05991" lon="7.9595"><ele>1954.8</ele><time>2024-08-09T14:08:30Z</time></trkpt>
<trkpt lat="46.05992" lon="7.9595"><ele>1954.8</ele><time>2024-08-09T14:08:32Z</time></trkpt>
<trkpt lat="46.05993" lon="7.9595"><ele>1954.8</ele><time>2024-08-09T14:08:35Z</time></trkpt>
<trkpt lat="46.05993" lon="7.95951"><ele>1954.8</ele><time>2024-08-09T14:08:37Z</time></trkpt>
<trkpt lat="46.05994" lon="7.95952"><ele>1954.8</ele><time>2024-08-09T14:08:39Z</time></trkpt>
<trkpt lat="46.05997" lon="7.95951"><ele>1954</ele><time>2024-08-09T14:08:46Z</time></trkpt>
<trkpt lat="46.06" lon="7.95951"><ele>1953.8</ele><time>2024-08-09T14:08:49Z</time></trkpt>
<trkpt lat="46.06001" lon="7.95951"><ele>1953.2</ele><time>2024-08-09T14:08:52Z</time></trkpt>
<trkpt lat="46.06003" lon="7.9595"><ele>1953.2</ele><time>2024-08-09T14:08:58Z</time></trkpt>
<trkpt lat="46.06003" lon="7.9595"><ele>1953.2</ele><time>2024-08-09T14:08:59Z</time></trkpt>
<trkpt lat="46.06003" lon="7.9595"><ele>1953.2</ele><time>2024-08-09T14:09:01Z</time></trkpt>
<trkpt lat="46.06004" lon="7.95948"><ele>1953.2</ele><time>2024-08-09T14:09:10Z</time></trkpt>
<trkpt lat="46.06005" lon="7.95947"><ele>1952.6</ele><time>2024-08-09T14:09:13Z</time></trkpt>
<trkpt lat="46.06005" lon="7.95949"><ele>1952.2</ele><time>2024-08-09T14:09:17Z</time></trkpt>
<trkpt lat="46.06006" lon="7.9595"><ele>1952.2</ele><time>2024-08-09T14:09:21Z</time></trkpt>
<trkpt lat="46.06007" lon="7.9595"><ele>1952</ele><time>2024-08-09T14:09:23Z</time></trkpt>
<trkpt lat="46.06009" lon="7.95949"><ele>1951.6</ele><time>2024-08-09T14:09:25Z</time></trkpt>
<trkpt lat="46.06013" lon="7.95949"><ele>1951</ele><time>2024-08-09T14:09:29Z</time></trkpt>
<trkpt lat="46.06017" lon="7.95947"><ele>1950.6</ele><time>2024-08-09T14:09:35Z</time></trkpt>
<trkpt lat="46.06024" lon="7.95949"><ele>1949.4</ele><time>2024-08-09T14:09:42Z</time></trkpt>
<trkpt lat="46.0603" lon="7.95948"><ele>1948.4</ele><time>2024-08-09T14:09:48Z</time></trkpt>
<trkpt lat="46.06033" lon="7.95948"><ele>1948.4</ele><time>2024-08-09T14:09:51Z</time></trkpt>
<trkpt lat="46.06035" lon="7.95948"><ele>1948.4</ele><time>2024-08-09T14:09:54Z</time></trkpt>
<trkpt lat="46.06037" lon="7.95948"><ele>1948.2</ele><time>2024-08-09T14:09:58Z</time></trkpt>
<trkpt lat="46.06038" lon="7.95948"><ele>1947.2</ele><time>2024-08-09T14:10:02Z</time></trkpt>
<trkpt lat="46.06039" lon="7.95949"><ele>1947</ele><time>2024-08-09T14:10:06Z</time></trkpt>
<trkpt lat="46.0604" lon="7.9595"><ele>1947</ele><time>2024-08-09T14:10:07Z</time></trkpt>
<trkpt lat="46.0604" lon="7.9595"><ele>1947</ele><time>2024-08-09T14:10:08Z</time></trkpt>
<trkpt lat="46.06041" lon="7.9595"><ele>1947</ele><time>2024-08-09T14:10:09Z</time></trkpt>
<trkpt lat="46.06041" lon="7.9595"><ele>1947</ele><time>2024-08-09T14:10:10Z</time></trkpt>
<trkpt lat="46.06042" lon="7.95949"><ele>1946.8</ele><time>2024-08-09T14:10:11Z</time></trkpt>
<trkpt lat="46.06047" lon="7.95948"><ele>1946</ele><time>2024-08-09T14:10:18Z</time></trkpt>
<trkpt lat="46.06047" lon="7.95947"><ele>1946</ele><time>2024-08-09T14:10:19Z</time></trkpt>
<trkpt lat="46.06047" lon="7.95946"><ele>1946</ele><time>2024-08-09T14:10:20Z</time></trkpt>
<trkpt lat="46.06048" lon="7.95946"><ele>1946</ele><time>2024-08-09T14:10:21Z</time></trkpt>
<trkpt lat="46.06048" lon="7.95945"><ele>1945.8</ele><time>2024-08-09T14:10:24Z</time></trkpt>
<trkpt lat="46.06051" lon="7.95942"><ele>1945.2</ele><time>2024-08-09T14:10:29Z</time></trkpt>
<trkpt lat="46.06052" lon="7.95941"><ele>1945</ele><time>2024-08-09T14:10:32Z</time></trkpt>
<trkpt lat="46.06053" lon="7.9594"><ele>1944.2</ele><time>2024-08-09T14:10:35Z</time></trkpt>
<trkpt lat="46.06056" lon="7.9594"><ele>1943.8</ele><time>2024-08-09T14:10:39Z</time></trkpt>
<trkpt lat="46.06056" lon="7.9594"><ele>1943.6</ele><time>2024-08-09T14:10:41Z</time></trkpt>
<trkpt lat="46.06058" lon="7.9594"><ele>1943.2</ele><time>2024-08-09T14:10:43Z</time></trkpt>
<trkpt lat="46.0606" lon="7.95938"><ele>1942.8</ele><time>2024-08-09T14:10:45Z</time></trkpt>
<trkpt lat="46.06062" lon="7.95937"><ele>1942.6</ele><time>2024-08-09T14:10:47Z</time></trkpt>
<trkpt lat="46.06066" lon="7.95934"><ele>1942</ele><time>2024-08-09T14:10:51Z</time></trkpt>
<trkpt lat="46.0607" lon="7.95932"><ele>1942</ele><time>2024-08-09T14:10:54Z</time></trkpt>
<trkpt lat="46.06072" lon="7.95931"><ele>1941.8</ele><time>2024-08-09T14:10:56Z</time></trkpt>
<trkpt lat="46.06077" lon="7.9593"><ele>1940.8</ele><time>2024-08-09T14:11:01Z</time></trkpt>
<trkpt lat="46.06078" lon="7.9593"><ele>1940.6</ele><time>2024-08-09T14:11:02Z</time></trkpt>
<trkpt lat="46.06084" lon="7.95929"><ele>1940.8</ele><time>2024-08-09T14:11:09Z</time></trkpt>
<trkpt lat="46.06089" lon="7.95927"><ele>1940.4</ele><time>2024-08-09T14:11:15Z</time></trkpt>
<trkpt lat="46.0609" lon="7.95929"><ele>1940.4</ele><time>2024-08-09T14:11:20Z</time></trkpt>
<trkpt lat="46.06092" lon="7.95928"><ele>1939.8</ele><time>2024-08-09T14:11:27Z</time></trkpt>
<trkpt lat="46.06093" lon="7.95927"><ele>1939.6</ele><time>2024-08-09T14:11:29Z</time></trkpt>
<trkpt lat="46.06095" lon="7.95924"><ele>1938.4</ele><time>2024-08-09T14:11:34Z</time></trkpt>
<trkpt lat="46.06096" lon="7.95922"><ele>1938.4</ele><time>2024-08-09T14:11:36Z</time></trkpt>
<trkpt lat="46.06099" lon="7.9592"><ele>1938</ele><time>2024-08-09T14:11:39Z</time></trkpt>
<trkpt lat="46.06102" lon="7.95916"><ele>1937.4</ele><time>2024-08-09T14:11:43Z</time></trkpt>
<trkpt lat="46.06104" lon="7.95913"><ele>1937.2</ele><time>2024-08-09T14:11:46Z</time></trkpt>
<trkpt lat="46.06108" lon="7.95908"><ele>1937</ele><time>2024-08-09T14:11:51Z</time></trkpt>
<trkpt lat="46.06111" lon="7.95903"><ele>1936.4</ele><time>2024-08-09T14:11:57Z</time></trkpt>
<trkpt lat="46.06112" lon="7.95902"><ele>1936.2</ele><time>2024-08-09T14:11:58Z</time></trkpt>
<trkpt lat="46.06116" lon="7.95902"><ele>1935</ele><time>2024-08-09T14:12:04Z</time></trkpt>
<trkpt lat="46.0612" lon="7.95901"><ele>1934.6</ele><time>2024-08-09T14:12:08Z</time></trkpt>
<trkpt lat="46.0612" lon="7.95902"><ele>1934.4</ele><time>2024-08-09T14:12:09Z</time></trkpt>
<trkpt lat="46.0612" lon="7.95904"><ele>1934.4</ele><time>2024-08-09T14:12:11Z</time></trkpt>
<trkpt lat="46.06119" lon="7.95908"><ele>1934.2</ele><time>2024-08-09T14:12:14Z</time></trkpt>
<trkpt lat="46.06118" lon="7.95913"><ele>1934</ele><time>2024-08-09T14:12:20Z</time></trkpt>
<trkpt lat="46.06119" lon="7.95914"><ele>1934</ele><time>2024-08-09T14:12:21Z</time></trkpt>
<trkpt lat="46.06121" lon="7.95918"><ele>1933.6</ele><time>2024-08-09T14:12:25Z</time></trkpt>
<trkpt lat="46.06123" lon="7.95918"><ele>1933.6</ele><time>2024-08-09T14:12:27Z</time></trkpt>
<trkpt lat="46.06128" lon="7.95915"><ele>1933.2</ele><time>2024-08-09T14:12:32Z</time></trkpt>
<trkpt lat="46.06134" lon="7.95915"><ele>1933</ele><time>2024-08-09T14:12:36Z</time></trkpt>
<trkpt lat="46.06136" lon="7.95915"><ele>1932.6</ele><time>2024-08-09T14:12:38Z</time></trkpt>
<trkpt lat="46.06137" lon="7.95915"><ele>1932.6</ele><time>2024-08-09T14:12:39Z</time></trkpt>
<trkpt lat="46.06139" lon="7.95916"><ele>1932.2</ele><time>2024-08-09T14:12:41Z</time></trkpt>
<trkpt lat="46.06144" lon="7.95919"><ele>1932.2</ele><time>2024-08-09T14:12:45Z</time></trkpt>
<trkpt lat="46.06144" lon="7.95921"><ele>1932.2</ele><time>2024-08-09T14:12:46Z</time></trkpt>
<trkpt lat="46.06148" lon="7.95925"><ele>1932</ele><time>2024-08-09T14:12:50Z</time></trkpt>
<trkpt lat="46.06149" lon="7.95926"><ele>1931.8</ele><time>2024-08-09T14:12:52Z</time></trkpt>
<trkpt lat="46.06152" lon="7.95921"><ele>1931.8</ele><time>2024-08-09T14:12:59Z</time></trkpt>
<trkpt lat="46.06157" lon="7.95918"><ele>1931.2</ele><time>2024-08-09T14:13:05Z</time></trkpt>
<trkpt lat="46.06159" lon="7.95917"><ele>1931</ele><time>2024-08-09T14:13:08Z</time></trkpt>
<trkpt lat="46.06161" lon="7.95919"><ele>1930.8</ele><time>2024-08-09T14:13:12Z</time></trkpt>
<trkpt lat="46.06161" lon="7.95921"><ele>1930.8</ele><time>2024-08-09T14:13:14Z</time></trkpt>
<trkpt lat="46.06162" lon="7.95924"><ele>1930.8</ele><time>2024-08-09T14:13:17Z</time></trkpt>
<trkpt lat="46.06164" lon="7.95929"><ele>1930.4</ele><time>2024-08-09T14:13:24Z</time></trkpt>
<trkpt lat="46.06165" lon="7.95934"><ele>1930</ele><time>2024-08-09T14:13:29Z</time></trkpt>
<trkpt lat="46.06166" lon="7.95935"><ele>1930</ele><time>2024-08-09T14:13:30Z</time></trkpt>
<trkpt lat="46.06168" lon="7.95939"><ele>1929.8</ele><time>2024-08-09T14:13:36Z</time></trkpt>
<trkpt lat="46.06173" lon="7.95939"><ele>1929</ele><time>2024-08-09T14:13:42Z</time></trkpt>
<trkpt lat="46.06174" lon="7.95938"><ele>1929</ele><time>2024-08-09T14:13:44Z</time></trkpt>
<trkpt lat="46.06178" lon="7.95933"><ele>1928.6</ele><time>2024-08-09T14:13:48Z</time></trkpt>
<trkpt lat="46.06181" lon="7.95936"><ele>1928.2</ele><time>2024-08-09T14:13:51Z</time></trkpt>
<trkpt lat="46.06182" lon="7.95938"><ele>1928</ele><time>2024-08-09T14:13:53Z</time></trkpt>
<trkpt lat="46.06183" lon="7.95939"><ele>1927.8</ele><time>2024-08-09T14:13:55Z</time></trkpt>
<trkpt lat="46.06184" lon="7.95939"><ele>1927.2</ele><time>2024-08-09T14:14:00Z</time></trkpt>
<trkpt lat="46.06187" lon="7.95939"><ele>1927.2</ele><time>2024-08-09T14:14:06Z</time></trkpt>
<trkpt lat="46.06187" lon="7.95942"><ele>1926.8</ele><time>2024-08-09T14:14:14Z</time></trkpt>
<trkpt lat="46.06188" lon="7.95942"><ele>1926.6</ele><time>2024-08-09T14:14:15Z</time></trkpt>
<trkpt lat="46.06192" lon="7.95943"><ele>1925.6</ele><time>2024-08-09T14:14:21Z</time></trkpt>
<trkpt lat="46.06196" lon="7.95944"><ele>1925.4</ele><time>2024-08-09T14:14:29Z</time></trkpt>
<trkpt lat="46.06199" lon="7.95941"><ele>1924.4</ele><time>2024-08-09T14:14:36Z</time></trkpt>
<trkpt lat="46.06202" lon="7.95938"><ele>1923.4</ele><time>2024-08-09T14:14:42Z</time></trkpt>
<trkpt lat="46.06203" lon="7.95938"><ele>1923.4</ele><time>2024-08-09T14:14:43Z</time></trkpt>
<trkpt lat="46.06208" lon="7.9594"><ele>1922.6</ele><time>2024-08-09T14:14:50Z</time></trkpt>
<trkpt lat="46.06209" lon="7.95943"><ele>1922.4</ele><time>2024-08-09T14:14:54Z</time></trkpt>
<trkpt lat="46.0621" lon="7.95942"><ele>1922.4</ele><time>2024-08-09T14:14:55Z</time></trkpt>
<trkpt lat="46.06213" lon="7.9594"><ele>1921.2</ele><time>2024-08-09T14:14:59Z</time></trkpt>
<trkpt lat="46.06215" lon="7.95938"><ele>1920.6</ele><time>2024-08-09T14:15:02Z</time></trkpt>
<trkpt lat="46.06219" lon="7.9594"><ele>1920.6</ele><time>2024-08-09T14:15:08Z</time></trkpt>
<trkpt lat="46.06221" lon="7.95941"><ele>1920</ele><time>2024-08-09T14:15:13Z</time></trkpt>
<trkpt lat="46.06221" lon="7.95941"><ele>1919.6</ele><time>2024-08-09T14:15:14Z</time></trkpt>
<trkpt lat="46.06225" lon="7.95942"><ele>1919.2</ele><time>2024-08-09T14:15:21Z</time></trkpt>
<trkpt lat="46.06228" lon="7.95944"><ele>1918.8</ele><time>2024-08-09T14:15:24Z</time></trkpt>
<trkpt lat="46.06229" lon="7.9595"><ele>1919</ele><time>2024-08-09T14:15:28Z</time></trkpt>
<trkpt lat="46.06229" lon="7.95954"><ele>1918.8</ele><time>2024-08-09T14:15:32Z</time></trkpt>
<trkpt lat="46.06229" lon="7.95957"><ele>1918.8</ele><time>2024-08-09T14:15:34Z</time></trkpt>
<trkpt lat="46.06233" lon="7.95965"><ele>1917.8</ele><time>2024-08-09T14:15:41Z</time></trkpt>
<trkpt lat="46.06232" lon="7.95975"><ele>1917.4</ele><time>2024-08-09T14:15:47Z</time></trkpt>
<trkpt lat="46.06233" lon="7.95976"><ele>1917.4</ele><time>2024-08-09T14:15:48Z</time></trkpt>
<trkpt lat="46.06235" lon="7.95978"><ele>1918</ele><time>2024-08-09T14:15:52Z</time></trkpt>
<trkpt lat="46.06235" lon="7.95977"><ele>1918.4</ele><time>2024-08-09T14:15:57Z</time></trkpt>
<trkpt lat="46.06235" lon="7.95979"><ele>1918.4</ele><time>2024-08-09T14:16:02Z</time></trkpt>
<trkpt lat="46.0624" lon="7.95975"><ele>1918.8</ele><time>2024-08-09T14:16:07Z</time></trkpt>
<trkpt lat="46.06253" lon="7.95965"><ele>1917.8</ele><time>2024-08-09T14:16:12Z</time></trkpt>
<trkpt lat="46.06266" lon="7.95959"><ele>1916.6</ele><time>2024-08-09T14:16:16Z</time></trkpt>
<trkpt lat="46.06273" lon="7.95955"><ele>1916</ele><time>2024-08-09T14:16:18Z</time></trkpt>
<trkpt lat="46.06279" lon="7.9595"><ele>1915.6</ele><time>2024-08-09T14:16:20Z</time></trkpt>
<trkpt lat="46.06286" lon="7.95947"><ele>1914</ele><time>2024-08-09T14:16:22Z</time></trkpt>
<trkpt lat="46.06296" lon="7.95942"><ele>1913.6</ele><time>2024-08-09T14:16:25Z</time></trkpt>
<trkpt lat="46.06306" lon="7.95937"><ele>1912.8</ele><time>2024-08-09T14:16:27Z</time></trkpt>
<trkpt lat="46.06315" lon="7.9593"><ele>1911.6</ele><time>2024-08-09T14:16:29Z</time></trkpt>
<trkpt lat="46.06327" lon="7.9592"><ele>1910</ele><time>2024-08-09T14:16:32Z</time></trkpt>
<trkpt lat="46.06336" lon="7.95914"><ele>1909</ele><time>2024-08-09T14:16:34Z</time></trkpt>
<trkpt lat="46.06341" lon="7.95911"><ele>1908.6</ele><time>2024-08-09T14:16:35Z</time></trkpt>
<trkpt lat="46.06349" lon="7.95904"><ele>1907.4</ele><time>2024-08-09T14:16:37Z</time></trkpt>
<trkpt lat="46.06362" lon="7.95894"><ele>1906</ele><time>2024-08-09T14:16:40Z</time></trkpt>
<trkpt lat="46.06366" lon="7.9589"><ele>1904.8</ele><time>2024-08-09T14:16:41Z</time></trkpt>
<trkpt lat="46.06371" lon="7.95886"><ele>1904.6</ele><time>2024-08-09T14:16:42Z</time></trkpt>
<trkpt lat="46.06383" lon="7.95872"><ele>1902.8</ele><time>2024-08-09T14:16:45Z</time></trkpt>
<trkpt lat="46.06391" lon="7.95862"><ele>1901.8</ele><time>2024-08-09T14:16:47Z</time></trkpt>
<trkpt lat="46.06394" lon="7.95855"><ele>1901.6</ele><time>2024-08-09T14:16:48Z</time></trkpt>
<trkpt lat="46.06403" lon="7.95838"><ele>1900.2</ele><time>2024-08-09T14:16:51Z</time></trkpt>
<trkpt lat="46.06409" lon="7.95829"><ele>1898.8</ele><time>2024-08-09T14:16:53Z</time></trkpt>
<trkpt lat="46.06411" lon="7.95826"><ele>1898.2</ele><time>2024-08-09T14:16:54Z</time></trkpt>
<trkpt lat="46.06413" lon="7.95823"><ele>1898</ele><time>2024-08-09T14:16:55Z</time></trkpt>
<trkpt lat="46.06417" lon="7.95822"><ele>1897.6</ele><time>2024-08-09T14:16:57Z</time></trkpt>
<trkpt lat="46.0642" lon="7.95823"><ele>1897.6</ele><time>2024-08-09T14:16:58Z</time></trkpt>
<trkpt lat="46.06435" lon="7.95833"><ele>1896.4</ele><time>2024-08-09T14:17:02Z</time></trkpt>
<trkpt lat="46.0644" lon="7.95835"><ele>1895.2</ele><time>2024-08-09T14:17:03Z</time></trkpt>
<trkpt lat="46.0645" lon="7.95839"><ele>1893.8</ele><time>2024-08-09T14:17:05Z</time></trkpt>
<trkpt lat="46.06456" lon="7.95841"><ele>1893</ele><time>2024-08-09T14:17:06Z</time></trkpt>
<trkpt lat="46.06462" lon="7.95843"><ele>1892</ele><time>2024-08-09T14:17:07Z</time></trkpt>
<trkpt lat="46.06468" lon="7.95845"><ele>1891.4</ele><time>2024-08-09T14:17:08Z</time></trkpt>
<trkpt lat="46.06475" lon="7.95847"><ele>1891</ele><time>2024-08-09T14:17:09Z</time></trkpt>
<trkpt lat="46.06498" lon="7.95855"><ele>1890.4</ele><time>2024-08-09T14:17:12Z</time></trkpt>
<trkpt lat="46.06538" lon="7.95869"><ele>1889.6</ele><time>2024-08-09T14:17:17Z</time></trkpt>
<trkpt lat="46.06546" lon="7.95871"><ele>1888.6</ele><time>2024-08-09T14:17:18Z</time></trkpt>
<trkpt lat="46.06554" lon="7.95872"><ele>1887.6</ele><time>2024-08-09T14:17:19Z</time></trkpt>
<trkpt lat="46.06563" lon="7.95873"><ele>1885.2</ele><time>2024-08-09T14:17:20Z</time></trkpt>
<trkpt lat="46.06581" lon="7.95875"><ele>1883.6</ele><time>2024-08-09T14:17:22Z</time></trkpt>
<trkpt lat="46.0659" lon="7.95876"><ele>1883</ele><time>2024-08-09T14:17:23Z</time></trkpt>
<trkpt lat="46.06608" lon="7.95875"><ele>1882.4</ele><time>2024-08-09T14:17:25Z</time></trkpt>
<trkpt lat="46.06627" lon="7.95872"><ele>1881.2</ele><time>2024-08-09T14:17:27Z</time></trkpt>
<trkpt lat="46.06637" lon="7.95871"><ele>1880.6</ele><time>2024-08-09T14:17:28Z</time></trkpt>
<trkpt lat="46.06647" lon="7.9587"><ele>1880</ele><time>2024-08-09T14:17:29Z</time></trkpt>
<trkpt lat="46.06667" lon="7.95868"><ele>1877.8</ele><time>2024-08-09T14:17:31Z</time></trkpt>
<trkpt lat="46.06677" lon="7.95867"><ele>1876.2</ele><time>2024-08-09T14:17:32Z</time></trkpt>
<trkpt lat="46.06699" lon="7.95866"><ele>1875</ele><time>2024-08-09T14:17:34Z</time></trkpt>
<trkpt lat="46.0672" lon="7.95864"><ele>1873.4</ele><time>2024-08-09T14:17:36Z</time></trkpt>
<trkpt lat="46.0673" lon="7.95864"><ele>1871.4</ele><time>2024-08-09T14:17:37Z</time></trkpt>
<trkpt lat="46.06741" lon="7.95862"><ele>1870.4</ele><time>2024-08-09T14:17:38Z</time></trkpt>
<trkpt lat="46.0676" lon="7.95859"><ele>1869.6</ele><time>2024-08-09T14:17:40Z</time></trkpt>
<trkpt lat="46.0677" lon="7.95856"><ele>1869</ele><time>2024-08-09T14:17:41Z</time></trkpt>
<trkpt lat="46.0679" lon="7.95851"><ele>1867</ele><time>2024-08-09T14:17:43Z</time></trkpt>
<trkpt lat="46.0681" lon="7.95845"><ele>1864.8</ele><time>2024-08-09T14:17:45Z</time></trkpt>
<trkpt lat="46.0682" lon="7.95842"><ele>1864.4</ele><time>2024-08-09T14:17:46Z</time></trkpt>
<trkpt lat="46.0683" lon="7.95837"><ele>1863</ele><time>2024-08-09T14:17:47Z</time></trkpt>
<trkpt lat="46.06841" lon="7.95833"><ele>1862</ele><time>2024-08-09T14:17:48Z</time></trkpt>
<trkpt lat="46.06851" lon="7.95827"><ele>1861.6</ele><time>2024-08-09T14:17:49Z</time></trkpt>
<trkpt lat="46.06861" lon="7.9582"><ele>1861</ele><time>2024-08-09T14:17:50Z</time></trkpt>
<trkpt lat="46.06871" lon="7.95813"><ele>1858.4</ele><time>2024-08-09T14:17:51Z</time></trkpt>
<trkpt lat="46.0689" lon="7.95796"><ele>1856.8</ele><time>2024-08-09T14:17:53Z</time></trkpt>
<trkpt lat="46.06899" lon="7.95788"><ele>1855.4</ele><time>2024-08-09T14:17:54Z</time></trkpt>
<trkpt lat="46.06909" lon="7.95779"><ele>1855</ele><time>2024-08-09T14:17:55Z</time></trkpt>
<trkpt lat="46.06939" lon="7.95758"><ele>1854</ele><time>2024-08-09T14:17:58Z</time></trkpt>
<trkpt lat="46.0696" lon="7.95751"><ele>1852.2</ele><time>2024-08-09T14:18:00Z</time></trkpt>
<trkpt lat="46.06971" lon="7.9575"><ele>1849.8</ele><time>2024-08-09T14:18:01Z</time></trkpt>
<trkpt lat="46.06993" lon="7.95751"><ele>1847.4</ele><time>2024-08-09T14:18:03Z</time></trkpt>
<trkpt lat="46.07005" lon="7.95753"><ele>1846.8</ele><time>2024-08-09T14:18:04Z</time></trkpt>
<trkpt lat="46.07016" lon="7.95754"><ele>1846.2</ele><time>2024-08-09T14:18:05Z</time></trkpt>
<trkpt lat="46.07049" lon="7.95756"><ele>1844.8</ele><time>2024-08-09T14:18:08Z</time></trkpt>
<trkpt lat="46.07061" lon="7.95754"><ele>1844</ele><time>2024-08-09T14:18:09Z</time></trkpt>
<trkpt lat="46.07073" lon="7.95751"><ele>1842.6</ele><time>2024-08-09T14:18:10Z</time></trkpt>
<trkpt lat="46.07084" lon="7.95747"><ele>1840.4</ele><time>2024-08-09T14:18:11Z</time></trkpt>
<trkpt lat="46.07106" lon="7.95737"><ele>1839</ele><time>2024-08-09T14:18:13Z</time></trkpt>
<trkpt lat="46.07117" lon="7.95732"><ele>1838.6</ele><time>2024-08-09T14:18:14Z</time></trkpt>
<trkpt lat="46.07127" lon="7.95727"><ele>1837.4</ele><time>2024-08-09T14:18:15Z</time></trkpt>
<trkpt lat="46.07138" lon="7.95722"><ele>1835.8</ele><time>2024-08-09T14:18:16Z</time></trkpt>
<trkpt lat="46.0716" lon="7.95712"><ele>1834.4</ele><time>2024-08-09T14:18:18Z</time></trkpt>
<trkpt lat="46.07193" lon="7.95697"><ele>1832.4</ele><time>2024-08-09T14:18:21Z</time></trkpt>
<trkpt lat="46.07204" lon="7.95692"><ele>1830.8</ele><time>2024-08-09T14:18:22Z</time></trkpt>
<trkpt lat="46.07236" lon="7.95678"><ele>1829.4</ele><time>2024-08-09T14:18:25Z</time></trkpt>
<trkpt lat="46.07257" lon="7.95671"><ele>1828.2</ele><time>2024-08-09T14:18:27Z</time></trkpt>
<trkpt lat="46.07278" lon="7.95669"><ele>1826.8</ele><time>2024-08-09T14:18:29Z</time></trkpt>
<trkpt lat="46.07299" lon="7.95668"><ele>1826</ele><time>2024-08-09T14:18:31Z</time></trkpt>
<trkpt lat="46.07309" lon="7.95668"><ele>1825.4</ele><time>2024-08-09T14:18:32Z</time></trkpt>
<trkpt lat="46.07319" lon="7.95668"><ele>1824.4</ele><time>2024-08-09T14:18:33Z</time></trkpt>
<trkpt lat="46.07328" lon="7.95668"><ele>1822.8</ele><time>2024-08-09T14:18:34Z</time></trkpt>
<trkpt lat="46.07347" lon="7.95668"><ele>1821.4</ele><time>2024-08-09T14:18:36Z</time></trkpt>
<trkpt lat="46.07357" lon="7.95668"><ele>1820.4</ele><time>2024-08-09T14:18:37Z</time></trkpt>
<trkpt lat="46.07375" lon="7.95669"><ele>1819.4</ele><time>2024-08-09T14:18:39Z</time></trkpt>
<trkpt lat="46.07384" lon="7.95669"><ele>1819.2</ele><time>2024-08-09T14:18:40Z</time></trkpt>
<trkpt lat="46.07421" lon="7.95674"><ele>1817.8</ele><time>2024-08-09T14:18:44Z</time></trkpt>
<trkpt lat="46.07439" lon="7.95677"><ele>1816.6</ele><time>2024-08-09T14:18:46Z</time></trkpt>
<trkpt lat="46.07448" lon="7.95679"><ele>1815.8</ele><time>2024-08-09T14:18:47Z</time></trkpt>
<trkpt lat="46.07458" lon="7.95681"><ele>1815.4</ele><time>2024-08-09T14:18:48Z</time></trkpt>
<trkpt lat="46.07475" lon="7.95684"><ele>1814</ele><time>2024-08-09T14:18:50Z</time></trkpt>
<trkpt lat="46.07493" lon="7.95688"><ele>1813</ele><time>2024-08-09T14:18:52Z</time></trkpt>
<trkpt lat="46.07512" lon="7.95692"><ele>1812.2</ele><time>2024-08-09T14:18:54Z</time></trkpt>
<trkpt lat="46.07521" lon="7.95694"><ele>1811.8</ele><time>2024-08-09T14:18:55Z</time></trkpt>
<trkpt lat="46.0754" lon="7.95697"><ele>1810.6</ele><time>2024-08-09T14:18:57Z</time></trkpt>
<trkpt lat="46.07549" lon="7.95699"><ele>1809.4</ele><time>2024-08-09T14:18:58Z</time></trkpt>
<trkpt lat="46.07575" lon="7.95703"><ele>1807.4</ele><time>2024-08-09T14:19:01Z</time></trkpt>
<trkpt lat="46.07611" lon="7.95709"><ele>1805.4</ele><time>2024-08-09T14:19:05Z</time></trkpt>
<trkpt lat="46.07629" lon="7.95711"><ele>1804.2</ele><time>2024-08-09T14:19:07Z</time></trkpt>
<trkpt lat="46.07638" lon="7.95712"><ele>1803.6</ele><time>2024-08-09T14:19:08Z</time></trkpt>
<trkpt lat="46.07648" lon="7.95712"><ele>1803</ele><time>2024-08-09T14:19:09Z</time></trkpt>
<trkpt lat="46.07676" lon="7.95713"><ele>1801.8</ele><time>2024-08-09T14:19:12Z</time></trkpt>
<trkpt lat="46.07703" lon="7.95713"><ele>1800.6</ele><time>2024-08-09T14:19:15Z</time></trkpt>
<trkpt lat="46.07721" lon="7.95713"><ele>1800</ele><time>2024-08-09T14:19:17Z</time></trkpt>
<trkpt lat="46.0773" lon="7.95712"><ele>1798.6</ele><time>2024-08-09T14:19:18Z</time></trkpt>
<trkpt lat="46.07749" lon="7.95713"><ele>1797</ele><time>2024-08-09T14:19:20Z</time></trkpt>
<trkpt lat="46.07767" lon="7.95712"><ele>1795.6</ele><time>2024-08-09T14:19:22Z</time></trkpt>
<trkpt lat="46.07786" lon="7.95711"><ele>1794</ele><time>2024-08-09T14:19:24Z</time></trkpt>
<trkpt lat="46.07795" lon="7.95711"><ele>1793</ele><time>2024-08-09T14:19:25Z</time></trkpt>
<trkpt lat="46.07813" lon="7.9571"><ele>1791.8</ele><time>2024-08-09T14:19:27Z</time></trkpt>
<trkpt lat="46.07831" lon="7.95713"><ele>1790.4</ele><time>2024-08-09T14:19:29Z</time></trkpt>
<trkpt lat="46.07858" lon="7.95722"><ele>1788.2</ele><time>2024-08-09T14:19:32Z</time></trkpt>
<trkpt lat="46.07874" lon="7.95731"><ele>1787.6</ele><time>2024-08-09T14:19:34Z</time></trkpt>
<trkpt lat="46.07914" lon="7.9576"><ele>1786.6</ele><time>2024-08-09T14:19:39Z</time></trkpt>
<trkpt lat="46.07922" lon="7.95765"><ele>1786.2</ele><time>2024-08-09T14:19:40Z</time></trkpt>
<trkpt lat="46.07938" lon="7.95776"><ele>1785.2</ele><time>2024-08-09T14:19:42Z</time></trkpt>
<trkpt lat="46.07956" lon="7.95782"><ele>1784.2</ele><time>2024-08-09T14:19:44Z</time></trkpt>
<trkpt lat="46.07965" lon="7.95784"><ele>1783.8</ele><time>2024-08-09T14:19:45Z</time></trkpt>
<trkpt lat="46.07974" lon="7.95785"><ele>1783</ele><time>2024-08-09T14:19:46Z</time></trkpt>
<trkpt lat="46.07983" lon="7.95787"><ele>1781.8</ele><time>2024-08-09T14:19:47Z</time></trkpt>
<trkpt lat="46.08" lon="7.95788"><ele>1780.4</ele><time>2024-08-09T14:19:49Z</time></trkpt>
<trkpt lat="46.08024" lon="7.95792"><ele>1779.2</ele><time>2024-08-09T14:19:52Z</time></trkpt>
<trkpt lat="46.08047" lon="7.95802"><ele>1778</ele><time>2024-08-09T14:19:55Z</time></trkpt>
<trkpt lat="46.08062" lon="7.95811"><ele>1776.6</ele><time>2024-08-09T14:19:57Z</time></trkpt>
<trkpt lat="46.08076" lon="7.95821"><ele>1775.4</ele><time>2024-08-09T14:19:59Z</time></trkpt>
<trkpt lat="46.08106" lon="7.95844"><ele>1773.8</ele><time>2024-08-09T14:20:03Z</time></trkpt>
<trkpt lat="46.08113" lon="7.9585"><ele>1773.2</ele><time>2024-08-09T14:20:04Z</time></trkpt>
<trkpt lat="46.08128" lon="7.95861"><ele>1772.6</ele><time>2024-08-09T14:20:06Z</time></trkpt>
<trkpt lat="46.08151" lon="7.95879"><ele>1771.2</ele><time>2024-08-09T14:20:09Z</time></trkpt>
<trkpt lat="46.08166" lon="7.95892"><ele>1770</ele><time>2024-08-09T14:20:11Z</time></trkpt>
<trkpt lat="46.08181" lon="7.95906"><ele>1769.4</ele><time>2024-08-09T14:20:13Z</time></trkpt>
<trkpt lat="46.08188" lon="7.95914"><ele>1768.6</ele><time>2024-08-09T14:20:14Z</time></trkpt>
<trkpt lat="46.0821" lon="7.95938"><ele>1767.2</ele><time>2024-08-09T14:20:17Z</time></trkpt>
<trkpt lat="46.08218" lon="7.95944"><ele>1767</ele><time>2024-08-09T14:20:18Z</time></trkpt>
<trkpt lat="46.08227" lon="7.95946"><ele>1766.6</ele><time>2024-08-09T14:20:19Z</time></trkpt>
<trkpt lat="46.08236" lon="7.95944"><ele>1766.4</ele><time>2024-08-09T14:20:20Z</time></trkpt>
<trkpt lat="46.08245" lon="7.95938"><ele>1765.8</ele><time>2024-08-09T14:20:21Z</time></trkpt>
<trkpt lat="46.08252" lon="7.95929"><ele>1765.6</ele><time>2024-08-09T14:20:22Z</time></trkpt>
<trkpt lat="46.08266" lon="7.9591"><ele>1764.4</ele><time>2024-08-09T14:20:24Z</time></trkpt>
<trkpt lat="46.08273" lon="7.95901"><ele>1763</ele><time>2024-08-09T14:20:25Z</time></trkpt>
<trkpt lat="46.08294" lon="7.95875"><ele>1762</ele><time>2024-08-09T14:20:28Z</time></trkpt>
<trkpt lat="46.08318" lon="7.95855"><ele>1760.2</ele><time>2024-08-09T14:20:31Z</time></trkpt>
<trkpt lat="46.08336" lon="7.95853"><ele>1759.4</ele><time>2024-08-09T14:20:33Z</time></trkpt>
<trkpt lat="46.08345" lon="7.95854"><ele>1758.8</ele><time>2024-08-09T14:20:34Z</time></trkpt>
<trkpt lat="46.08363" lon="7.95858"><ele>1757.4</ele><time>2024-08-09T14:20:36Z</time></trkpt>
<trkpt lat="46.08371" lon="7.95861"><ele>1755.4</ele><time>2024-08-09T14:20:37Z</time></trkpt>
<trkpt lat="46.0838" lon="7.95864"><ele>1754.4</ele><time>2024-08-09T14:20:38Z</time></trkpt>
<trkpt lat="46.08389" lon="7.95865"><ele>1753.6</ele><time>2024-08-09T14:20:39Z</time></trkpt>
<trkpt lat="46.08397" lon="7.95866"><ele>1753.2</ele><time>2024-08-09T14:20:40Z</time></trkpt>
<trkpt lat="46.08422" lon="7.95872"><ele>1752</ele><time>2024-08-09T14:20:43Z</time></trkpt>
<trkpt lat="46.0843" lon="7.95874"><ele>1751.8</ele><time>2024-08-09T14:20:44Z</time></trkpt>
<trkpt lat="46.08462" lon="7.9589"><ele>1751.4</ele><time>2024-08-09T14:20:48Z</time></trkpt>
<trkpt lat="46.08505" lon="7.95918"><ele>1752</ele><time>2024-08-09T14:20:54Z</time></trkpt>
<trkpt lat="46.08518" lon="7.95926"><ele>1751.6</ele><time>2024-08-09T14:20:56Z</time></trkpt>
<trkpt lat="46.08533" lon="7.95925"><ele>1751</ele><time>2024-08-09T14:20:58Z</time></trkpt>
<trkpt lat="46.08539" lon="7.95922"><ele>1750.8</ele><time>2024-08-09T14:20:59Z</time></trkpt>
<trkpt lat="46.08546" lon="7.95917"><ele>1750.4</ele><time>2024-08-09T14:21:00Z</time></trkpt>
<trkpt lat="46.08552" lon="7.95912"><ele>1749.2</ele><time>2024-08-09T14:21:01Z</time></trkpt>
<trkpt lat="46.08558" lon="7.95907"><ele>1749.2</ele><time>2024-08-09T14:21:02Z</time></trkpt>
<trkpt lat="46.08604" lon="7.95866"><ele>1748.4</ele><time>2024-08-09T14:21:09Z</time></trkpt>
<trkpt lat="46.08611" lon="7.95861"><ele>1748.2</ele><time>2024-08-09T14:21:10Z</time></trkpt>
<trkpt lat="46.08618" lon="7.95854"><ele>1748</ele><time>2024-08-09T14:21:11Z</time></trkpt>
<trkpt lat="46.08632" lon="7.95842"><ele>1747.2</ele><time>2024-08-09T14:21:13Z</time></trkpt>
<trkpt lat="46.08646" lon="7.95831"><ele>1746.6</ele><time>2024-08-09T14:21:15Z</time></trkpt>
<trkpt lat="46.08653" lon="7.95824"><ele>1746.4</ele><time>2024-08-09T14:21:16Z</time></trkpt>
<trkpt lat="46.0866" lon="7.95818"><ele>1746.2</ele><time>2024-08-09T14:21:17Z</time></trkpt>
<trkpt lat="46.08667" lon="7.95811"><ele>1745.8</ele><time>2024-08-09T14:21:18Z</time></trkpt>
<trkpt lat="46.08681" lon="7.95797"><ele>1744.8</ele><time>2024-08-09T14:21:20Z</time></trkpt>
<trkpt lat="46.08694" lon="7.95784"><ele>1743.6</ele><time>2024-08-09T14:21:22Z</time></trkpt>
<trkpt lat="46.08701" lon="7.95777"><ele>1743.6</ele><time>2024-08-09T14:21:23Z</time></trkpt>
<trkpt lat="46.08715" lon="7.95762"><ele>1743.2</ele><time>2024-08-09T14:21:25Z</time></trkpt>
<trkpt lat="46.08729" lon="7.95746"><ele>1741.8</ele><time>2024-08-09T14:21:27Z</time></trkpt>
<trkpt lat="46.08736" lon="7.95738"><ele>1740.4</ele><time>2024-08-09T14:21:28Z</time></trkpt>
<trkpt lat="46.0875" lon="7.95723"><ele>1739</ele><time>2024-08-09T14:21:30Z</time></trkpt>
<trkpt lat="46.08764" lon="7.95712"><ele>1738.2</ele><time>2024-08-09T14:21:32Z</time></trkpt>
<trkpt lat="46.08772" lon="7.95708"><ele>1738</ele><time>2024-08-09T14:21:33Z</time></trkpt>
<trkpt lat="46.08796" lon="7.95702"><ele>1736.8</ele><time>2024-08-09T14:21:36Z</time></trkpt>
<trkpt lat="46.08805" lon="7.95701"><ele>1736</ele><time>2024-08-09T14:21:37Z</time></trkpt>
<trkpt lat="46.08822" lon="7.95699"><ele>1735.6</ele><time>2024-08-09T14:21:39Z</time></trkpt>
<trkpt lat="46.08865" lon="7.95691"><ele>1734.2</ele><time>2024-08-09T14:21:44Z</time></trkpt>
<trkpt lat="46.08882" lon="7.95692"><ele>1733</ele><time>2024-08-09T14:21:46Z</time></trkpt>
<trkpt lat="46.08907" lon="7.95693"><ele>1732</ele><time>2024-08-09T14:21:49Z</time></trkpt>
<trkpt lat="46.08916" lon="7.95694"><ele>1732</ele><time>2024-08-09T14:21:50Z</time></trkpt>
<trkpt lat="46.08941" lon="7.95696"><ele>1730.4</ele><time>2024-08-09T14:21:53Z</time></trkpt>
<trkpt lat="46.08965" lon="7.95698"><ele>1729.4</ele><time>2024-08-09T14:21:56Z</time></trkpt>
<trkpt lat="46.0899" lon="7.957"><ele>1728</ele><time>2024-08-09T14:21:59Z</time></trkpt>
<trkpt lat="46.09006" lon="7.95702"><ele>1726.8</ele><time>2024-08-09T14:22:01Z</time></trkpt>
<trkpt lat="46.09022" lon="7.95701"><ele>1725.6</ele><time>2024-08-09T14:22:03Z</time></trkpt>
<trkpt lat="46.09038" lon="7.957"><ele>1724.6</ele><time>2024-08-09T14:22:05Z</time></trkpt>
<trkpt lat="46.09054" lon="7.95697"><ele>1724</ele><time>2024-08-09T14:22:07Z</time></trkpt>
<trkpt lat="46.0907" lon="7.95694"><ele>1723.6</ele><time>2024-08-09T14:22:09Z</time></trkpt>
<trkpt lat="46.0909" lon="7.95686"><ele>1721.4</ele><time>2024-08-09T14:22:12Z</time></trkpt>
<trkpt lat="46.09106" lon="7.9568"><ele>1721</ele><time>2024-08-09T14:22:15Z</time></trkpt>
<trkpt lat="46.09108" lon="7.95676"><ele>1720.8</ele><time>2024-08-09T14:22:16Z</time></trkpt>
<trkpt lat="46.09109" lon="7.95671"><ele>1721</ele><time>2024-08-09T14:22:17Z</time></trkpt>
<trkpt lat="46.09109" lon="7.95664"><ele>1721.2</ele><time>2024-08-09T14:22:19Z</time></trkpt>
<trkpt lat="46.0911" lon="7.95661"><ele>1721.2</ele><time>2024-08-09T14:22:20Z</time></trkpt>
<trkpt lat="46.09112" lon="7.9566"><ele>1721.2</ele><time>2024-08-09T14:22:23Z</time></trkpt>
<trkpt lat="46.09112" lon="7.95661"><ele>1721</ele><time>2024-08-09T14:22:27Z</time></trkpt>
<trkpt lat="46.09112" lon="7.95661"><ele>1721</ele><time>2024-08-09T14:22:29Z</time></trkpt>
<trkpt lat="46.0911" lon="7.9566"><ele>1720.8</ele><time>2024-08-09T14:22:35Z</time></trkpt>
<trkpt lat="46.09111" lon="7.95659"><ele>1720.4</ele><time>2024-08-09T14:22:40Z</time></trkpt>
<trkpt lat="46.09111" lon="7.95659"><ele>1720.4</ele><time>2024-08-09T14:22:43Z</time></trkpt>
<trkpt lat="46.09111" lon="7.95659"><ele>1720</ele><time>2024-08-09T14:22:53Z</time></trkpt>
<trkpt lat="46.09111" lon="7.95659"><ele>1720.2</ele><time>2024-08-09T14:23:00Z</time></trkpt>
<trkpt lat="46.09111" lon="7.95659"><ele>1720.2</ele><time>2024-08-09T14:23:03Z</time></trkpt>
<trkpt lat="46.09112" lon="7.95661"><ele>1719.8</ele><time>2024-08-09T14:23:12Z</time></trkpt>
<trkpt lat="46.09112" lon="7.95661"><ele>1719.8</ele><time>2024-08-09T14:23:24Z</time></trkpt>
<trkpt lat="46.09112" lon="7.95661"><ele>1719.8</ele><time>2024-08-09T14:23:29Z</time></trkpt>
<trkpt lat="46.09112" lon="7.95661"><ele>1719.8</ele><time>2024-08-09T14:23:30Z</time></trkpt>
<trkpt lat="46.09112" lon="7.9566"><ele>1719.4</ele><time>2024-08-09T14:23:41Z</time></trkpt>
<trkpt lat="46.09112" lon="7.9566"><ele>1719.2</ele><time>2024-08-09T14:23:42Z</time></trkpt>
<trkpt lat="46.09112" lon="7.9566"><ele>1719</ele><time>2024-08-09T14:23:49Z</time></trkpt>
<trkpt lat="46.09113" lon="7.9566"><ele>1718.8</ele><time>2024-08-09T14:23:57Z</time></trkpt>
<trkpt lat="46.09113" lon="7.9566"><ele>1719</ele><time>2024-08-09T14:24:01Z</time></trkpt>
<trkpt lat="46.09113" lon="7.9566"><ele>1718.8</ele><time>2024-08-09T14:24:03Z</time></trkpt>
<trkpt lat="46.09113" lon="7.95661"><ele>1718.8</ele><time>2024-08-09T14:24:04Z</time></trkpt>
<trkpt lat="46.09116" lon="7.95662"><ele>1718.8</ele><time>2024-08-09T14:24:06Z</time></trkpt>
<trkpt lat="46.09116" lon="7.95666"><ele>1718.4</ele><time>2024-08-09T14:24:09Z</time></trkpt>
<trkpt lat="46.09116" lon="7.95666"><ele>1718</ele><time>2024-08-09T14:24:10Z</time></trkpt>
<trkpt lat="46.09116" lon="7.95667"><ele>1718</ele><time>2024-08-09T14:24:15Z</time></trkpt>
<trkpt lat="46.09115" lon="7.95667"><ele>1718</ele><time>2024-08-09T14:24:16Z</time></trkpt>
<trkpt lat="46.09115" lon="7.95667"><ele>1718.2</ele><time>2024-08-09T14:24:20Z</time></trkpt>
<trkpt lat="46.09115" lon="7.95667"><ele>1718.4</ele><time>2024-08-09T14:24:27Z</time></trkpt>
<trkpt lat="46.09115" lon="7.95667"><ele>1718.4</ele><time>2024-08-09T14:24:32Z</time></trkpt>
<trkpt lat="46.09115" lon="7.95669"><ele>1718.2</ele><time>2024-08-09T14:24:34Z</time></trkpt>
</trkseg></trk></gpx>